<?xml version="1.0" encoding="UTF-8" standalone="no" ?>
<gpx xmlns="http://www.topografix.com/GPX/1/1" xmlns:xsi="http://www.w3.org/2001/XMLSchema-instance" xsi:schemaLocation="http://www.topografix.com/GPX/1/1 http://www.topografix.com/GPX/1/1/gpx.xsd" version="1.1" creator="VisuGPX - https://www.visugpx.com">
  <metadata>
    <name>Oisans  Trièves - Etape 1 à Etape 7  De Bourg d'Oisans Bourg d'Oisans</name>
    <desc><![CDATA[Fusion des 7 étapes de TOP cyclo Trièves ]]></desc>
  </metadata>
  <wpt lat="45.05506" lon="6.02986">
    <ele>725</ele>
    <name><![CDATA[TO - Bourg d'Oisans / La Mure]]></name>
  </wpt>
  <wpt lat="44.90652" lon="5.78493">
    <ele>884</ele>
    <name><![CDATA[TO - La Mure / St Etienne]]></name>
  </wpt>
  <wpt lat="44.69428" lon="5.94024">
    <ele>1283</ele>
    <name><![CDATA[TO - St Etienne / Mens]]></name>
  </wpt>
  <wpt lat="44.8169" lon="5.75047">
    <ele>778</ele>
    <name><![CDATA[TO - Mens / Gresse]]></name>
  </wpt>
  <wpt lat="44.90227" lon="5.56743">
    <ele>1198</ele>
    <name><![CDATA[TO - Mens / Chatillon]]></name>
  </wpt>
  <wpt lat="44.69447" lon="5.48558">
    <ele>576</ele>
    <name><![CDATA[TO - Chatillon / Mens]]></name>
  </wpt>
  <wpt lat="44.81688" lon="5.75041">
    <ele>777</ele>
    <name><![CDATA[TO - Mens / Bourg d'Ois]]></name>
  </wpt>
  <trk>
    <name><![CDATA[20180318114343-lkuZh]]></name>
    <trkseg>
      <trkpt lat="44.69428" lon="5.94024">
        <ele>1278.2</ele>
        <time>2017-12-15T18:49:43Z</time>
      </trkpt>
      <trkpt lat="44.69463" lon="5.93958">
        <ele>1277.6</ele>
        <time>2017-12-15T18:49:58Z</time>
      </trkpt>
      <trkpt lat="44.6947" lon="5.9394">
        <ele>1277.1</ele>
        <time>2017-12-15T18:50:08Z</time>
      </trkpt>
      <trkpt lat="44.69489" lon="5.93845">
        <ele>1274.2</ele>
        <time>2017-12-15T18:50:27Z</time>
      </trkpt>
      <trkpt lat="44.69506" lon="5.93765">
        <ele>1274.5</ele>
        <time>2017-12-15T18:50:35Z</time>
      </trkpt>
      <trkpt lat="44.69515" lon="5.93734">
        <ele>1273.7</ele>
        <time>2017-12-15T18:50:46Z</time>
      </trkpt>
      <trkpt lat="44.69524" lon="5.93712">
        <ele>1272.7</ele>
        <time>2017-12-15T18:50:59Z</time>
      </trkpt>
      <trkpt lat="44.69539" lon="5.93685">
        <ele>1271.2</ele>
        <time>2017-12-15T18:51:13Z</time>
      </trkpt>
      <trkpt lat="44.69563" lon="5.9365">
        <ele>1271.5</ele>
        <time>2017-12-15T18:51:16Z</time>
      </trkpt>
      <trkpt lat="44.69585" lon="5.93618">
        <ele>1280.2</ele>
        <time>2017-12-15T18:51:33Z</time>
      </trkpt>
      <trkpt lat="44.69592" lon="5.93603">
        <ele>1281.5</ele>
        <time>2017-12-15T18:51:52Z</time>
      </trkpt>
      <trkpt lat="44.69613" lon="5.93558">
        <ele>1270.2</ele>
        <time>2017-12-15T18:52:09Z</time>
      </trkpt>
      <trkpt lat="44.69627" lon="5.93532">
        <ele>1261.4</ele>
        <time>2017-12-15T18:52:17Z</time>
      </trkpt>
      <trkpt lat="44.69629" lon="5.93522">
        <ele>1257</ele>
        <time>2017-12-15T18:52:34Z</time>
      </trkpt>
      <trkpt lat="44.69629" lon="5.93511">
        <ele>1252.1</ele>
        <time>2017-12-15T18:52:36Z</time>
      </trkpt>
      <trkpt lat="44.69626" lon="5.93497">
        <ele>1251.5</ele>
        <time>2017-12-15T18:52:46Z</time>
      </trkpt>
      <trkpt lat="44.69626" lon="5.93486">
        <ele>1258.2</ele>
        <time>2017-12-15T18:52:58Z</time>
      </trkpt>
      <trkpt lat="44.69629" lon="5.93477">
        <ele>1262.2</ele>
        <time>2017-12-15T18:53:06Z</time>
      </trkpt>
      <trkpt lat="44.69636" lon="5.93467">
        <ele>1264.7</ele>
        <time>2017-12-15T18:53:20Z</time>
      </trkpt>
      <trkpt lat="44.69653" lon="5.93453">
        <ele>1259.2</ele>
        <time>2017-12-15T18:53:39Z</time>
      </trkpt>
      <trkpt lat="44.69672" lon="5.93434">
        <ele>1253</ele>
        <time>2017-12-15T18:53:46Z</time>
      </trkpt>
      <trkpt lat="44.69678" lon="5.93428">
        <ele>1252.7</ele>
        <time>2017-12-15T18:53:59Z</time>
      </trkpt>
      <trkpt lat="44.69687" lon="5.93417">
        <ele>1253.7</ele>
        <time>2017-12-15T18:54:01Z</time>
      </trkpt>
      <trkpt lat="44.69691" lon="5.93406">
        <ele>1256.1</ele>
        <time>2017-12-15T18:54:03Z</time>
      </trkpt>
      <trkpt lat="44.69689" lon="5.93385">
        <ele>1259.9</ele>
        <time>2017-12-15T18:54:15Z</time>
      </trkpt>
      <trkpt lat="44.69679" lon="5.93347">
        <ele>1254.3</ele>
        <time>2017-12-15T18:54:35Z</time>
      </trkpt>
      <trkpt lat="44.69678" lon="5.93332">
        <ele>1253.3</ele>
        <time>2017-12-15T18:54:52Z</time>
      </trkpt>
      <trkpt lat="44.6968" lon="5.93325">
        <ele>1253.2</ele>
        <time>2017-12-15T18:55:08Z</time>
      </trkpt>
      <trkpt lat="44.69691" lon="5.93312">
        <ele>1257</ele>
        <time>2017-12-15T18:55:15Z</time>
      </trkpt>
      <trkpt lat="44.69721" lon="5.93294">
        <ele>1262.3</ele>
        <time>2017-12-15T18:55:27Z</time>
      </trkpt>
      <trkpt lat="44.69748" lon="5.9328">
        <ele>1260.6</ele>
        <time>2017-12-15T18:55:35Z</time>
      </trkpt>
      <trkpt lat="44.69778" lon="5.9327">
        <ele>1262.3</ele>
        <time>2017-12-15T18:55:47Z</time>
      </trkpt>
      <trkpt lat="44.69819" lon="5.93258">
        <ele>1262.1</ele>
        <time>2017-12-15T18:55:55Z</time>
      </trkpt>
      <trkpt lat="44.6984" lon="5.93244">
        <ele>1263.7</ele>
        <time>2017-12-15T18:56:03Z</time>
      </trkpt>
      <trkpt lat="44.69853" lon="5.93224">
        <ele>1265.6</ele>
        <time>2017-12-15T18:56:12Z</time>
      </trkpt>
      <trkpt lat="44.69874" lon="5.93184">
        <ele>1262.1</ele>
        <time>2017-12-15T18:56:28Z</time>
      </trkpt>
      <trkpt lat="44.69896" lon="5.93134">
        <ele>1249.3</ele>
        <time>2017-12-15T18:56:31Z</time>
      </trkpt>
      <trkpt lat="44.699" lon="5.93103">
        <ele>1237.4</ele>
        <time>2017-12-15T18:56:37Z</time>
      </trkpt>
      <trkpt lat="44.69905" lon="5.93085">
        <ele>1232.3</ele>
        <time>2017-12-15T18:56:44Z</time>
      </trkpt>
      <trkpt lat="44.6991" lon="5.93077">
        <ele>1231.2</ele>
        <time>2017-12-15T18:57:00Z</time>
      </trkpt>
      <trkpt lat="44.69927" lon="5.93069">
        <ele>1231.5</ele>
        <time>2017-12-15T18:57:16Z</time>
      </trkpt>
      <trkpt lat="44.69949" lon="5.93067">
        <ele>1232.5</ele>
        <time>2017-12-15T18:57:23Z</time>
      </trkpt>
      <trkpt lat="44.69969" lon="5.93071">
        <ele>1234.1</ele>
        <time>2017-12-15T18:57:25Z</time>
      </trkpt>
      <trkpt lat="44.70004" lon="5.93083">
        <ele>1236.4</ele>
        <time>2017-12-15T18:57:29Z</time>
      </trkpt>
      <trkpt lat="44.70017" lon="5.93084">
        <ele>1235.5</ele>
        <time>2017-12-15T18:57:36Z</time>
      </trkpt>
      <trkpt lat="44.70028" lon="5.93079">
        <ele>1232.6</ele>
        <time>2017-12-15T18:57:54Z</time>
      </trkpt>
      <trkpt lat="44.70037" lon="5.9306">
        <ele>1225.7</ele>
        <time>2017-12-15T18:57:57Z</time>
      </trkpt>
      <trkpt lat="44.70041" lon="5.93034">
        <ele>1218.2</ele>
        <time>2017-12-15T18:58:06Z</time>
      </trkpt>
      <trkpt lat="44.70035" lon="5.92963">
        <ele>1227.2</ele>
        <time>2017-12-15T18:58:11Z</time>
      </trkpt>
      <trkpt lat="44.70036" lon="5.92934">
        <ele>1240.4</ele>
        <time>2017-12-15T18:58:17Z</time>
      </trkpt>
      <trkpt lat="44.70039" lon="5.92926">
        <ele>1242.4</ele>
        <time>2017-12-15T18:58:23Z</time>
      </trkpt>
      <trkpt lat="44.70047" lon="5.92915">
        <ele>1243.7</ele>
        <time>2017-12-15T18:58:35Z</time>
      </trkpt>
      <trkpt lat="44.70072" lon="5.92898">
        <ele>1243.7</ele>
        <time>2017-12-15T18:58:39Z</time>
      </trkpt>
      <trkpt lat="44.70084" lon="5.92881">
        <ele>1244</ele>
        <time>2017-12-15T18:58:59Z</time>
      </trkpt>
      <trkpt lat="44.70089" lon="5.92862">
        <ele>1245.2</ele>
        <time>2017-12-15T18:59:14Z</time>
      </trkpt>
      <trkpt lat="44.70092" lon="5.92837">
        <ele>1246.3</ele>
        <time>2017-12-15T18:59:29Z</time>
      </trkpt>
      <trkpt lat="44.70092" lon="5.92821">
        <ele>1247</ele>
        <time>2017-12-15T18:59:48Z</time>
      </trkpt>
      <trkpt lat="44.70089" lon="5.92804">
        <ele>1249</ele>
        <time>2017-12-15T19:00:04Z</time>
      </trkpt>
      <trkpt lat="44.7008" lon="5.9277">
        <ele>1251.1</ele>
        <time>2017-12-15T19:00:24Z</time>
      </trkpt>
      <trkpt lat="44.70076" lon="5.92733">
        <ele>1251.1</ele>
        <time>2017-12-15T19:00:29Z</time>
      </trkpt>
      <trkpt lat="44.70077" lon="5.92684">
        <ele>1252.9</ele>
        <time>2017-12-15T19:00:39Z</time>
      </trkpt>
      <trkpt lat="44.70079" lon="5.92646">
        <ele>1255.7</ele>
        <time>2017-12-15T19:00:45Z</time>
      </trkpt>
      <trkpt lat="44.70082" lon="5.9263">
        <ele>1256.1</ele>
        <time>2017-12-15T19:00:54Z</time>
      </trkpt>
      <trkpt lat="44.70088" lon="5.92617">
        <ele>1256.5</ele>
        <time>2017-12-15T19:01:10Z</time>
      </trkpt>
      <trkpt lat="44.70097" lon="5.92608">
        <ele>1258.3</ele>
        <time>2017-12-15T19:01:17Z</time>
      </trkpt>
      <trkpt lat="44.70108" lon="5.92604">
        <ele>1260.1</ele>
        <time>2017-12-15T19:01:34Z</time>
      </trkpt>
      <trkpt lat="44.70125" lon="5.92604">
        <ele>1260.3</ele>
        <time>2017-12-15T19:01:49Z</time>
      </trkpt>
      <trkpt lat="44.70138" lon="5.926">
        <ele>1261.6</ele>
        <time>2017-12-15T19:02:08Z</time>
      </trkpt>
      <trkpt lat="44.70148" lon="5.92591">
        <ele>1262</ele>
        <time>2017-12-15T19:02:11Z</time>
      </trkpt>
      <trkpt lat="44.70156" lon="5.92577">
        <ele>1263.4</ele>
        <time>2017-12-15T19:02:28Z</time>
      </trkpt>
      <trkpt lat="44.70163" lon="5.9256">
        <ele>1265</ele>
        <time>2017-12-15T19:02:43Z</time>
      </trkpt>
      <trkpt lat="44.70172" lon="5.92518">
        <ele>1269.6</ele>
        <time>2017-12-15T19:03:02Z</time>
      </trkpt>
      <trkpt lat="44.70177" lon="5.92463">
        <ele>1272.2</ele>
        <time>2017-12-15T19:03:16Z</time>
      </trkpt>
      <trkpt lat="44.70181" lon="5.92419">
        <ele>1273.2</ele>
        <time>2017-12-15T19:03:29Z</time>
      </trkpt>
      <trkpt lat="44.70184" lon="5.92399">
        <ele>1275.2</ele>
        <time>2017-12-15T19:03:34Z</time>
      </trkpt>
      <trkpt lat="44.70195" lon="5.92372">
        <ele>1277.4</ele>
        <time>2017-12-15T19:03:49Z</time>
      </trkpt>
      <trkpt lat="44.70204" lon="5.92356">
        <ele>1279.4</ele>
        <time>2017-12-15T19:04:02Z</time>
      </trkpt>
      <trkpt lat="44.70233" lon="5.92325">
        <ele>1282</ele>
        <time>2017-12-15T19:04:05Z</time>
      </trkpt>
      <trkpt lat="44.70242" lon="5.92309">
        <ele>1283.4</ele>
        <time>2017-12-15T19:04:20Z</time>
      </trkpt>
      <trkpt lat="44.70249" lon="5.92291">
        <ele>1284.2</ele>
        <time>2017-12-15T19:04:22Z</time>
      </trkpt>
      <trkpt lat="44.70254" lon="5.92262">
        <ele>1285.4</ele>
        <time>2017-12-15T19:04:29Z</time>
      </trkpt>
      <trkpt lat="44.70253" lon="5.92224">
        <ele>1287.4</ele>
        <time>2017-12-15T19:04:42Z</time>
      </trkpt>
      <trkpt lat="44.7025" lon="5.92207">
        <ele>1288.5</ele>
        <time>2017-12-15T19:04:56Z</time>
      </trkpt>
      <trkpt lat="44.70233" lon="5.92158">
        <ele>1292.3</ele>
        <time>2017-12-15T19:05:10Z</time>
      </trkpt>
      <trkpt lat="44.70231" lon="5.92142">
        <ele>1293</ele>
        <time>2017-12-15T19:05:22Z</time>
      </trkpt>
      <trkpt lat="44.70231" lon="5.92119">
        <ele>1294.8</ele>
        <time>2017-12-15T19:05:33Z</time>
      </trkpt>
      <trkpt lat="44.7024" lon="5.92076">
        <ele>1297</ele>
        <time>2017-12-15T19:05:36Z</time>
      </trkpt>
      <trkpt lat="44.70254" lon="5.92031">
        <ele>1299.7</ele>
        <time>2017-12-15T19:05:47Z</time>
      </trkpt>
      <trkpt lat="44.70262" lon="5.92009">
        <ele>1300.7</ele>
        <time>2017-12-15T19:06:03Z</time>
      </trkpt>
      <trkpt lat="44.70277" lon="5.9198">
        <ele>1302</ele>
        <time>2017-12-15T19:06:18Z</time>
      </trkpt>
      <trkpt lat="44.70299" lon="5.91944">
        <ele>1305</ele>
        <time>2017-12-15T19:06:36Z</time>
      </trkpt>
      <trkpt lat="44.70367" lon="5.91835">
        <ele>1313.4</ele>
        <time>2017-12-15T19:06:43Z</time>
      </trkpt>
      <trkpt lat="44.70374" lon="5.91809">
        <ele>1315.3</ele>
        <time>2017-12-15T19:07:00Z</time>
      </trkpt>
      <trkpt lat="44.70378" lon="5.91759">
        <ele>1316.4</ele>
        <time>2017-12-15T19:07:02Z</time>
      </trkpt>
      <trkpt lat="44.70374" lon="5.91719">
        <ele>1317.2</ele>
        <time>2017-12-15T19:07:13Z</time>
      </trkpt>
      <trkpt lat="44.70368" lon="5.9165">
        <ele>1320.1</ele>
        <time>2017-12-15T19:07:28Z</time>
      </trkpt>
      <trkpt lat="44.70368" lon="5.91625">
        <ele>1321.6</ele>
        <time>2017-12-15T19:07:42Z</time>
      </trkpt>
      <trkpt lat="44.70372" lon="5.91601">
        <ele>1323.4</ele>
        <time>2017-12-15T19:07:53Z</time>
      </trkpt>
      <trkpt lat="44.70378" lon="5.91579">
        <ele>1325.1</ele>
        <time>2017-12-15T19:07:56Z</time>
      </trkpt>
      <trkpt lat="44.7039" lon="5.91548">
        <ele>1328.1</ele>
        <time>2017-12-15T19:08:00Z</time>
      </trkpt>
      <trkpt lat="44.7042" lon="5.91487">
        <ele>1331.4</ele>
        <time>2017-12-15T19:08:20Z</time>
      </trkpt>
      <trkpt lat="44.70448" lon="5.91422">
        <ele>1333.1</ele>
        <time>2017-12-15T19:08:39Z</time>
      </trkpt>
      <trkpt lat="44.70463" lon="5.91375">
        <ele>1335</ele>
        <time>2017-12-15T19:08:51Z</time>
      </trkpt>
      <trkpt lat="44.70487" lon="5.91267">
        <ele>1342.9</ele>
        <time>2017-12-15T19:09:09Z</time>
      </trkpt>
      <trkpt lat="44.70496" lon="5.9124">
        <ele>1344.5</ele>
        <time>2017-12-15T19:09:22Z</time>
      </trkpt>
      <trkpt lat="44.70507" lon="5.91213">
        <ele>1346.5</ele>
        <time>2017-12-15T19:09:26Z</time>
      </trkpt>
      <trkpt lat="44.70562" lon="5.9111">
        <ele>1351.2</ele>
        <time>2017-12-15T19:09:39Z</time>
      </trkpt>
      <trkpt lat="44.7057" lon="5.91091">
        <ele>1352.5</ele>
        <time>2017-12-15T19:09:54Z</time>
      </trkpt>
      <trkpt lat="44.70577" lon="5.91071">
        <ele>1353.6</ele>
        <time>2017-12-15T19:10:08Z</time>
      </trkpt>
      <trkpt lat="44.7058" lon="5.9105">
        <ele>1354.6</ele>
        <time>2017-12-15T19:10:24Z</time>
      </trkpt>
      <trkpt lat="44.70582" lon="5.91028">
        <ele>1355.1</ele>
        <time>2017-12-15T19:10:33Z</time>
      </trkpt>
      <trkpt lat="44.70581" lon="5.90917">
        <ele>1358.2</ele>
        <time>2017-12-15T19:10:35Z</time>
      </trkpt>
      <trkpt lat="44.70579" lon="5.90878">
        <ele>1357.7</ele>
        <time>2017-12-15T19:10:48Z</time>
      </trkpt>
      <trkpt lat="44.70575" lon="5.90862">
        <ele>1357.2</ele>
        <time>2017-12-15T19:11:02Z</time>
      </trkpt>
      <trkpt lat="44.70567" lon="5.90841">
        <ele>1356.9</ele>
        <time>2017-12-15T19:11:11Z</time>
      </trkpt>
      <trkpt lat="44.7055" lon="5.90816">
        <ele>1357.7</ele>
        <time>2017-12-15T19:11:20Z</time>
      </trkpt>
      <trkpt lat="44.7054" lon="5.90808">
        <ele>1358.1</ele>
        <time>2017-12-15T19:11:26Z</time>
      </trkpt>
      <trkpt lat="44.7053" lon="5.90804">
        <ele>1359.2</ele>
        <time>2017-12-15T19:11:32Z</time>
      </trkpt>
      <trkpt lat="44.70519" lon="5.90804">
        <ele>1359.2</ele>
        <time>2017-12-15T19:11:38Z</time>
      </trkpt>
      <trkpt lat="44.70509" lon="5.90807">
        <ele>1359.5</ele>
        <time>2017-12-15T19:11:41Z</time>
      </trkpt>
      <trkpt lat="44.70477" lon="5.90819">
        <ele>1359.7</ele>
        <time>2017-12-15T19:11:45Z</time>
      </trkpt>
      <trkpt lat="44.70457" lon="5.90822">
        <ele>1358.8</ele>
        <time>2017-12-15T19:11:59Z</time>
      </trkpt>
      <trkpt lat="44.70432" lon="5.90821">
        <ele>1357</ele>
        <time>2017-12-15T19:12:07Z</time>
      </trkpt>
      <trkpt lat="44.70406" lon="5.90814">
        <ele>1355.6</ele>
        <time>2017-12-15T19:12:19Z</time>
      </trkpt>
      <trkpt lat="44.70389" lon="5.90805">
        <ele>1354.9</ele>
        <time>2017-12-15T19:12:32Z</time>
      </trkpt>
      <trkpt lat="44.70374" lon="5.90791">
        <ele>1354.5</ele>
        <time>2017-12-15T19:12:39Z</time>
      </trkpt>
      <trkpt lat="44.70367" lon="5.90779">
        <ele>1353.5</ele>
        <time>2017-12-15T19:12:43Z</time>
      </trkpt>
      <trkpt lat="44.70363" lon="5.90765">
        <ele>1352</ele>
        <time>2017-12-15T19:12:49Z</time>
      </trkpt>
      <trkpt lat="44.70362" lon="5.9075">
        <ele>1349.9</ele>
        <time>2017-12-15T19:13:09Z</time>
      </trkpt>
      <trkpt lat="44.70364" lon="5.90734">
        <ele>1351.1</ele>
        <time>2017-12-15T19:13:21Z</time>
      </trkpt>
      <trkpt lat="44.70369" lon="5.9072">
        <ele>1352.4</ele>
        <time>2017-12-15T19:13:41Z</time>
      </trkpt>
      <trkpt lat="44.70376" lon="5.90708">
        <ele>1354.6</ele>
        <time>2017-12-15T19:13:49Z</time>
      </trkpt>
      <trkpt lat="44.70386" lon="5.90699">
        <ele>1356.2</ele>
        <time>2017-12-15T19:14:08Z</time>
      </trkpt>
      <trkpt lat="44.70417" lon="5.9068">
        <ele>1359.6</ele>
        <time>2017-12-15T19:14:19Z</time>
      </trkpt>
      <trkpt lat="44.70445" lon="5.90667">
        <ele>1361.9</ele>
        <time>2017-12-15T19:14:23Z</time>
      </trkpt>
      <trkpt lat="44.70479" lon="5.90656">
        <ele>1362.4</ele>
        <time>2017-12-15T19:14:29Z</time>
      </trkpt>
      <trkpt lat="44.70551" lon="5.90642">
        <ele>1361.4</ele>
        <time>2017-12-15T19:14:46Z</time>
      </trkpt>
      <trkpt lat="44.70556" lon="5.90635">
        <ele>1363.1</ele>
        <time>2017-12-15T19:15:05Z</time>
      </trkpt>
      <trkpt lat="44.70554" lon="5.90624">
        <ele>1366.4</ele>
        <time>2017-12-15T19:15:21Z</time>
      </trkpt>
      <trkpt lat="44.7055" lon="5.9062">
        <ele>1367.8</ele>
        <time>2017-12-15T19:15:28Z</time>
      </trkpt>
      <trkpt lat="44.70544" lon="5.90618">
        <ele>1368.8</ele>
        <time>2017-12-15T19:15:44Z</time>
      </trkpt>
      <trkpt lat="44.70499" lon="5.90618">
        <ele>1372.1</ele>
        <time>2017-12-15T19:16:02Z</time>
      </trkpt>
      <trkpt lat="44.70472" lon="5.90615">
        <ele>1374</ele>
        <time>2017-12-15T19:16:15Z</time>
      </trkpt>
      <trkpt lat="44.70438" lon="5.90607">
        <ele>1375.9</ele>
        <time>2017-12-15T19:16:25Z</time>
      </trkpt>
      <trkpt lat="44.70396" lon="5.90593">
        <ele>1379.4</ele>
        <time>2017-12-15T19:16:30Z</time>
      </trkpt>
      <trkpt lat="44.70379" lon="5.90589">
        <ele>1380.6</ele>
        <time>2017-12-15T19:16:34Z</time>
      </trkpt>
      <trkpt lat="44.70338" lon="5.90587">
        <ele>1382</ele>
        <time>2017-12-15T19:16:41Z</time>
      </trkpt>
      <trkpt lat="44.70309" lon="5.90584">
        <ele>1382.9</ele>
        <time>2017-12-15T19:16:43Z</time>
      </trkpt>
      <trkpt lat="44.70296" lon="5.90577">
        <ele>1382.5</ele>
        <time>2017-12-15T19:16:50Z</time>
      </trkpt>
      <trkpt lat="44.70286" lon="5.90565">
        <ele>1382.8</ele>
        <time>2017-12-15T19:17:01Z</time>
      </trkpt>
      <trkpt lat="44.7028" lon="5.9055">
        <ele>1383.6</ele>
        <time>2017-12-15T19:17:20Z</time>
      </trkpt>
      <trkpt lat="44.70278" lon="5.90531">
        <ele>1383.9</ele>
        <time>2017-12-15T19:17:28Z</time>
      </trkpt>
      <trkpt lat="44.70279" lon="5.90511">
        <ele>1384.4</ele>
        <time>2017-12-15T19:17:42Z</time>
      </trkpt>
      <trkpt lat="44.70296" lon="5.90421">
        <ele>1391.2</ele>
        <time>2017-12-15T19:17:50Z</time>
      </trkpt>
      <trkpt lat="44.703" lon="5.90386">
        <ele>1392.8</ele>
        <time>2017-12-15T19:17:57Z</time>
      </trkpt>
      <trkpt lat="44.70299" lon="5.90362">
        <ele>1394.7</ele>
        <time>2017-12-15T19:18:13Z</time>
      </trkpt>
      <trkpt lat="44.70295" lon="5.9034">
        <ele>1396.1</ele>
        <time>2017-12-15T19:18:33Z</time>
      </trkpt>
      <trkpt lat="44.70289" lon="5.90319">
        <ele>1397.3</ele>
        <time>2017-12-15T19:18:46Z</time>
      </trkpt>
      <trkpt lat="44.70241" lon="5.90183">
        <ele>1404.5</ele>
        <time>2017-12-15T19:18:48Z</time>
      </trkpt>
      <trkpt lat="44.702" lon="5.90072">
        <ele>1409.2</ele>
        <time>2017-12-15T19:18:54Z</time>
      </trkpt>
      <trkpt lat="44.70193" lon="5.9004">
        <ele>1410.6</ele>
        <time>2017-12-15T19:19:07Z</time>
      </trkpt>
      <trkpt lat="44.70189" lon="5.89995">
        <ele>1412.4</ele>
        <time>2017-12-15T19:19:14Z</time>
      </trkpt>
      <trkpt lat="44.70187" lon="5.89961">
        <ele>1414.1</ele>
        <time>2017-12-15T19:19:20Z</time>
      </trkpt>
      <trkpt lat="44.70186" lon="5.89901">
        <ele>1416.9</ele>
        <time>2017-12-15T19:19:24Z</time>
      </trkpt>
      <trkpt lat="44.7018" lon="5.89859">
        <ele>1417.5</ele>
        <time>2017-12-15T19:19:32Z</time>
      </trkpt>
      <trkpt lat="44.70176" lon="5.89844">
        <ele>1417.3</ele>
        <time>2017-12-15T19:19:47Z</time>
      </trkpt>
      <trkpt lat="44.70158" lon="5.89803">
        <ele>1416.8</ele>
        <time>2017-12-15T19:19:55Z</time>
      </trkpt>
      <trkpt lat="44.70096" lon="5.89691">
        <ele>1416.6</ele>
        <time>2017-12-15T19:20:04Z</time>
      </trkpt>
      <trkpt lat="44.70082" lon="5.89669">
        <ele>1416.9</ele>
        <time>2017-12-15T19:20:23Z</time>
      </trkpt>
      <trkpt lat="44.70069" lon="5.89652">
        <ele>1417.5</ele>
        <time>2017-12-15T19:20:26Z</time>
      </trkpt>
      <trkpt lat="44.70032" lon="5.89613">
        <ele>1419.7</ele>
        <time>2017-12-15T19:20:37Z</time>
      </trkpt>
      <trkpt lat="44.69971" lon="5.89553">
        <ele>1423.1</ele>
        <time>2017-12-15T19:20:41Z</time>
      </trkpt>
      <trkpt lat="44.69946" lon="5.89519">
        <ele>1424.7</ele>
        <time>2017-12-15T19:21:01Z</time>
      </trkpt>
      <trkpt lat="44.69872" lon="5.89359">
        <ele>1428.9</ele>
        <time>2017-12-15T19:21:19Z</time>
      </trkpt>
      <trkpt lat="44.69866" lon="5.89328">
        <ele>1429.3</ele>
        <time>2017-12-15T19:21:29Z</time>
      </trkpt>
      <trkpt lat="44.69859" lon="5.89267">
        <ele>1428.6</ele>
        <time>2017-12-15T19:21:38Z</time>
      </trkpt>
      <trkpt lat="44.69852" lon="5.8924">
        <ele>1427.2</ele>
        <time>2017-12-15T19:21:49Z</time>
      </trkpt>
      <trkpt lat="44.69838" lon="5.89202">
        <ele>1423.5</ele>
        <time>2017-12-15T19:21:53Z</time>
      </trkpt>
      <trkpt lat="44.69815" lon="5.8916">
        <ele>1420.4</ele>
        <time>2017-12-15T19:22:11Z</time>
      </trkpt>
      <trkpt lat="44.69766" lon="5.89088">
        <ele>1416.8</ele>
        <time>2017-12-15T19:22:26Z</time>
      </trkpt>
      <trkpt lat="44.69741" lon="5.89059">
        <ele>1414.8</ele>
        <time>2017-12-15T19:22:37Z</time>
      </trkpt>
      <trkpt lat="44.69717" lon="5.89042">
        <ele>1411.5</ele>
        <time>2017-12-15T19:22:39Z</time>
      </trkpt>
      <trkpt lat="44.69693" lon="5.8903">
        <ele>1407.6</ele>
        <time>2017-12-15T19:22:57Z</time>
      </trkpt>
      <trkpt lat="44.6964" lon="5.89019">
        <ele>1403.5</ele>
        <time>2017-12-15T19:23:05Z</time>
      </trkpt>
      <trkpt lat="44.69605" lon="5.89015">
        <ele>1402.3</ele>
        <time>2017-12-15T19:23:23Z</time>
      </trkpt>
      <trkpt lat="44.69555" lon="5.89015">
        <ele>1402.3</ele>
        <time>2017-12-15T19:23:32Z</time>
      </trkpt>
      <trkpt lat="44.69545" lon="5.89013">
        <ele>1401.9</ele>
        <time>2017-12-15T19:23:35Z</time>
      </trkpt>
      <trkpt lat="44.69524" lon="5.89005">
        <ele>1400.5</ele>
        <time>2017-12-15T19:23:55Z</time>
      </trkpt>
      <trkpt lat="44.69478" lon="5.88949">
        <ele>1393.4</ele>
        <time>2017-12-15T19:24:04Z</time>
      </trkpt>
      <trkpt lat="44.69458" lon="5.88937">
        <ele>1392.3</ele>
        <time>2017-12-15T19:24:21Z</time>
      </trkpt>
      <trkpt lat="44.69399" lon="5.88908">
        <ele>1388</ele>
        <time>2017-12-15T19:24:23Z</time>
      </trkpt>
      <trkpt lat="44.69375" lon="5.8889">
        <ele>1386.2</ele>
        <time>2017-12-15T19:24:28Z</time>
      </trkpt>
      <trkpt lat="44.69359" lon="5.8887">
        <ele>1384.6</ele>
        <time>2017-12-15T19:24:33Z</time>
      </trkpt>
      <trkpt lat="44.6934" lon="5.88821">
        <ele>1379.5</ele>
        <time>2017-12-15T19:24:48Z</time>
      </trkpt>
      <trkpt lat="44.69337" lon="5.88814">
        <ele>1378.4</ele>
        <time>2017-12-15T19:24:58Z</time>
      </trkpt>
      <trkpt lat="44.69328" lon="5.88803">
        <ele>1376.7</ele>
        <time>2017-12-15T19:25:13Z</time>
      </trkpt>
      <trkpt lat="44.69317" lon="5.88795">
        <ele>1375.3</ele>
        <time>2017-12-15T19:25:26Z</time>
      </trkpt>
      <trkpt lat="44.69307" lon="5.88792">
        <ele>1375</ele>
        <time>2017-12-15T19:25:32Z</time>
      </trkpt>
      <trkpt lat="44.69293" lon="5.88793">
        <ele>1374.9</ele>
        <time>2017-12-15T19:25:49Z</time>
      </trkpt>
      <trkpt lat="44.69273" lon="5.88801">
        <ele>1376.4</ele>
        <time>2017-12-15T19:25:52Z</time>
      </trkpt>
      <trkpt lat="44.69266" lon="5.88805">
        <ele>1377</ele>
        <time>2017-12-15T19:25:58Z</time>
      </trkpt>
      <trkpt lat="44.69257" lon="5.88805">
        <ele>1376.4</ele>
        <time>2017-12-15T19:26:09Z</time>
      </trkpt>
      <trkpt lat="44.69243" lon="5.88803">
        <ele>1375.7</ele>
        <time>2017-12-15T19:26:22Z</time>
      </trkpt>
      <trkpt lat="44.69232" lon="5.88793">
        <ele>1374.9</ele>
        <time>2017-12-15T19:26:31Z</time>
      </trkpt>
      <trkpt lat="44.69219" lon="5.88768">
        <ele>1374.9</ele>
        <time>2017-12-15T19:26:36Z</time>
      </trkpt>
      <trkpt lat="44.69216" lon="5.88739">
        <ele>1372.3</ele>
        <time>2017-12-15T19:26:41Z</time>
      </trkpt>
      <trkpt lat="44.69213" lon="5.88698">
        <ele>1367.5</ele>
        <time>2017-12-15T19:26:47Z</time>
      </trkpt>
      <trkpt lat="44.69208" lon="5.88678">
        <ele>1366.5</ele>
        <time>2017-12-15T19:26:59Z</time>
      </trkpt>
      <trkpt lat="44.69199" lon="5.88661">
        <ele>1366.4</ele>
        <time>2017-12-15T19:27:02Z</time>
      </trkpt>
      <trkpt lat="44.69192" lon="5.88651">
        <ele>1366.2</ele>
        <time>2017-12-15T19:27:16Z</time>
      </trkpt>
      <trkpt lat="44.6918" lon="5.8864">
        <ele>1365.9</ele>
        <time>2017-12-15T19:27:26Z</time>
      </trkpt>
      <trkpt lat="44.69087" lon="5.88582">
        <ele>1362.4</ele>
        <time>2017-12-15T19:27:38Z</time>
      </trkpt>
      <trkpt lat="44.69044" lon="5.88556">
        <ele>1359.4</ele>
        <time>2017-12-15T19:27:48Z</time>
      </trkpt>
      <trkpt lat="44.6903" lon="5.88542">
        <ele>1358.3</ele>
        <time>2017-12-15T19:27:57Z</time>
      </trkpt>
      <trkpt lat="44.6901" lon="5.88515">
        <ele>1357.7</ele>
        <time>2017-12-15T19:28:15Z</time>
      </trkpt>
      <trkpt lat="44.69" lon="5.8849">
        <ele>1357.3</ele>
        <time>2017-12-15T19:28:30Z</time>
      </trkpt>
      <trkpt lat="44.68972" lon="5.88385">
        <ele>1353.6</ele>
        <time>2017-12-15T19:28:39Z</time>
      </trkpt>
      <trkpt lat="44.68947" lon="5.88326">
        <ele>1351.5</ele>
        <time>2017-12-15T19:28:59Z</time>
      </trkpt>
      <trkpt lat="44.68912" lon="5.8826">
        <ele>1349.1</ele>
        <time>2017-12-15T19:29:01Z</time>
      </trkpt>
      <trkpt lat="44.68844" lon="5.88155">
        <ele>1344.8</ele>
        <time>2017-12-15T19:29:15Z</time>
      </trkpt>
      <trkpt lat="44.68813" lon="5.88115">
        <ele>1344</ele>
        <time>2017-12-15T19:29:23Z</time>
      </trkpt>
      <trkpt lat="44.68793" lon="5.88101">
        <ele>1342.8</ele>
        <time>2017-12-15T19:29:29Z</time>
      </trkpt>
      <trkpt lat="44.68755" lon="5.88089">
        <ele>1341</ele>
        <time>2017-12-15T19:29:34Z</time>
      </trkpt>
      <trkpt lat="44.68701" lon="5.88077">
        <ele>1338</ele>
        <time>2017-12-15T19:29:51Z</time>
      </trkpt>
      <trkpt lat="44.68676" lon="5.88068">
        <ele>1338.1</ele>
        <time>2017-12-15T19:30:00Z</time>
      </trkpt>
      <trkpt lat="44.68655" lon="5.88054">
        <ele>1337.6</ele>
        <time>2017-12-15T19:30:20Z</time>
      </trkpt>
      <trkpt lat="44.68622" lon="5.88019">
        <ele>1335.6</ele>
        <time>2017-12-15T19:30:22Z</time>
      </trkpt>
      <trkpt lat="44.68559" lon="5.87945">
        <ele>1331.6</ele>
        <time>2017-12-15T19:30:26Z</time>
      </trkpt>
      <trkpt lat="44.68532" lon="5.87908">
        <ele>1329.5</ele>
        <time>2017-12-15T19:30:43Z</time>
      </trkpt>
      <trkpt lat="44.68512" lon="5.8787">
        <ele>1327.4</ele>
        <time>2017-12-15T19:30:58Z</time>
      </trkpt>
      <trkpt lat="44.68508" lon="5.87861">
        <ele>1326.8</ele>
        <time>2017-12-15T19:31:04Z</time>
      </trkpt>
      <trkpt lat="44.68503" lon="5.87833">
        <ele>1325.7</ele>
        <time>2017-12-15T19:31:20Z</time>
      </trkpt>
      <trkpt lat="44.68492" lon="5.87792">
        <ele>1323.7</ele>
        <time>2017-12-15T19:31:25Z</time>
      </trkpt>
      <trkpt lat="44.68473" lon="5.87747">
        <ele>1321.6</ele>
        <time>2017-12-15T19:31:32Z</time>
      </trkpt>
      <trkpt lat="44.68445" lon="5.877">
        <ele>1318.7</ele>
        <time>2017-12-15T19:31:42Z</time>
      </trkpt>
      <trkpt lat="44.68422" lon="5.87667">
        <ele>1317.3</ele>
        <time>2017-12-15T19:31:49Z</time>
      </trkpt>
      <trkpt lat="44.68404" lon="5.87646">
        <ele>1316.7</ele>
        <time>2017-12-15T19:31:55Z</time>
      </trkpt>
      <trkpt lat="44.68363" lon="5.87614">
        <ele>1317.2</ele>
        <time>2017-12-15T19:32:06Z</time>
      </trkpt>
      <trkpt lat="44.68292" lon="5.87572">
        <ele>1317.1</ele>
        <time>2017-12-15T19:32:18Z</time>
      </trkpt>
      <trkpt lat="44.68222" lon="5.87518">
        <ele>1319</ele>
        <time>2017-12-15T19:32:23Z</time>
      </trkpt>
      <trkpt lat="44.68174" lon="5.87467">
        <ele>1316.8</ele>
        <time>2017-12-15T19:32:32Z</time>
      </trkpt>
      <trkpt lat="44.68018" lon="5.87286">
        <ele>1324.2</ele>
        <time>2017-12-15T19:32:52Z</time>
      </trkpt>
      <trkpt lat="44.6798" lon="5.87241">
        <ele>1326.2</ele>
        <time>2017-12-15T19:33:08Z</time>
      </trkpt>
      <trkpt lat="44.67965" lon="5.87218">
        <ele>1326.9</ele>
        <time>2017-12-15T19:33:26Z</time>
      </trkpt>
      <trkpt lat="44.67953" lon="5.87201">
        <ele>1326.9</ele>
        <time>2017-12-15T19:33:41Z</time>
      </trkpt>
      <trkpt lat="44.67927" lon="5.87161">
        <ele>1327.5</ele>
        <time>2017-12-15T19:33:53Z</time>
      </trkpt>
      <trkpt lat="44.67925" lon="5.87149">
        <ele>1326.8</ele>
        <time>2017-12-15T19:34:12Z</time>
      </trkpt>
      <trkpt lat="44.6791" lon="5.87115">
        <ele>1326.3</ele>
        <time>2017-12-15T19:34:29Z</time>
      </trkpt>
      <trkpt lat="44.67877" lon="5.87065">
        <ele>1326.5</ele>
        <time>2017-12-15T19:34:33Z</time>
      </trkpt>
      <trkpt lat="44.67882" lon="5.87054">
        <ele>1325.4</ele>
        <time>2017-12-15T19:34:45Z</time>
      </trkpt>
      <trkpt lat="44.67901" lon="5.87063">
        <ele>1324.4</ele>
        <time>2017-12-15T19:34:52Z</time>
      </trkpt>
      <trkpt lat="44.67918" lon="5.87072">
        <ele>1323.4</ele>
        <time>2017-12-15T19:34:54Z</time>
      </trkpt>
      <trkpt lat="44.67965" lon="5.87105">
        <ele>1319.4</ele>
        <time>2017-12-15T19:35:07Z</time>
      </trkpt>
      <trkpt lat="44.68011" lon="5.87143">
        <ele>1315.3</ele>
        <time>2017-12-15T19:35:22Z</time>
      </trkpt>
      <trkpt lat="44.68135" lon="5.87242">
        <ele>1305.9</ele>
        <time>2017-12-15T19:35:35Z</time>
      </trkpt>
      <trkpt lat="44.68177" lon="5.8727">
        <ele>1303.3</ele>
        <time>2017-12-15T19:35:54Z</time>
      </trkpt>
      <trkpt lat="44.68197" lon="5.87278">
        <ele>1301.7</ele>
        <time>2017-12-15T19:36:04Z</time>
      </trkpt>
      <trkpt lat="44.68211" lon="5.87287">
        <ele>1300.9</ele>
        <time>2017-12-15T19:36:17Z</time>
      </trkpt>
      <trkpt lat="44.68236" lon="5.87316">
        <ele>1300.6</ele>
        <time>2017-12-15T19:36:29Z</time>
      </trkpt>
      <trkpt lat="44.68259" lon="5.87353">
        <ele>1300.5</ele>
        <time>2017-12-15T19:36:33Z</time>
      </trkpt>
      <trkpt lat="44.68274" lon="5.87374">
        <ele>1300.3</ele>
        <time>2017-12-15T19:36:41Z</time>
      </trkpt>
      <trkpt lat="44.68292" lon="5.87383">
        <ele>1299.6</ele>
        <time>2017-12-15T19:36:54Z</time>
      </trkpt>
      <trkpt lat="44.68322" lon="5.87391">
        <ele>1297.3</ele>
        <time>2017-12-15T19:37:01Z</time>
      </trkpt>
      <trkpt lat="44.68339" lon="5.87399">
        <ele>1296.2</ele>
        <time>2017-12-15T19:37:10Z</time>
      </trkpt>
      <trkpt lat="44.68369" lon="5.87423">
        <ele>1294.8</ele>
        <time>2017-12-15T19:37:16Z</time>
      </trkpt>
      <trkpt lat="44.684" lon="5.87442">
        <ele>1293.1</ele>
        <time>2017-12-15T19:37:23Z</time>
      </trkpt>
      <trkpt lat="44.68463" lon="5.87472">
        <ele>1290.7</ele>
        <time>2017-12-15T19:37:36Z</time>
      </trkpt>
      <trkpt lat="44.68563" lon="5.87524">
        <ele>1286.4</ele>
        <time>2017-12-15T19:37:38Z</time>
      </trkpt>
      <trkpt lat="44.68586" lon="5.87544">
        <ele>1285.4</ele>
        <time>2017-12-15T19:37:40Z</time>
      </trkpt>
      <trkpt lat="44.68607" lon="5.87575">
        <ele>1285.7</ele>
        <time>2017-12-15T19:37:47Z</time>
      </trkpt>
      <trkpt lat="44.68652" lon="5.87605">
        <ele>1284.8</ele>
        <time>2017-12-15T19:37:56Z</time>
      </trkpt>
      <trkpt lat="44.68707" lon="5.87634">
        <ele>1283.6</ele>
        <time>2017-12-15T19:38:08Z</time>
      </trkpt>
      <trkpt lat="44.68721" lon="5.87644">
        <ele>1283.5</ele>
        <time>2017-12-15T19:38:27Z</time>
      </trkpt>
      <trkpt lat="44.68752" lon="5.87672">
        <ele>1282.4</ele>
        <time>2017-12-15T19:38:42Z</time>
      </trkpt>
      <trkpt lat="44.68801" lon="5.87717">
        <ele>1282.1</ele>
        <time>2017-12-15T19:38:55Z</time>
      </trkpt>
      <trkpt lat="44.68829" lon="5.87734">
        <ele>1280.4</ele>
        <time>2017-12-15T19:39:04Z</time>
      </trkpt>
      <trkpt lat="44.68859" lon="5.87745">
        <ele>1278.6</ele>
        <time>2017-12-15T19:39:12Z</time>
      </trkpt>
      <trkpt lat="44.6889" lon="5.87752">
        <ele>1276.1</ele>
        <time>2017-12-15T19:39:18Z</time>
      </trkpt>
      <trkpt lat="44.68921" lon="5.87767">
        <ele>1274.8</ele>
        <time>2017-12-15T19:39:33Z</time>
      </trkpt>
      <trkpt lat="44.68948" lon="5.87785">
        <ele>1273.2</ele>
        <time>2017-12-15T19:39:50Z</time>
      </trkpt>
      <trkpt lat="44.69053" lon="5.8787">
        <ele>1266.7</ele>
        <time>2017-12-15T19:39:58Z</time>
      </trkpt>
      <trkpt lat="44.69145" lon="5.87941">
        <ele>1262.4</ele>
        <time>2017-12-15T19:40:05Z</time>
      </trkpt>
      <trkpt lat="44.69177" lon="5.87974">
        <ele>1261.4</ele>
        <time>2017-12-15T19:40:18Z</time>
      </trkpt>
      <trkpt lat="44.69237" lon="5.8804">
        <ele>1262</ele>
        <time>2017-12-15T19:40:26Z</time>
      </trkpt>
      <trkpt lat="44.69261" lon="5.8807">
        <ele>1262.6</ele>
        <time>2017-12-15T19:40:30Z</time>
      </trkpt>
      <trkpt lat="44.69281" lon="5.8809">
        <ele>1262.6</ele>
        <time>2017-12-15T19:40:40Z</time>
      </trkpt>
      <trkpt lat="44.69308" lon="5.8811">
        <ele>1262.7</ele>
        <time>2017-12-15T19:40:50Z</time>
      </trkpt>
      <trkpt lat="44.69374" lon="5.88163">
        <ele>1261.3</ele>
        <time>2017-12-15T19:41:07Z</time>
      </trkpt>
      <trkpt lat="44.69391" lon="5.88173">
        <ele>1260.5</ele>
        <time>2017-12-15T19:41:20Z</time>
      </trkpt>
      <trkpt lat="44.69402" lon="5.88176">
        <ele>1259.9</ele>
        <time>2017-12-15T19:41:33Z</time>
      </trkpt>
      <trkpt lat="44.69416" lon="5.88189">
        <ele>1259.7</ele>
        <time>2017-12-15T19:41:45Z</time>
      </trkpt>
      <trkpt lat="44.69429" lon="5.88205">
        <ele>1260.6</ele>
        <time>2017-12-15T19:41:57Z</time>
      </trkpt>
      <trkpt lat="44.69453" lon="5.88218">
        <ele>1260.5</ele>
        <time>2017-12-15T19:42:15Z</time>
      </trkpt>
      <trkpt lat="44.6948" lon="5.88226">
        <ele>1258.8</ele>
        <time>2017-12-15T19:42:26Z</time>
      </trkpt>
      <trkpt lat="44.69494" lon="5.88229">
        <ele>1257.7</ele>
        <time>2017-12-15T19:42:32Z</time>
      </trkpt>
      <trkpt lat="44.69513" lon="5.88229">
        <ele>1255.6</ele>
        <time>2017-12-15T19:42:44Z</time>
      </trkpt>
      <trkpt lat="44.69537" lon="5.88233">
        <ele>1253.6</ele>
        <time>2017-12-15T19:43:01Z</time>
      </trkpt>
      <trkpt lat="44.69548" lon="5.88237">
        <ele>1252.9</ele>
        <time>2017-12-15T19:43:04Z</time>
      </trkpt>
      <trkpt lat="44.69556" lon="5.88235">
        <ele>1251.8</ele>
        <time>2017-12-15T19:43:08Z</time>
      </trkpt>
      <trkpt lat="44.69564" lon="5.88224">
        <ele>1249.3</ele>
        <time>2017-12-15T19:43:20Z</time>
      </trkpt>
      <trkpt lat="44.69553" lon="5.88214">
        <ele>1249.1</ele>
        <time>2017-12-15T19:43:37Z</time>
      </trkpt>
      <trkpt lat="44.69545" lon="5.88212">
        <ele>1249.8</ele>
        <time>2017-12-15T19:43:41Z</time>
      </trkpt>
      <trkpt lat="44.69535" lon="5.88206">
        <ele>1250.3</ele>
        <time>2017-12-15T19:43:48Z</time>
      </trkpt>
      <trkpt lat="44.69524" lon="5.88192">
        <ele>1250.1</ele>
        <time>2017-12-15T19:43:50Z</time>
      </trkpt>
      <trkpt lat="44.69496" lon="5.88132">
        <ele>1248.1</ele>
        <time>2017-12-15T19:44:02Z</time>
      </trkpt>
      <trkpt lat="44.69491" lon="5.88115">
        <ele>1247.8</ele>
        <time>2017-12-15T19:44:14Z</time>
      </trkpt>
      <trkpt lat="44.6949" lon="5.88104">
        <ele>1247.3</ele>
        <time>2017-12-15T19:44:31Z</time>
      </trkpt>
      <trkpt lat="44.69493" lon="5.88092">
        <ele>1246.3</ele>
        <time>2017-12-15T19:44:33Z</time>
      </trkpt>
      <trkpt lat="44.69551" lon="5.88094">
        <ele>1242.1</ele>
        <time>2017-12-15T19:44:35Z</time>
      </trkpt>
      <trkpt lat="44.6959" lon="5.88093">
        <ele>1242.8</ele>
        <time>2017-12-15T19:44:48Z</time>
      </trkpt>
      <trkpt lat="44.69663" lon="5.88094">
        <ele>1244.2</ele>
        <time>2017-12-15T19:44:52Z</time>
      </trkpt>
      <trkpt lat="44.69722" lon="5.88106">
        <ele>1241.6</ele>
        <time>2017-12-15T19:44:54Z</time>
      </trkpt>
      <trkpt lat="44.69774" lon="5.88123">
        <ele>1241.9</ele>
        <time>2017-12-15T19:44:58Z</time>
      </trkpt>
      <trkpt lat="44.69805" lon="5.88142">
        <ele>1241.6</ele>
        <time>2017-12-15T19:45:06Z</time>
      </trkpt>
      <trkpt lat="44.6992" lon="5.88227">
        <ele>1238.6</ele>
        <time>2017-12-15T19:45:24Z</time>
      </trkpt>
      <trkpt lat="44.69975" lon="5.88259">
        <ele>1238</ele>
        <time>2017-12-15T19:45:35Z</time>
      </trkpt>
      <trkpt lat="44.70005" lon="5.88278">
        <ele>1237.9</ele>
        <time>2017-12-15T19:45:39Z</time>
      </trkpt>
      <trkpt lat="44.70038" lon="5.88304">
        <ele>1237.4</ele>
        <time>2017-12-15T19:45:48Z</time>
      </trkpt>
      <trkpt lat="44.70065" lon="5.88318">
        <ele>1237.1</ele>
        <time>2017-12-15T19:45:55Z</time>
      </trkpt>
      <trkpt lat="44.7012" lon="5.88339">
        <ele>1237.3</ele>
        <time>2017-12-15T19:46:15Z</time>
      </trkpt>
      <trkpt lat="44.70168" lon="5.88351">
        <ele>1236.5</ele>
        <time>2017-12-15T19:46:18Z</time>
      </trkpt>
      <trkpt lat="44.70225" lon="5.88366">
        <ele>1234.2</ele>
        <time>2017-12-15T19:46:34Z</time>
      </trkpt>
      <trkpt lat="44.70355" lon="5.88431">
        <ele>1230.7</ele>
        <time>2017-12-15T19:46:36Z</time>
      </trkpt>
      <trkpt lat="44.7038" lon="5.88442">
        <ele>1230.7</ele>
        <time>2017-12-15T19:46:52Z</time>
      </trkpt>
      <trkpt lat="44.70392" lon="5.88451">
        <ele>1230.2</ele>
        <time>2017-12-15T19:47:04Z</time>
      </trkpt>
      <trkpt lat="44.70418" lon="5.88477">
        <ele>1228.5</ele>
        <time>2017-12-15T19:47:18Z</time>
      </trkpt>
      <trkpt lat="44.70439" lon="5.88502">
        <ele>1228.8</ele>
        <time>2017-12-15T19:47:24Z</time>
      </trkpt>
      <trkpt lat="44.70454" lon="5.88531">
        <ele>1229.4</ele>
        <time>2017-12-15T19:47:38Z</time>
      </trkpt>
      <trkpt lat="44.70462" lon="5.88564">
        <ele>1227.8</ele>
        <time>2017-12-15T19:47:42Z</time>
      </trkpt>
      <trkpt lat="44.70469" lon="5.88584">
        <ele>1226.2</ele>
        <time>2017-12-15T19:48:02Z</time>
      </trkpt>
      <trkpt lat="44.70478" lon="5.88598">
        <ele>1226.3</ele>
        <time>2017-12-15T19:48:12Z</time>
      </trkpt>
      <trkpt lat="44.70494" lon="5.88621">
        <ele>1226.8</ele>
        <time>2017-12-15T19:48:28Z</time>
      </trkpt>
      <trkpt lat="44.70507" lon="5.88653">
        <ele>1224.6</ele>
        <time>2017-12-15T19:48:35Z</time>
      </trkpt>
      <trkpt lat="44.7052" lon="5.88678">
        <ele>1223.7</ele>
        <time>2017-12-15T19:48:52Z</time>
      </trkpt>
      <trkpt lat="44.70541" lon="5.88698">
        <ele>1225.9</ele>
        <time>2017-12-15T19:49:05Z</time>
      </trkpt>
      <trkpt lat="44.70554" lon="5.88714">
        <ele>1227.5</ele>
        <time>2017-12-15T19:49:25Z</time>
      </trkpt>
      <trkpt lat="44.7056" lon="5.88727">
        <ele>1227.6</ele>
        <time>2017-12-15T19:49:37Z</time>
      </trkpt>
      <trkpt lat="44.70562" lon="5.8874">
        <ele>1226.4</ele>
        <time>2017-12-15T19:49:49Z</time>
      </trkpt>
      <trkpt lat="44.70565" lon="5.88753">
        <ele>1225.5</ele>
        <time>2017-12-15T19:50:06Z</time>
      </trkpt>
      <trkpt lat="44.70571" lon="5.88764">
        <ele>1225.5</ele>
        <time>2017-12-15T19:50:15Z</time>
      </trkpt>
      <trkpt lat="44.70578" lon="5.88774">
        <ele>1226</ele>
        <time>2017-12-15T19:50:17Z</time>
      </trkpt>
      <trkpt lat="44.70595" lon="5.88782">
        <ele>1227.9</ele>
        <time>2017-12-15T19:50:35Z</time>
      </trkpt>
      <trkpt lat="44.70615" lon="5.88796">
        <ele>1229.2</ele>
        <time>2017-12-15T19:50:44Z</time>
      </trkpt>
      <trkpt lat="44.70626" lon="5.88809">
        <ele>1230</ele>
        <time>2017-12-15T19:50:59Z</time>
      </trkpt>
      <trkpt lat="44.70631" lon="5.88822">
        <ele>1228.7</ele>
        <time>2017-12-15T19:51:12Z</time>
      </trkpt>
      <trkpt lat="44.70637" lon="5.88851">
        <ele>1223.9</ele>
        <time>2017-12-15T19:51:29Z</time>
      </trkpt>
      <trkpt lat="44.70644" lon="5.88886">
        <ele>1218.2</ele>
        <time>2017-12-15T19:51:38Z</time>
      </trkpt>
      <trkpt lat="44.70651" lon="5.88903">
        <ele>1216.3</ele>
        <time>2017-12-15T19:51:58Z</time>
      </trkpt>
      <trkpt lat="44.70671" lon="5.88924">
        <ele>1215.6</ele>
        <time>2017-12-15T19:52:14Z</time>
      </trkpt>
      <trkpt lat="44.70686" lon="5.88943">
        <ele>1214.6</ele>
        <time>2017-12-15T19:52:25Z</time>
      </trkpt>
      <trkpt lat="44.70697" lon="5.88958">
        <ele>1213.1</ele>
        <time>2017-12-15T19:52:43Z</time>
      </trkpt>
      <trkpt lat="44.70709" lon="5.88966">
        <ele>1213.4</ele>
        <time>2017-12-15T19:52:46Z</time>
      </trkpt>
      <trkpt lat="44.70737" lon="5.88973">
        <ele>1217.5</ele>
        <time>2017-12-15T19:52:54Z</time>
      </trkpt>
      <trkpt lat="44.70757" lon="5.88981">
        <ele>1219.8</ele>
        <time>2017-12-15T19:53:13Z</time>
      </trkpt>
      <trkpt lat="44.70786" lon="5.89003">
        <ele>1217.8</ele>
        <time>2017-12-15T19:53:20Z</time>
      </trkpt>
      <trkpt lat="44.7082" lon="5.89043">
        <ele>1213.8</ele>
        <time>2017-12-15T19:53:37Z</time>
      </trkpt>
      <trkpt lat="44.70836" lon="5.8907">
        <ele>1210.5</ele>
        <time>2017-12-15T19:53:49Z</time>
      </trkpt>
      <trkpt lat="44.70853" lon="5.8909">
        <ele>1208.4</ele>
        <time>2017-12-15T19:54:09Z</time>
      </trkpt>
      <trkpt lat="44.7087" lon="5.89101">
        <ele>1207.1</ele>
        <time>2017-12-15T19:54:12Z</time>
      </trkpt>
      <trkpt lat="44.70919" lon="5.89115">
        <ele>1207.1</ele>
        <time>2017-12-15T19:54:19Z</time>
      </trkpt>
      <trkpt lat="44.70972" lon="5.89128">
        <ele>1203.5</ele>
        <time>2017-12-15T19:54:24Z</time>
      </trkpt>
      <trkpt lat="44.71003" lon="5.89131">
        <ele>1201.1</ele>
        <time>2017-12-15T19:54:33Z</time>
      </trkpt>
      <trkpt lat="44.71027" lon="5.89133">
        <ele>1199</ele>
        <time>2017-12-15T19:54:40Z</time>
      </trkpt>
      <trkpt lat="44.71052" lon="5.89142">
        <ele>1195.2</ele>
        <time>2017-12-15T19:54:47Z</time>
      </trkpt>
      <trkpt lat="44.71075" lon="5.89148">
        <ele>1192</ele>
        <time>2017-12-15T19:55:03Z</time>
      </trkpt>
      <trkpt lat="44.71097" lon="5.89148">
        <ele>1190.4</ele>
        <time>2017-12-15T19:55:16Z</time>
      </trkpt>
      <trkpt lat="44.71118" lon="5.89141">
        <ele>1190.4</ele>
        <time>2017-12-15T19:55:20Z</time>
      </trkpt>
      <trkpt lat="44.71125" lon="5.89136">
        <ele>1190.6</ele>
        <time>2017-12-15T19:55:28Z</time>
      </trkpt>
      <trkpt lat="44.7115" lon="5.89122">
        <ele>1190</ele>
        <time>2017-12-15T19:55:45Z</time>
      </trkpt>
      <trkpt lat="44.71161" lon="5.89119">
        <ele>1189.1</ele>
        <time>2017-12-15T19:55:55Z</time>
      </trkpt>
      <trkpt lat="44.71184" lon="5.89117">
        <ele>1186.9</ele>
        <time>2017-12-15T19:56:01Z</time>
      </trkpt>
      <trkpt lat="44.71203" lon="5.89112">
        <ele>1185.6</ele>
        <time>2017-12-15T19:56:15Z</time>
      </trkpt>
      <trkpt lat="44.71226" lon="5.8911">
        <ele>1182.6</ele>
        <time>2017-12-15T19:56:32Z</time>
      </trkpt>
      <trkpt lat="44.71239" lon="5.89109">
        <ele>1180.5</ele>
        <time>2017-12-15T19:56:39Z</time>
      </trkpt>
      <trkpt lat="44.71257" lon="5.89093">
        <ele>1181.3</ele>
        <time>2017-12-15T19:56:46Z</time>
      </trkpt>
      <trkpt lat="44.71273" lon="5.89077">
        <ele>1182.2</ele>
        <time>2017-12-15T19:56:56Z</time>
      </trkpt>
      <trkpt lat="44.71284" lon="5.8907">
        <ele>1181.5</ele>
        <time>2017-12-15T19:57:09Z</time>
      </trkpt>
      <trkpt lat="44.7132" lon="5.8906">
        <ele>1175.5</ele>
        <time>2017-12-15T19:57:26Z</time>
      </trkpt>
      <trkpt lat="44.71334" lon="5.89057">
        <ele>1172.5</ele>
        <time>2017-12-15T19:57:46Z</time>
      </trkpt>
      <trkpt lat="44.71353" lon="5.89058">
        <ele>1166.9</ele>
        <time>2017-12-15T19:58:02Z</time>
      </trkpt>
      <trkpt lat="44.71368" lon="5.89059">
        <ele>1162.1</ele>
        <time>2017-12-15T19:58:06Z</time>
      </trkpt>
      <trkpt lat="44.71381" lon="5.89051">
        <ele>1159.5</ele>
        <time>2017-12-15T19:58:15Z</time>
      </trkpt>
      <trkpt lat="44.71392" lon="5.89038">
        <ele>1158.5</ele>
        <time>2017-12-15T19:58:24Z</time>
      </trkpt>
      <trkpt lat="44.71408" lon="5.89002">
        <ele>1158.7</ele>
        <time>2017-12-15T19:58:28Z</time>
      </trkpt>
      <trkpt lat="44.71432" lon="5.88953">
        <ele>1154.7</ele>
        <time>2017-12-15T19:58:30Z</time>
      </trkpt>
      <trkpt lat="44.71444" lon="5.88929">
        <ele>1151.9</ele>
        <time>2017-12-15T19:58:33Z</time>
      </trkpt>
      <trkpt lat="44.71451" lon="5.88904">
        <ele>1150.2</ele>
        <time>2017-12-15T19:58:42Z</time>
      </trkpt>
      <trkpt lat="44.71453" lon="5.88872">
        <ele>1148.1</ele>
        <time>2017-12-15T19:58:45Z</time>
      </trkpt>
      <trkpt lat="44.71452" lon="5.88839">
        <ele>1144.6</ele>
        <time>2017-12-15T19:58:53Z</time>
      </trkpt>
      <trkpt lat="44.71447" lon="5.88814">
        <ele>1142.4</ele>
        <time>2017-12-15T19:59:12Z</time>
      </trkpt>
      <trkpt lat="44.71434" lon="5.88791">
        <ele>1143.4</ele>
        <time>2017-12-15T19:59:31Z</time>
      </trkpt>
      <trkpt lat="44.71417" lon="5.88748">
        <ele>1142.6</ele>
        <time>2017-12-15T19:59:49Z</time>
      </trkpt>
      <trkpt lat="44.71401" lon="5.88692">
        <ele>1140.8</ele>
        <time>2017-12-15T20:00:03Z</time>
      </trkpt>
      <trkpt lat="44.71389" lon="5.88661">
        <ele>1140.6</ele>
        <time>2017-12-15T20:00:14Z</time>
      </trkpt>
      <trkpt lat="44.71372" lon="5.88628">
        <ele>1142.5</ele>
        <time>2017-12-15T20:00:20Z</time>
      </trkpt>
      <trkpt lat="44.71362" lon="5.886">
        <ele>1141.1</ele>
        <time>2017-12-15T20:00:32Z</time>
      </trkpt>
      <trkpt lat="44.71362" lon="5.88585">
        <ele>1140.1</ele>
        <time>2017-12-15T20:00:48Z</time>
      </trkpt>
      <trkpt lat="44.7137" lon="5.88591">
        <ele>1140.4</ele>
        <time>2017-12-15T20:00:58Z</time>
      </trkpt>
      <trkpt lat="44.71426" lon="5.88648">
        <ele>1134.5</ele>
        <time>2017-12-15T20:01:03Z</time>
      </trkpt>
      <trkpt lat="44.71446" lon="5.88662">
        <ele>1131</ele>
        <time>2017-12-15T20:01:07Z</time>
      </trkpt>
      <trkpt lat="44.71481" lon="5.88668">
        <ele>1130.9</ele>
        <time>2017-12-15T20:01:14Z</time>
      </trkpt>
      <trkpt lat="44.715" lon="5.88675">
        <ele>1131.3</ele>
        <time>2017-12-15T20:01:16Z</time>
      </trkpt>
      <trkpt lat="44.71508" lon="5.88681">
        <ele>1131.1</ele>
        <time>2017-12-15T20:01:23Z</time>
      </trkpt>
      <trkpt lat="44.71522" lon="5.887">
        <ele>1127.4</ele>
        <time>2017-12-15T20:01:37Z</time>
      </trkpt>
      <trkpt lat="44.71537" lon="5.88717">
        <ele>1125</ele>
        <time>2017-12-15T20:01:53Z</time>
      </trkpt>
      <trkpt lat="44.71551" lon="5.88728">
        <ele>1123.7</ele>
        <time>2017-12-15T20:02:10Z</time>
      </trkpt>
      <trkpt lat="44.71571" lon="5.88735">
        <ele>1122.4</ele>
        <time>2017-12-15T20:02:19Z</time>
      </trkpt>
      <trkpt lat="44.71601" lon="5.88734">
        <ele>1121.8</ele>
        <time>2017-12-15T20:02:39Z</time>
      </trkpt>
      <trkpt lat="44.71642" lon="5.88726">
        <ele>1121.8</ele>
        <time>2017-12-15T20:02:57Z</time>
      </trkpt>
      <trkpt lat="44.71663" lon="5.88729">
        <ele>1120.4</ele>
        <time>2017-12-15T20:03:00Z</time>
      </trkpt>
      <trkpt lat="44.71685" lon="5.88734">
        <ele>1120</ele>
        <time>2017-12-15T20:03:17Z</time>
      </trkpt>
      <trkpt lat="44.71697" lon="5.88742">
        <ele>1118.9</ele>
        <time>2017-12-15T20:03:31Z</time>
      </trkpt>
      <trkpt lat="44.71721" lon="5.88765">
        <ele>1115.7</ele>
        <time>2017-12-15T20:03:46Z</time>
      </trkpt>
      <trkpt lat="44.71742" lon="5.88773">
        <ele>1114.7</ele>
        <time>2017-12-15T20:03:52Z</time>
      </trkpt>
      <trkpt lat="44.71757" lon="5.88788">
        <ele>1112</ele>
        <time>2017-12-15T20:04:03Z</time>
      </trkpt>
      <trkpt lat="44.71773" lon="5.88812">
        <ele>1107.7</ele>
        <time>2017-12-15T20:04:10Z</time>
      </trkpt>
      <trkpt lat="44.71792" lon="5.88831">
        <ele>1104.4</ele>
        <time>2017-12-15T20:04:28Z</time>
      </trkpt>
      <trkpt lat="44.71801" lon="5.88835">
        <ele>1103.8</ele>
        <time>2017-12-15T20:04:43Z</time>
      </trkpt>
      <trkpt lat="44.71807" lon="5.88835">
        <ele>1103.8</ele>
        <time>2017-12-15T20:04:48Z</time>
      </trkpt>
      <trkpt lat="44.71819" lon="5.88832">
        <ele>1104.2</ele>
        <time>2017-12-15T20:04:58Z</time>
      </trkpt>
      <trkpt lat="44.71832" lon="5.88824">
        <ele>1105.4</ele>
        <time>2017-12-15T20:05:07Z</time>
      </trkpt>
      <trkpt lat="44.71845" lon="5.88822">
        <ele>1107.4</ele>
        <time>2017-12-15T20:05:17Z</time>
      </trkpt>
      <trkpt lat="44.71849" lon="5.88823">
        <ele>1107.9</ele>
        <time>2017-12-15T20:05:34Z</time>
      </trkpt>
      <trkpt lat="44.71853" lon="5.88826">
        <ele>1108.2</ele>
        <time>2017-12-15T20:05:45Z</time>
      </trkpt>
      <trkpt lat="44.71855" lon="5.88834">
        <ele>1107.8</ele>
        <time>2017-12-15T20:05:54Z</time>
      </trkpt>
      <trkpt lat="44.71867" lon="5.88877">
        <ele>1106.5</ele>
        <time>2017-12-15T20:06:05Z</time>
      </trkpt>
      <trkpt lat="44.71879" lon="5.88897">
        <ele>1107.3</ele>
        <time>2017-12-15T20:06:24Z</time>
      </trkpt>
      <trkpt lat="44.71892" lon="5.88933">
        <ele>1104.6</ele>
        <time>2017-12-15T20:06:37Z</time>
      </trkpt>
      <trkpt lat="44.719" lon="5.88952">
        <ele>1104</ele>
        <time>2017-12-15T20:06:41Z</time>
      </trkpt>
      <trkpt lat="44.71917" lon="5.8898">
        <ele>1104</ele>
        <time>2017-12-15T20:06:59Z</time>
      </trkpt>
      <trkpt lat="44.71974" lon="5.89077">
        <ele>1103.7</ele>
        <time>2017-12-15T20:07:18Z</time>
      </trkpt>
      <trkpt lat="44.72008" lon="5.89137">
        <ele>1098.9</ele>
        <time>2017-12-15T20:07:20Z</time>
      </trkpt>
      <trkpt lat="44.72048" lon="5.89188">
        <ele>1097.8</ele>
        <time>2017-12-15T20:07:22Z</time>
      </trkpt>
      <trkpt lat="44.72118" lon="5.89268">
        <ele>1094.3</ele>
        <time>2017-12-15T20:07:39Z</time>
      </trkpt>
      <trkpt lat="44.72141" lon="5.89292">
        <ele>1091.5</ele>
        <time>2017-12-15T20:07:44Z</time>
      </trkpt>
      <trkpt lat="44.72188" lon="5.89335">
        <ele>1092</ele>
        <time>2017-12-15T20:07:59Z</time>
      </trkpt>
      <trkpt lat="44.72218" lon="5.8938">
        <ele>1091.8</ele>
        <time>2017-12-15T20:08:06Z</time>
      </trkpt>
      <trkpt lat="44.72235" lon="5.89415">
        <ele>1092.8</ele>
        <time>2017-12-15T20:08:10Z</time>
      </trkpt>
      <trkpt lat="44.72249" lon="5.8945">
        <ele>1091.5</ele>
        <time>2017-12-15T20:08:18Z</time>
      </trkpt>
      <trkpt lat="44.7227" lon="5.89482">
        <ele>1093.6</ele>
        <time>2017-12-15T20:08:22Z</time>
      </trkpt>
      <trkpt lat="44.72288" lon="5.89518">
        <ele>1089.9</ele>
        <time>2017-12-15T20:08:35Z</time>
      </trkpt>
      <trkpt lat="44.72298" lon="5.89536">
        <ele>1087.4</ele>
        <time>2017-12-15T20:08:46Z</time>
      </trkpt>
      <trkpt lat="44.72306" lon="5.89545">
        <ele>1086.3</ele>
        <time>2017-12-15T20:08:54Z</time>
      </trkpt>
      <trkpt lat="44.72335" lon="5.89567">
        <ele>1086.5</ele>
        <time>2017-12-15T20:08:59Z</time>
      </trkpt>
      <trkpt lat="44.72359" lon="5.8958">
        <ele>1086.2</ele>
        <time>2017-12-15T20:09:02Z</time>
      </trkpt>
      <trkpt lat="44.72434" lon="5.89627">
        <ele>1082</ele>
        <time>2017-12-15T20:09:09Z</time>
      </trkpt>
      <trkpt lat="44.72455" lon="5.89639">
        <ele>1079.9</ele>
        <time>2017-12-15T20:09:22Z</time>
      </trkpt>
      <trkpt lat="44.72473" lon="5.89645">
        <ele>1080.9</ele>
        <time>2017-12-15T20:09:40Z</time>
      </trkpt>
      <trkpt lat="44.72511" lon="5.89658">
        <ele>1081.5</ele>
        <time>2017-12-15T20:09:55Z</time>
      </trkpt>
      <trkpt lat="44.72543" lon="5.89668">
        <ele>1081.7</ele>
        <time>2017-12-15T20:10:03Z</time>
      </trkpt>
      <trkpt lat="44.7258" lon="5.89686">
        <ele>1077.8</ele>
        <time>2017-12-15T20:10:07Z</time>
      </trkpt>
      <trkpt lat="44.72602" lon="5.89696">
        <ele>1074.1</ele>
        <time>2017-12-15T20:10:14Z</time>
      </trkpt>
      <trkpt lat="44.72623" lon="5.8971">
        <ele>1068.5</ele>
        <time>2017-12-15T20:10:17Z</time>
      </trkpt>
      <trkpt lat="44.72644" lon="5.89718">
        <ele>1063.8</ele>
        <time>2017-12-15T20:10:33Z</time>
      </trkpt>
      <trkpt lat="44.7267" lon="5.8972">
        <ele>1061.2</ele>
        <time>2017-12-15T20:10:37Z</time>
      </trkpt>
      <trkpt lat="44.72692" lon="5.89725">
        <ele>1058</ele>
        <time>2017-12-15T20:10:43Z</time>
      </trkpt>
      <trkpt lat="44.72703" lon="5.89729">
        <ele>1056.5</ele>
        <time>2017-12-15T20:10:48Z</time>
      </trkpt>
      <trkpt lat="44.72717" lon="5.8973">
        <ele>1056.5</ele>
        <time>2017-12-15T20:10:52Z</time>
      </trkpt>
      <trkpt lat="44.72738" lon="5.89729">
        <ele>1058.6</ele>
        <time>2017-12-15T20:11:03Z</time>
      </trkpt>
      <trkpt lat="44.72749" lon="5.89727">
        <ele>1060.7</ele>
        <time>2017-12-15T20:11:10Z</time>
      </trkpt>
      <trkpt lat="44.72765" lon="5.89726">
        <ele>1062.5</ele>
        <time>2017-12-15T20:11:23Z</time>
      </trkpt>
      <trkpt lat="44.72788" lon="5.89731">
        <ele>1062</ele>
        <time>2017-12-15T20:11:40Z</time>
      </trkpt>
      <trkpt lat="44.72798" lon="5.89732">
        <ele>1062.1</ele>
        <time>2017-12-15T20:11:43Z</time>
      </trkpt>
      <trkpt lat="44.7281" lon="5.89728">
        <ele>1064</ele>
        <time>2017-12-15T20:12:02Z</time>
      </trkpt>
      <trkpt lat="44.72831" lon="5.89719">
        <ele>1067.4</ele>
        <time>2017-12-15T20:12:10Z</time>
      </trkpt>
      <trkpt lat="44.7284" lon="5.89716">
        <ele>1068.4</ele>
        <time>2017-12-15T20:12:15Z</time>
      </trkpt>
      <trkpt lat="44.72851" lon="5.89718">
        <ele>1067.1</ele>
        <time>2017-12-15T20:12:23Z</time>
      </trkpt>
      <trkpt lat="44.72892" lon="5.89729">
        <ele>1061.7</ele>
        <time>2017-12-15T20:12:38Z</time>
      </trkpt>
      <trkpt lat="44.72906" lon="5.89732">
        <ele>1059.6</ele>
        <time>2017-12-15T20:12:54Z</time>
      </trkpt>
      <trkpt lat="44.72916" lon="5.89731">
        <ele>1058.9</ele>
        <time>2017-12-15T20:12:58Z</time>
      </trkpt>
      <trkpt lat="44.7294" lon="5.89714">
        <ele>1061.2</ele>
        <time>2017-12-15T20:13:16Z</time>
      </trkpt>
      <trkpt lat="44.72966" lon="5.89693">
        <ele>1063.6</ele>
        <time>2017-12-15T20:13:34Z</time>
      </trkpt>
      <trkpt lat="44.73002" lon="5.89667">
        <ele>1064.6</ele>
        <time>2017-12-15T20:13:52Z</time>
      </trkpt>
      <trkpt lat="44.73045" lon="5.89648">
        <ele>1061</ele>
        <time>2017-12-15T20:14:00Z</time>
      </trkpt>
      <trkpt lat="44.73087" lon="5.89639">
        <ele>1055.6</ele>
        <time>2017-12-15T20:14:04Z</time>
      </trkpt>
      <trkpt lat="44.73136" lon="5.89634">
        <ele>1051.5</ele>
        <time>2017-12-15T20:14:17Z</time>
      </trkpt>
      <trkpt lat="44.73182" lon="5.89627">
        <ele>1046.8</ele>
        <time>2017-12-15T20:14:35Z</time>
      </trkpt>
      <trkpt lat="44.73186" lon="5.89628">
        <ele>1046</ele>
        <time>2017-12-15T20:14:47Z</time>
      </trkpt>
      <trkpt lat="44.73189" lon="5.89632">
        <ele>1044.5</ele>
        <time>2017-12-15T20:14:51Z</time>
      </trkpt>
      <trkpt lat="44.73205" lon="5.89623">
        <ele>1044.3</ele>
        <time>2017-12-15T20:14:55Z</time>
      </trkpt>
      <trkpt lat="44.73243" lon="5.89598">
        <ele>1043.2</ele>
        <time>2017-12-15T20:15:00Z</time>
      </trkpt>
      <trkpt lat="44.73275" lon="5.8956">
        <ele>1046.4</ele>
        <time>2017-12-15T20:15:17Z</time>
      </trkpt>
      <trkpt lat="44.73289" lon="5.89546">
        <ele>1048.4</ele>
        <time>2017-12-15T20:15:34Z</time>
      </trkpt>
      <trkpt lat="44.73298" lon="5.89541">
        <ele>1048.6</ele>
        <time>2017-12-15T20:15:47Z</time>
      </trkpt>
      <trkpt lat="44.73313" lon="5.89539">
        <ele>1047.6</ele>
        <time>2017-12-15T20:15:54Z</time>
      </trkpt>
      <trkpt lat="44.73329" lon="5.89542">
        <ele>1045.7</ele>
        <time>2017-12-15T20:16:00Z</time>
      </trkpt>
      <trkpt lat="44.73346" lon="5.89552">
        <ele>1042.3</ele>
        <time>2017-12-15T20:16:06Z</time>
      </trkpt>
      <trkpt lat="44.73374" lon="5.89568">
        <ele>1039</ele>
        <time>2017-12-15T20:16:24Z</time>
      </trkpt>
      <trkpt lat="44.73382" lon="5.89571">
        <ele>1038.4</ele>
        <time>2017-12-15T20:16:32Z</time>
      </trkpt>
      <trkpt lat="44.73391" lon="5.8957">
        <ele>1038.1</ele>
        <time>2017-12-15T20:16:44Z</time>
      </trkpt>
      <trkpt lat="44.73413" lon="5.89563">
        <ele>1035.5</ele>
        <time>2017-12-15T20:17:00Z</time>
      </trkpt>
      <trkpt lat="44.73419" lon="5.89558">
        <ele>1035.2</ele>
        <time>2017-12-15T20:17:04Z</time>
      </trkpt>
      <trkpt lat="44.73423" lon="5.89546">
        <ele>1035.4</ele>
        <time>2017-12-15T20:17:20Z</time>
      </trkpt>
      <trkpt lat="44.73432" lon="5.89516">
        <ele>1036.3</ele>
        <time>2017-12-15T20:17:26Z</time>
      </trkpt>
      <trkpt lat="44.73442" lon="5.89492">
        <ele>1037</ele>
        <time>2017-12-15T20:17:43Z</time>
      </trkpt>
      <trkpt lat="44.7346" lon="5.89476">
        <ele>1036.6</ele>
        <time>2017-12-15T20:17:50Z</time>
      </trkpt>
      <trkpt lat="44.73506" lon="5.89449">
        <ele>1036</ele>
        <time>2017-12-15T20:17:57Z</time>
      </trkpt>
      <trkpt lat="44.73525" lon="5.8944">
        <ele>1035.5</ele>
        <time>2017-12-15T20:18:05Z</time>
      </trkpt>
      <trkpt lat="44.73551" lon="5.89436">
        <ele>1032.8</ele>
        <time>2017-12-15T20:18:09Z</time>
      </trkpt>
      <trkpt lat="44.73559" lon="5.89438">
        <ele>1031.2</ele>
        <time>2017-12-15T20:18:13Z</time>
      </trkpt>
      <trkpt lat="44.73579" lon="5.89452">
        <ele>1026.1</ele>
        <time>2017-12-15T20:18:17Z</time>
      </trkpt>
      <trkpt lat="44.73598" lon="5.8947">
        <ele>1021.2</ele>
        <time>2017-12-15T20:18:20Z</time>
      </trkpt>
      <trkpt lat="44.73614" lon="5.89478">
        <ele>1020.3</ele>
        <time>2017-12-15T20:18:31Z</time>
      </trkpt>
      <trkpt lat="44.73625" lon="5.89476">
        <ele>1020.3</ele>
        <time>2017-12-15T20:18:37Z</time>
      </trkpt>
      <trkpt lat="44.73635" lon="5.89465">
        <ele>1020.1</ele>
        <time>2017-12-15T20:18:52Z</time>
      </trkpt>
      <trkpt lat="44.73639" lon="5.89452">
        <ele>1020</ele>
        <time>2017-12-15T20:18:59Z</time>
      </trkpt>
      <trkpt lat="44.73639" lon="5.89439">
        <ele>1020</ele>
        <time>2017-12-15T20:19:13Z</time>
      </trkpt>
      <trkpt lat="44.73638" lon="5.89404">
        <ele>1020.3</ele>
        <time>2017-12-15T20:19:24Z</time>
      </trkpt>
      <trkpt lat="44.73639" lon="5.89388">
        <ele>1020.1</ele>
        <time>2017-12-15T20:19:39Z</time>
      </trkpt>
      <trkpt lat="44.73646" lon="5.89359">
        <ele>1020.9</ele>
        <time>2017-12-15T20:19:50Z</time>
      </trkpt>
      <trkpt lat="44.73727" lon="5.8919">
        <ele>1015.9</ele>
        <time>2017-12-15T20:19:52Z</time>
      </trkpt>
      <trkpt lat="44.73747" lon="5.89156">
        <ele>1017.5</ele>
        <time>2017-12-15T20:20:06Z</time>
      </trkpt>
      <trkpt lat="44.73759" lon="5.89142">
        <ele>1018.1</ele>
        <time>2017-12-15T20:20:11Z</time>
      </trkpt>
      <trkpt lat="44.73776" lon="5.8913">
        <ele>1017.3</ele>
        <time>2017-12-15T20:20:17Z</time>
      </trkpt>
      <trkpt lat="44.73788" lon="5.89127">
        <ele>1017</ele>
        <time>2017-12-15T20:20:27Z</time>
      </trkpt>
      <trkpt lat="44.73807" lon="5.89128">
        <ele>1015.3</ele>
        <time>2017-12-15T20:20:43Z</time>
      </trkpt>
      <trkpt lat="44.73828" lon="5.89139">
        <ele>1014.4</ele>
        <time>2017-12-15T20:21:02Z</time>
      </trkpt>
      <trkpt lat="44.73841" lon="5.8915">
        <ele>1014.3</ele>
        <time>2017-12-15T20:21:15Z</time>
      </trkpt>
      <trkpt lat="44.73859" lon="5.89173">
        <ele>1012.2</ele>
        <time>2017-12-15T20:21:33Z</time>
      </trkpt>
      <trkpt lat="44.73871" lon="5.89186">
        <ele>1011.2</ele>
        <time>2017-12-15T20:21:43Z</time>
      </trkpt>
      <trkpt lat="44.7389" lon="5.89199">
        <ele>1009.6</ele>
        <time>2017-12-15T20:21:47Z</time>
      </trkpt>
      <trkpt lat="44.73923" lon="5.89198">
        <ele>1007.4</ele>
        <time>2017-12-15T20:21:50Z</time>
      </trkpt>
      <trkpt lat="44.73943" lon="5.89197">
        <ele>1006.1</ele>
        <time>2017-12-15T20:22:00Z</time>
      </trkpt>
      <trkpt lat="44.73964" lon="5.89192">
        <ele>1004.5</ele>
        <time>2017-12-15T20:22:11Z</time>
      </trkpt>
      <trkpt lat="44.74018" lon="5.89172">
        <ele>1004.3</ele>
        <time>2017-12-15T20:22:25Z</time>
      </trkpt>
      <trkpt lat="44.74075" lon="5.89159">
        <ele>996.8</ele>
        <time>2017-12-15T20:22:32Z</time>
      </trkpt>
      <trkpt lat="44.74116" lon="5.89145">
        <ele>990.8</ele>
        <time>2017-12-15T20:22:43Z</time>
      </trkpt>
      <trkpt lat="44.74148" lon="5.89134">
        <ele>985.4</ele>
        <time>2017-12-15T20:22:50Z</time>
      </trkpt>
      <trkpt lat="44.74171" lon="5.89123">
        <ele>984.1</ele>
        <time>2017-12-15T20:22:52Z</time>
      </trkpt>
      <trkpt lat="44.74206" lon="5.89096">
        <ele>982.4</ele>
        <time>2017-12-15T20:23:04Z</time>
      </trkpt>
      <trkpt lat="44.74239" lon="5.89065">
        <ele>980.3</ele>
        <time>2017-12-15T20:23:08Z</time>
      </trkpt>
      <trkpt lat="44.74257" lon="5.89052">
        <ele>979.2</ele>
        <time>2017-12-15T20:23:13Z</time>
      </trkpt>
      <trkpt lat="44.74269" lon="5.89052">
        <ele>977.7</ele>
        <time>2017-12-15T20:23:27Z</time>
      </trkpt>
      <trkpt lat="44.74281" lon="5.89065">
        <ele>978.9</ele>
        <time>2017-12-15T20:23:32Z</time>
      </trkpt>
      <trkpt lat="44.74286" lon="5.89072">
        <ele>981.9</ele>
        <time>2017-12-15T20:23:45Z</time>
      </trkpt>
      <trkpt lat="44.74295" lon="5.89077">
        <ele>985.8</ele>
        <time>2017-12-15T20:24:05Z</time>
      </trkpt>
      <trkpt lat="44.743" lon="5.89075">
        <ele>986.7</ele>
        <time>2017-12-15T20:24:18Z</time>
      </trkpt>
      <trkpt lat="44.7433" lon="5.89058">
        <ele>982.8</ele>
        <time>2017-12-15T20:24:24Z</time>
      </trkpt>
      <trkpt lat="44.74354" lon="5.89044">
        <ele>983.8</ele>
        <time>2017-12-15T20:24:44Z</time>
      </trkpt>
      <trkpt lat="44.74383" lon="5.89023">
        <ele>985.1</ele>
        <time>2017-12-15T20:24:55Z</time>
      </trkpt>
      <trkpt lat="44.74399" lon="5.88998">
        <ele>990.2</ele>
        <time>2017-12-15T20:25:12Z</time>
      </trkpt>
      <trkpt lat="44.74414" lon="5.88965">
        <ele>985.3</ele>
        <time>2017-12-15T20:25:30Z</time>
      </trkpt>
      <trkpt lat="44.74427" lon="5.88924">
        <ele>976.9</ele>
        <time>2017-12-15T20:25:42Z</time>
      </trkpt>
      <trkpt lat="44.74431" lon="5.88895">
        <ele>970.8</ele>
        <time>2017-12-15T20:25:48Z</time>
      </trkpt>
      <trkpt lat="44.74442" lon="5.88844">
        <ele>975.4</ele>
        <time>2017-12-15T20:26:06Z</time>
      </trkpt>
      <trkpt lat="44.74453" lon="5.88821">
        <ele>978.6</ele>
        <time>2017-12-15T20:26:25Z</time>
      </trkpt>
      <trkpt lat="44.74468" lon="5.88805">
        <ele>971.5</ele>
        <time>2017-12-15T20:26:32Z</time>
      </trkpt>
      <trkpt lat="44.74488" lon="5.88796">
        <ele>963.7</ele>
        <time>2017-12-15T20:26:38Z</time>
      </trkpt>
      <trkpt lat="44.74515" lon="5.88791">
        <ele>956.6</ele>
        <time>2017-12-15T20:26:43Z</time>
      </trkpt>
      <trkpt lat="44.74545" lon="5.88793">
        <ele>961</ele>
        <time>2017-12-15T20:26:47Z</time>
      </trkpt>
      <trkpt lat="44.74561" lon="5.88787">
        <ele>966.2</ele>
        <time>2017-12-15T20:26:50Z</time>
      </trkpt>
      <trkpt lat="44.7458" lon="5.88772">
        <ele>971.1</ele>
        <time>2017-12-15T20:26:56Z</time>
      </trkpt>
      <trkpt lat="44.746" lon="5.8875">
        <ele>974.8</ele>
        <time>2017-12-15T20:27:10Z</time>
      </trkpt>
      <trkpt lat="44.74633" lon="5.88698">
        <ele>964.5</ele>
        <time>2017-12-15T20:27:19Z</time>
      </trkpt>
      <trkpt lat="44.74677" lon="5.88673">
        <ele>984.1</ele>
        <time>2017-12-15T20:27:38Z</time>
      </trkpt>
      <trkpt lat="44.74689" lon="5.88662">
        <ele>988.7</ele>
        <time>2017-12-15T20:27:58Z</time>
      </trkpt>
      <trkpt lat="44.74717" lon="5.88611">
        <ele>989.4</ele>
        <time>2017-12-15T20:28:11Z</time>
      </trkpt>
      <trkpt lat="44.74718" lon="5.88608">
        <ele>988.3</ele>
        <time>2017-12-15T20:28:22Z</time>
      </trkpt>
      <trkpt lat="44.74719" lon="5.88595">
        <ele>981.6</ele>
        <time>2017-12-15T20:28:40Z</time>
      </trkpt>
      <trkpt lat="44.74725" lon="5.88579">
        <ele>973.7</ele>
        <time>2017-12-15T20:28:50Z</time>
      </trkpt>
      <trkpt lat="44.74751" lon="5.88541">
        <ele>944.8</ele>
        <time>2017-12-15T20:28:57Z</time>
      </trkpt>
      <trkpt lat="44.74764" lon="5.88533">
        <ele>936.7</ele>
        <time>2017-12-15T20:29:09Z</time>
      </trkpt>
      <trkpt lat="44.74781" lon="5.88533">
        <ele>936</ele>
        <time>2017-12-15T20:29:25Z</time>
      </trkpt>
      <trkpt lat="44.74804" lon="5.88524">
        <ele>932.7</ele>
        <time>2017-12-15T20:29:35Z</time>
      </trkpt>
      <trkpt lat="44.74811" lon="5.8852">
        <ele>930.4</ele>
        <time>2017-12-15T20:29:39Z</time>
      </trkpt>
      <trkpt lat="44.74837" lon="5.88525">
        <ele>932.4</ele>
        <time>2017-12-15T20:29:53Z</time>
      </trkpt>
      <trkpt lat="44.74866" lon="5.8853">
        <ele>932</ele>
        <time>2017-12-15T20:30:06Z</time>
      </trkpt>
      <trkpt lat="44.74896" lon="5.88522">
        <ele>925.6</ele>
        <time>2017-12-15T20:30:18Z</time>
      </trkpt>
      <trkpt lat="44.74952" lon="5.88492">
        <ele>919.5</ele>
        <time>2017-12-15T20:30:23Z</time>
      </trkpt>
      <trkpt lat="44.74962" lon="5.88489">
        <ele>919.1</ele>
        <time>2017-12-15T20:30:43Z</time>
      </trkpt>
      <trkpt lat="44.74982" lon="5.88493">
        <ele>918.2</ele>
        <time>2017-12-15T20:30:48Z</time>
      </trkpt>
      <trkpt lat="44.75008" lon="5.88508">
        <ele>919.5</ele>
        <time>2017-12-15T20:31:02Z</time>
      </trkpt>
      <trkpt lat="44.75057" lon="5.88499">
        <ele>914.7</ele>
        <time>2017-12-15T20:31:19Z</time>
      </trkpt>
      <trkpt lat="44.75085" lon="5.88496">
        <ele>914</ele>
        <time>2017-12-15T20:31:38Z</time>
      </trkpt>
      <trkpt lat="44.75089" lon="5.88493">
        <ele>913.4</ele>
        <time>2017-12-15T20:31:45Z</time>
      </trkpt>
      <trkpt lat="44.75092" lon="5.88486">
        <ele>911.6</ele>
        <time>2017-12-15T20:31:52Z</time>
      </trkpt>
      <trkpt lat="44.75097" lon="5.88467">
        <ele>907.6</ele>
        <time>2017-12-15T20:32:10Z</time>
      </trkpt>
      <trkpt lat="44.75101" lon="5.88412">
        <ele>906.9</ele>
        <time>2017-12-15T20:32:24Z</time>
      </trkpt>
      <trkpt lat="44.75108" lon="5.88379">
        <ele>911.4</ele>
        <time>2017-12-15T20:32:40Z</time>
      </trkpt>
      <trkpt lat="44.75115" lon="5.88357">
        <ele>916</ele>
        <time>2017-12-15T20:32:47Z</time>
      </trkpt>
      <trkpt lat="44.7512" lon="5.88351">
        <ele>917.5</ele>
        <time>2017-12-15T20:33:03Z</time>
      </trkpt>
      <trkpt lat="44.75132" lon="5.88342">
        <ele>919.2</ele>
        <time>2017-12-15T20:33:21Z</time>
      </trkpt>
      <trkpt lat="44.7515" lon="5.88341">
        <ele>919.1</ele>
        <time>2017-12-15T20:33:31Z</time>
      </trkpt>
      <trkpt lat="44.75204" lon="5.88357">
        <ele>915.6</ele>
        <time>2017-12-15T20:33:36Z</time>
      </trkpt>
      <trkpt lat="44.75256" lon="5.88369">
        <ele>914.6</ele>
        <time>2017-12-15T20:33:47Z</time>
      </trkpt>
      <trkpt lat="44.75298" lon="5.88376">
        <ele>914</ele>
        <time>2017-12-15T20:33:50Z</time>
      </trkpt>
      <trkpt lat="44.75312" lon="5.88373">
        <ele>915.4</ele>
        <time>2017-12-15T20:34:06Z</time>
      </trkpt>
      <trkpt lat="44.75331" lon="5.88372">
        <ele>916.6</ele>
        <time>2017-12-15T20:34:24Z</time>
      </trkpt>
      <trkpt lat="44.75353" lon="5.88374">
        <ele>917</ele>
        <time>2017-12-15T20:34:35Z</time>
      </trkpt>
      <trkpt lat="44.75389" lon="5.88379">
        <ele>917.6</ele>
        <time>2017-12-15T20:34:43Z</time>
      </trkpt>
      <trkpt lat="44.75457" lon="5.88383">
        <ele>921.7</ele>
        <time>2017-12-15T20:34:54Z</time>
      </trkpt>
      <trkpt lat="44.75484" lon="5.88389">
        <ele>923.9</ele>
        <time>2017-12-15T20:34:58Z</time>
      </trkpt>
      <trkpt lat="44.755" lon="5.88397">
        <ele>925.7</ele>
        <time>2017-12-15T20:35:13Z</time>
      </trkpt>
      <trkpt lat="44.75512" lon="5.88408">
        <ele>927.2</ele>
        <time>2017-12-15T20:35:27Z</time>
      </trkpt>
      <trkpt lat="44.7552" lon="5.88418">
        <ele>927.6</ele>
        <time>2017-12-15T20:35:31Z</time>
      </trkpt>
      <trkpt lat="44.75529" lon="5.88441">
        <ele>925.4</ele>
        <time>2017-12-15T20:35:35Z</time>
      </trkpt>
      <trkpt lat="44.75544" lon="5.88497">
        <ele>919.3</ele>
        <time>2017-12-15T20:35:37Z</time>
      </trkpt>
      <trkpt lat="44.75553" lon="5.8851">
        <ele>918.8</ele>
        <time>2017-12-15T20:35:49Z</time>
      </trkpt>
      <trkpt lat="44.75566" lon="5.88521">
        <ele>919.4</ele>
        <time>2017-12-15T20:35:51Z</time>
      </trkpt>
      <trkpt lat="44.75625" lon="5.88552">
        <ele>923.6</ele>
        <time>2017-12-15T20:36:06Z</time>
      </trkpt>
      <trkpt lat="44.75648" lon="5.88558">
        <ele>923.7</ele>
        <time>2017-12-15T20:36:23Z</time>
      </trkpt>
      <trkpt lat="44.75665" lon="5.88557">
        <ele>924.6</ele>
        <time>2017-12-15T20:36:41Z</time>
      </trkpt>
      <trkpt lat="44.75684" lon="5.88551">
        <ele>924.3</ele>
        <time>2017-12-15T20:36:59Z</time>
      </trkpt>
      <trkpt lat="44.75706" lon="5.88544">
        <ele>922.4</ele>
        <time>2017-12-15T20:37:07Z</time>
      </trkpt>
      <trkpt lat="44.75712" lon="5.8854">
        <ele>922.1</ele>
        <time>2017-12-15T20:37:26Z</time>
      </trkpt>
      <trkpt lat="44.75723" lon="5.88522">
        <ele>924.7</ele>
        <time>2017-12-15T20:37:46Z</time>
      </trkpt>
      <trkpt lat="44.75747" lon="5.8849">
        <ele>930.9</ele>
        <time>2017-12-15T20:38:04Z</time>
      </trkpt>
      <trkpt lat="44.758" lon="5.88462">
        <ele>937.6</ele>
        <time>2017-12-15T20:38:12Z</time>
      </trkpt>
      <trkpt lat="44.75835" lon="5.88453">
        <ele>941.2</ele>
        <time>2017-12-15T20:38:16Z</time>
      </trkpt>
      <trkpt lat="44.75862" lon="5.88457">
        <ele>942.8</ele>
        <time>2017-12-15T20:38:27Z</time>
      </trkpt>
      <trkpt lat="44.75916" lon="5.88483">
        <ele>941.1</ele>
        <time>2017-12-15T20:38:42Z</time>
      </trkpt>
      <trkpt lat="44.75984" lon="5.88514">
        <ele>936.6</ele>
        <time>2017-12-15T20:38:57Z</time>
      </trkpt>
      <trkpt lat="44.76014" lon="5.8852">
        <ele>938.7</ele>
        <time>2017-12-15T20:39:01Z</time>
      </trkpt>
      <trkpt lat="44.76041" lon="5.88531">
        <ele>938.5</ele>
        <time>2017-12-15T20:39:12Z</time>
      </trkpt>
      <trkpt lat="44.76054" lon="5.88535">
        <ele>939.8</ele>
        <time>2017-12-15T20:39:15Z</time>
      </trkpt>
      <trkpt lat="44.7607" lon="5.88535">
        <ele>946.1</ele>
        <time>2017-12-15T20:39:30Z</time>
      </trkpt>
      <trkpt lat="44.76076" lon="5.88537">
        <ele>947.9</ele>
        <time>2017-12-15T20:39:42Z</time>
      </trkpt>
      <trkpt lat="44.76084" lon="5.88544">
        <ele>949.1</ele>
        <time>2017-12-15T20:39:58Z</time>
      </trkpt>
      <trkpt lat="44.76089" lon="5.8855">
        <ele>950.2</ele>
        <time>2017-12-15T20:40:05Z</time>
      </trkpt>
      <trkpt lat="44.76104" lon="5.88607">
        <ele>945.8</ele>
        <time>2017-12-15T20:40:20Z</time>
      </trkpt>
      <trkpt lat="44.76114" lon="5.88629">
        <ele>947.4</ele>
        <time>2017-12-15T20:40:24Z</time>
      </trkpt>
      <trkpt lat="44.76135" lon="5.88656">
        <ele>952.2</ele>
        <time>2017-12-15T20:40:37Z</time>
      </trkpt>
      <trkpt lat="44.76172" lon="5.88703">
        <ele>952.8</ele>
        <time>2017-12-15T20:40:51Z</time>
      </trkpt>
      <trkpt lat="44.76195" lon="5.88719">
        <ele>959.2</ele>
        <time>2017-12-15T20:41:09Z</time>
      </trkpt>
      <trkpt lat="44.762" lon="5.88725">
        <ele>960.1</ele>
        <time>2017-12-15T20:41:15Z</time>
      </trkpt>
      <trkpt lat="44.76212" lon="5.8877">
        <ele>958.7</ele>
        <time>2017-12-15T20:41:19Z</time>
      </trkpt>
      <trkpt lat="44.76224" lon="5.88804">
        <ele>961.3</ele>
        <time>2017-12-15T20:41:34Z</time>
      </trkpt>
      <trkpt lat="44.7623" lon="5.88833">
        <ele>959.3</ele>
        <time>2017-12-15T20:41:52Z</time>
      </trkpt>
      <trkpt lat="44.76236" lon="5.88864">
        <ele>954</ele>
        <time>2017-12-15T20:42:08Z</time>
      </trkpt>
      <trkpt lat="44.76247" lon="5.88884">
        <ele>951.6</ele>
        <time>2017-12-15T20:42:20Z</time>
      </trkpt>
      <trkpt lat="44.76271" lon="5.88897">
        <ele>955</ele>
        <time>2017-12-15T20:42:39Z</time>
      </trkpt>
      <trkpt lat="44.76309" lon="5.88923">
        <ele>955.7</ele>
        <time>2017-12-15T20:42:41Z</time>
      </trkpt>
      <trkpt lat="44.76345" lon="5.88948">
        <ele>960.5</ele>
        <time>2017-12-15T20:42:57Z</time>
      </trkpt>
      <trkpt lat="44.76368" lon="5.88972">
        <ele>964</ele>
        <time>2017-12-15T20:43:12Z</time>
      </trkpt>
      <trkpt lat="44.76382" lon="5.88998">
        <ele>963.4</ele>
        <time>2017-12-15T20:43:28Z</time>
      </trkpt>
      <trkpt lat="44.76398" lon="5.89041">
        <ele>959.3</ele>
        <time>2017-12-15T20:43:32Z</time>
      </trkpt>
      <trkpt lat="44.76408" lon="5.89056">
        <ele>960.5</ele>
        <time>2017-12-15T20:43:34Z</time>
      </trkpt>
      <trkpt lat="44.76441" lon="5.89096">
        <ele>964.5</ele>
        <time>2017-12-15T20:43:42Z</time>
      </trkpt>
      <trkpt lat="44.76483" lon="5.89131">
        <ele>973.5</ele>
        <time>2017-12-15T20:43:54Z</time>
      </trkpt>
      <trkpt lat="44.76498" lon="5.89147">
        <ele>975.6</ele>
        <time>2017-12-15T20:44:02Z</time>
      </trkpt>
      <trkpt lat="44.76526" lon="5.89182">
        <ele>976.9</ele>
        <time>2017-12-15T20:44:20Z</time>
      </trkpt>
      <trkpt lat="44.76547" lon="5.89209">
        <ele>978.2</ele>
        <time>2017-12-15T20:44:28Z</time>
      </trkpt>
      <trkpt lat="44.76581" lon="5.89259">
        <ele>979.2</ele>
        <time>2017-12-15T20:44:31Z</time>
      </trkpt>
      <trkpt lat="44.76594" lon="5.89271">
        <ele>979.6</ele>
        <time>2017-12-15T20:44:49Z</time>
      </trkpt>
      <trkpt lat="44.76638" lon="5.89297">
        <ele>985.3</ele>
        <time>2017-12-15T20:44:56Z</time>
      </trkpt>
      <trkpt lat="44.7666" lon="5.89314">
        <ele>987.4</ele>
        <time>2017-12-15T20:45:07Z</time>
      </trkpt>
      <trkpt lat="44.76681" lon="5.89335">
        <ele>990.2</ele>
        <time>2017-12-15T20:45:21Z</time>
      </trkpt>
      <trkpt lat="44.76729" lon="5.89388">
        <ele>987.9</ele>
        <time>2017-12-15T20:45:25Z</time>
      </trkpt>
      <trkpt lat="44.76742" lon="5.89395">
        <ele>987</ele>
        <time>2017-12-15T20:45:27Z</time>
      </trkpt>
      <trkpt lat="44.76751" lon="5.89396">
        <ele>988.3</ele>
        <time>2017-12-15T20:45:46Z</time>
      </trkpt>
      <trkpt lat="44.76805" lon="5.89402">
        <ele>989.4</ele>
        <time>2017-12-15T20:46:01Z</time>
      </trkpt>
      <trkpt lat="44.76857" lon="5.89416">
        <ele>984.3</ele>
        <time>2017-12-15T20:46:16Z</time>
      </trkpt>
      <trkpt lat="44.7687" lon="5.89417">
        <ele>983.5</ele>
        <time>2017-12-15T20:46:34Z</time>
      </trkpt>
      <trkpt lat="44.76876" lon="5.89415">
        <ele>984.2</ele>
        <time>2017-12-15T20:46:40Z</time>
      </trkpt>
      <trkpt lat="44.76896" lon="5.89402">
        <ele>990.1</ele>
        <time>2017-12-15T20:46:43Z</time>
      </trkpt>
      <trkpt lat="44.76904" lon="5.89398">
        <ele>992.7</ele>
        <time>2017-12-15T20:46:59Z</time>
      </trkpt>
      <trkpt lat="44.76907" lon="5.89398">
        <ele>993.2</ele>
        <time>2017-12-15T20:47:08Z</time>
      </trkpt>
      <trkpt lat="44.76918" lon="5.89406">
        <ele>993</ele>
        <time>2017-12-15T20:47:16Z</time>
      </trkpt>
      <trkpt lat="44.76919" lon="5.89409">
        <ele>992.5</ele>
        <time>2017-12-15T20:47:24Z</time>
      </trkpt>
      <trkpt lat="44.76928" lon="5.89439">
        <ele>989.6</ele>
        <time>2017-12-15T20:47:32Z</time>
      </trkpt>
      <trkpt lat="44.76935" lon="5.89516">
        <ele>982.9</ele>
        <time>2017-12-15T20:47:42Z</time>
      </trkpt>
      <trkpt lat="44.7694" lon="5.89552">
        <ele>982</ele>
        <time>2017-12-15T20:47:49Z</time>
      </trkpt>
      <trkpt lat="44.76951" lon="5.89567">
        <ele>983</ele>
        <time>2017-12-15T20:48:09Z</time>
      </trkpt>
      <trkpt lat="44.76995" lon="5.896">
        <ele>982.3</ele>
        <time>2017-12-15T20:48:24Z</time>
      </trkpt>
      <trkpt lat="44.77012" lon="5.89623">
        <ele>982.4</ele>
        <time>2017-12-15T20:48:29Z</time>
      </trkpt>
      <trkpt lat="44.77023" lon="5.89644">
        <ele>982.1</ele>
        <time>2017-12-15T20:48:36Z</time>
      </trkpt>
      <trkpt lat="44.77046" lon="5.89723">
        <ele>982.3</ele>
        <time>2017-12-15T20:48:48Z</time>
      </trkpt>
      <trkpt lat="44.77048" lon="5.89759">
        <ele>985.2</ele>
        <time>2017-12-15T20:48:54Z</time>
      </trkpt>
      <trkpt lat="44.77041" lon="5.89786">
        <ele>985.8</ele>
        <time>2017-12-15T20:48:58Z</time>
      </trkpt>
      <trkpt lat="44.77028" lon="5.89818">
        <ele>979.2</ele>
        <time>2017-12-15T20:49:15Z</time>
      </trkpt>
      <trkpt lat="44.77025" lon="5.89842">
        <ele>974</ele>
        <time>2017-12-15T20:49:33Z</time>
      </trkpt>
      <trkpt lat="44.77028" lon="5.89856">
        <ele>973.3</ele>
        <time>2017-12-15T20:49:37Z</time>
      </trkpt>
      <trkpt lat="44.77035" lon="5.8987">
        <ele>972.2</ele>
        <time>2017-12-15T20:49:47Z</time>
      </trkpt>
      <trkpt lat="44.77059" lon="5.89894">
        <ele>975.3</ele>
        <time>2017-12-15T20:49:52Z</time>
      </trkpt>
      <trkpt lat="44.77114" lon="5.89937">
        <ele>978.2</ele>
        <time>2017-12-15T20:49:54Z</time>
      </trkpt>
      <trkpt lat="44.77131" lon="5.89951">
        <ele>975.7</ele>
        <time>2017-12-15T20:50:04Z</time>
      </trkpt>
      <trkpt lat="44.77143" lon="5.89958">
        <ele>975.3</ele>
        <time>2017-12-15T20:50:10Z</time>
      </trkpt>
      <trkpt lat="44.77156" lon="5.89961">
        <ele>974.7</ele>
        <time>2017-12-15T20:50:25Z</time>
      </trkpt>
      <trkpt lat="44.7717" lon="5.8996">
        <ele>974.9</ele>
        <time>2017-12-15T20:50:31Z</time>
      </trkpt>
      <trkpt lat="44.77183" lon="5.89953">
        <ele>974.4</ele>
        <time>2017-12-15T20:50:40Z</time>
      </trkpt>
      <trkpt lat="44.77195" lon="5.89943">
        <ele>974.2</ele>
        <time>2017-12-15T20:50:51Z</time>
      </trkpt>
      <trkpt lat="44.77234" lon="5.89899">
        <ele>974.1</ele>
        <time>2017-12-15T20:51:00Z</time>
      </trkpt>
      <trkpt lat="44.77249" lon="5.89886">
        <ele>973.6</ele>
        <time>2017-12-15T20:51:12Z</time>
      </trkpt>
      <trkpt lat="44.77265" lon="5.89874">
        <ele>973.5</ele>
        <time>2017-12-15T20:51:16Z</time>
      </trkpt>
      <trkpt lat="44.77282" lon="5.89866">
        <ele>973.1</ele>
        <time>2017-12-15T20:51:29Z</time>
      </trkpt>
      <trkpt lat="44.773" lon="5.89862">
        <ele>973</ele>
        <time>2017-12-15T20:51:42Z</time>
      </trkpt>
      <trkpt lat="44.77317" lon="5.89859">
        <ele>973</ele>
        <time>2017-12-15T20:51:47Z</time>
      </trkpt>
      <trkpt lat="44.77341" lon="5.89859">
        <ele>972.4</ele>
        <time>2017-12-15T20:51:54Z</time>
      </trkpt>
      <trkpt lat="44.77355" lon="5.89863">
        <ele>971.7</ele>
        <time>2017-12-15T20:51:57Z</time>
      </trkpt>
      <trkpt lat="44.77375" lon="5.89871">
        <ele>969.1</ele>
        <time>2017-12-15T20:52:07Z</time>
      </trkpt>
      <trkpt lat="44.77393" lon="5.89876">
        <ele>966</ele>
        <time>2017-12-15T20:52:13Z</time>
      </trkpt>
      <trkpt lat="44.7741" lon="5.89875">
        <ele>962.4</ele>
        <time>2017-12-15T20:52:25Z</time>
      </trkpt>
      <trkpt lat="44.77421" lon="5.8987">
        <ele>960.9</ele>
        <time>2017-12-15T20:52:34Z</time>
      </trkpt>
      <trkpt lat="44.77431" lon="5.89861">
        <ele>960.4</ele>
        <time>2017-12-15T20:52:40Z</time>
      </trkpt>
      <trkpt lat="44.77447" lon="5.89834">
        <ele>962.2</ele>
        <time>2017-12-15T20:52:55Z</time>
      </trkpt>
      <trkpt lat="44.77463" lon="5.89791">
        <ele>969.7</ele>
        <time>2017-12-15T20:53:12Z</time>
      </trkpt>
      <trkpt lat="44.77471" lon="5.89786">
        <ele>969.8</ele>
        <time>2017-12-15T20:53:15Z</time>
      </trkpt>
      <trkpt lat="44.77478" lon="5.89785">
        <ele>969.9</ele>
        <time>2017-12-15T20:53:20Z</time>
      </trkpt>
      <trkpt lat="44.775" lon="5.89796">
        <ele>965.1</ele>
        <time>2017-12-15T20:53:35Z</time>
      </trkpt>
      <trkpt lat="44.77513" lon="5.89796">
        <ele>964.8</ele>
        <time>2017-12-15T20:53:50Z</time>
      </trkpt>
      <trkpt lat="44.7754" lon="5.8979">
        <ele>967.2</ele>
        <time>2017-12-15T20:54:02Z</time>
      </trkpt>
      <trkpt lat="44.77561" lon="5.8979">
        <ele>966.2</ele>
        <time>2017-12-15T20:54:17Z</time>
      </trkpt>
      <trkpt lat="44.77576" lon="5.89798">
        <ele>963.9</ele>
        <time>2017-12-15T20:54:29Z</time>
      </trkpt>
      <trkpt lat="44.77593" lon="5.89814">
        <ele>961.7</ele>
        <time>2017-12-15T20:54:43Z</time>
      </trkpt>
      <trkpt lat="44.77612" lon="5.89838">
        <ele>962.5</ele>
        <time>2017-12-15T20:54:54Z</time>
      </trkpt>
      <trkpt lat="44.77619" lon="5.89854">
        <ele>965.5</ele>
        <time>2017-12-15T20:55:14Z</time>
      </trkpt>
      <trkpt lat="44.77621" lon="5.89869">
        <ele>969.3</ele>
        <time>2017-12-15T20:55:28Z</time>
      </trkpt>
      <trkpt lat="44.77616" lon="5.89882">
        <ele>971.7</ele>
        <time>2017-12-15T20:55:41Z</time>
      </trkpt>
      <trkpt lat="44.77609" lon="5.89892">
        <ele>972.4</ele>
        <time>2017-12-15T20:55:51Z</time>
      </trkpt>
      <trkpt lat="44.77601" lon="5.899">
        <ele>972.8</ele>
        <time>2017-12-15T20:56:09Z</time>
      </trkpt>
      <trkpt lat="44.7759" lon="5.89904">
        <ele>971.2</ele>
        <time>2017-12-15T20:56:12Z</time>
      </trkpt>
      <trkpt lat="44.77579" lon="5.89905">
        <ele>968.6</ele>
        <time>2017-12-15T20:56:25Z</time>
      </trkpt>
      <trkpt lat="44.77563" lon="5.89903">
        <ele>963.2</ele>
        <time>2017-12-15T20:56:36Z</time>
      </trkpt>
      <trkpt lat="44.77555" lon="5.89903">
        <ele>960.9</ele>
        <time>2017-12-15T20:56:39Z</time>
      </trkpt>
      <trkpt lat="44.77549" lon="5.89906">
        <ele>959.6</ele>
        <time>2017-12-15T20:56:50Z</time>
      </trkpt>
      <trkpt lat="44.77544" lon="5.89911">
        <ele>959.2</ele>
        <time>2017-12-15T20:56:54Z</time>
      </trkpt>
      <trkpt lat="44.77537" lon="5.89923">
        <ele>960</ele>
        <time>2017-12-15T20:56:58Z</time>
      </trkpt>
      <trkpt lat="44.77525" lon="5.89961">
        <ele>965.1</ele>
        <time>2017-12-15T20:57:04Z</time>
      </trkpt>
      <trkpt lat="44.77503" lon="5.90001">
        <ele>960.2</ele>
        <time>2017-12-15T20:57:16Z</time>
      </trkpt>
      <trkpt lat="44.77496" lon="5.90012">
        <ele>957.2</ele>
        <time>2017-12-15T20:57:24Z</time>
      </trkpt>
      <trkpt lat="44.77485" lon="5.90043">
        <ele>954.7</ele>
        <time>2017-12-15T20:57:26Z</time>
      </trkpt>
      <trkpt lat="44.77472" lon="5.90093">
        <ele>955.9</ele>
        <time>2017-12-15T20:57:37Z</time>
      </trkpt>
      <trkpt lat="44.77466" lon="5.90121">
        <ele>955.8</ele>
        <time>2017-12-15T20:57:39Z</time>
      </trkpt>
      <trkpt lat="44.77459" lon="5.90167">
        <ele>956.7</ele>
        <time>2017-12-15T20:57:53Z</time>
      </trkpt>
      <trkpt lat="44.77449" lon="5.90214">
        <ele>958.7</ele>
        <time>2017-12-15T20:58:08Z</time>
      </trkpt>
      <trkpt lat="44.77432" lon="5.90268">
        <ele>959.6</ele>
        <time>2017-12-15T20:58:26Z</time>
      </trkpt>
      <trkpt lat="44.77415" lon="5.90331">
        <ele>960.5</ele>
        <time>2017-12-15T20:58:31Z</time>
      </trkpt>
      <trkpt lat="44.774" lon="5.90375">
        <ele>961.4</ele>
        <time>2017-12-15T20:58:49Z</time>
      </trkpt>
      <trkpt lat="44.77397" lon="5.90396">
        <ele>961.9</ele>
        <time>2017-12-15T20:59:06Z</time>
      </trkpt>
      <trkpt lat="44.77404" lon="5.90446">
        <ele>962.4</ele>
        <time>2017-12-15T20:59:24Z</time>
      </trkpt>
      <trkpt lat="44.77426" lon="5.90549">
        <ele>960.8</ele>
        <time>2017-12-15T20:59:34Z</time>
      </trkpt>
      <trkpt lat="44.77433" lon="5.9059">
        <ele>960</ele>
        <time>2017-12-15T20:59:42Z</time>
      </trkpt>
      <trkpt lat="44.77436" lon="5.90622">
        <ele>959.9</ele>
        <time>2017-12-15T20:59:53Z</time>
      </trkpt>
      <trkpt lat="44.77437" lon="5.90661">
        <ele>958.7</ele>
        <time>2017-12-15T20:59:58Z</time>
      </trkpt>
      <trkpt lat="44.77444" lon="5.90679">
        <ele>957.8</ele>
        <time>2017-12-15T21:00:06Z</time>
      </trkpt>
      <trkpt lat="44.77452" lon="5.90687">
        <ele>956.2</ele>
        <time>2017-12-15T21:00:08Z</time>
      </trkpt>
      <trkpt lat="44.7746" lon="5.9069">
        <ele>955.6</ele>
        <time>2017-12-15T21:00:14Z</time>
      </trkpt>
      <trkpt lat="44.77473" lon="5.90688">
        <ele>957.6</ele>
        <time>2017-12-15T21:00:29Z</time>
      </trkpt>
      <trkpt lat="44.77493" lon="5.90677">
        <ele>959.9</ele>
        <time>2017-12-15T21:00:49Z</time>
      </trkpt>
      <trkpt lat="44.775" lon="5.90677">
        <ele>958.5</ele>
        <time>2017-12-15T21:01:06Z</time>
      </trkpt>
      <trkpt lat="44.77508" lon="5.90678">
        <ele>958.7</ele>
        <time>2017-12-15T21:01:24Z</time>
      </trkpt>
      <trkpt lat="44.77522" lon="5.90685">
        <ele>956.7</ele>
        <time>2017-12-15T21:01:31Z</time>
      </trkpt>
      <trkpt lat="44.77554" lon="5.90698">
        <ele>954.9</ele>
        <time>2017-12-15T21:01:48Z</time>
      </trkpt>
      <trkpt lat="44.77649" lon="5.90714">
        <ele>953.5</ele>
        <time>2017-12-15T21:02:05Z</time>
      </trkpt>
      <trkpt lat="44.77878" lon="5.90759">
        <ele>949.4</ele>
        <time>2017-12-15T21:02:11Z</time>
      </trkpt>
      <trkpt lat="44.78072" lon="5.90795">
        <ele>947</ele>
        <time>2017-12-15T21:02:24Z</time>
      </trkpt>
      <trkpt lat="44.78448" lon="5.90866">
        <ele>941</ele>
        <time>2017-12-15T21:02:38Z</time>
      </trkpt>
      <trkpt lat="44.78777" lon="5.90927">
        <ele>935</ele>
        <time>2017-12-15T21:02:58Z</time>
      </trkpt>
      <trkpt lat="44.79085" lon="5.90984">
        <ele>932.6</ele>
        <time>2017-12-15T21:03:00Z</time>
      </trkpt>
      <trkpt lat="44.79611" lon="5.91051">
        <ele>924.2</ele>
        <time>2017-12-15T21:03:20Z</time>
      </trkpt>
      <trkpt lat="44.79649" lon="5.91056">
        <ele>923.6</ele>
        <time>2017-12-15T21:03:34Z</time>
      </trkpt>
      <trkpt lat="44.79668" lon="5.90981">
        <ele>923.7</ele>
        <time>2017-12-15T21:03:49Z</time>
      </trkpt>
      <trkpt lat="44.79709" lon="5.90851">
        <ele>922.5</ele>
        <time>2017-12-15T21:03:53Z</time>
      </trkpt>
      <trkpt lat="44.79741" lon="5.90749">
        <ele>922.3</ele>
        <time>2017-12-15T21:04:10Z</time>
      </trkpt>
      <trkpt lat="44.79752" lon="5.90713">
        <ele>922.4</ele>
        <time>2017-12-15T21:04:14Z</time>
      </trkpt>
      <trkpt lat="44.79761" lon="5.90693">
        <ele>923.5</ele>
        <time>2017-12-15T21:04:16Z</time>
      </trkpt>
      <trkpt lat="44.79773" lon="5.90676">
        <ele>925.2</ele>
        <time>2017-12-15T21:04:32Z</time>
      </trkpt>
      <trkpt lat="44.79789" lon="5.90666">
        <ele>926.9</ele>
        <time>2017-12-15T21:04:51Z</time>
      </trkpt>
      <trkpt lat="44.79819" lon="5.90664">
        <ele>929.5</ele>
        <time>2017-12-15T21:05:09Z</time>
      </trkpt>
      <trkpt lat="44.79858" lon="5.90667">
        <ele>931.7</ele>
        <time>2017-12-15T21:05:12Z</time>
      </trkpt>
      <trkpt lat="44.79871" lon="5.90671">
        <ele>932.3</ele>
        <time>2017-12-15T21:05:24Z</time>
      </trkpt>
      <trkpt lat="44.79886" lon="5.9068">
        <ele>932.3</ele>
        <time>2017-12-15T21:05:26Z</time>
      </trkpt>
      <trkpt lat="44.79916" lon="5.90712">
        <ele>934.9</ele>
        <time>2017-12-15T21:05:30Z</time>
      </trkpt>
      <trkpt lat="44.79933" lon="5.90734">
        <ele>937.2</ele>
        <time>2017-12-15T21:05:44Z</time>
      </trkpt>
      <trkpt lat="44.79948" lon="5.90768">
        <ele>936.7</ele>
        <time>2017-12-15T21:05:54Z</time>
      </trkpt>
      <trkpt lat="44.79955" lon="5.90783">
        <ele>936.1</ele>
        <time>2017-12-15T21:06:03Z</time>
      </trkpt>
      <trkpt lat="44.79965" lon="5.90789">
        <ele>937.4</ele>
        <time>2017-12-15T21:06:17Z</time>
      </trkpt>
      <trkpt lat="44.7998" lon="5.90798">
        <ele>937.2</ele>
        <time>2017-12-15T21:06:29Z</time>
      </trkpt>
      <trkpt lat="44.79994" lon="5.90798">
        <ele>937.7</ele>
        <time>2017-12-15T21:06:46Z</time>
      </trkpt>
      <trkpt lat="44.80004" lon="5.90794">
        <ele>938.5</ele>
        <time>2017-12-15T21:06:55Z</time>
      </trkpt>
      <trkpt lat="44.8001" lon="5.90789">
        <ele>939.3</ele>
        <time>2017-12-15T21:07:01Z</time>
      </trkpt>
      <trkpt lat="44.80044" lon="5.90754">
        <ele>943.7</ele>
        <time>2017-12-15T21:07:09Z</time>
      </trkpt>
      <trkpt lat="44.8014" lon="5.90661">
        <ele>945.2</ele>
        <time>2017-12-15T21:07:25Z</time>
      </trkpt>
      <trkpt lat="44.80368" lon="5.90443">
        <ele>936.9</ele>
        <time>2017-12-15T21:07:44Z</time>
      </trkpt>
      <trkpt lat="44.80518" lon="5.90298">
        <ele>928.2</ele>
        <time>2017-12-15T21:08:01Z</time>
      </trkpt>
      <trkpt lat="44.80554" lon="5.90254">
        <ele>926.3</ele>
        <time>2017-12-15T21:08:10Z</time>
      </trkpt>
      <trkpt lat="44.80574" lon="5.9022">
        <ele>924.1</ele>
        <time>2017-12-15T21:08:27Z</time>
      </trkpt>
      <trkpt lat="44.8059" lon="5.90186">
        <ele>921.8</ele>
        <time>2017-12-15T21:08:45Z</time>
      </trkpt>
      <trkpt lat="44.8061" lon="5.90131">
        <ele>918.4</ele>
        <time>2017-12-15T21:08:55Z</time>
      </trkpt>
      <trkpt lat="44.80633" lon="5.90023">
        <ele>914.7</ele>
        <time>2017-12-15T21:09:07Z</time>
      </trkpt>
      <trkpt lat="44.80679" lon="5.89782">
        <ele>912</ele>
        <time>2017-12-15T21:09:21Z</time>
      </trkpt>
      <trkpt lat="44.80687" lon="5.89747">
        <ele>912</ele>
        <time>2017-12-15T21:09:26Z</time>
      </trkpt>
      <trkpt lat="44.80693" lon="5.89736">
        <ele>912</ele>
        <time>2017-12-15T21:09:41Z</time>
      </trkpt>
      <trkpt lat="44.80692" lon="5.89711">
        <ele>911.6</ele>
        <time>2017-12-15T21:09:46Z</time>
      </trkpt>
      <trkpt lat="44.80722" lon="5.89558">
        <ele>910</ele>
        <time>2017-12-15T21:09:49Z</time>
      </trkpt>
      <trkpt lat="44.80746" lon="5.89442">
        <ele>908.1</ele>
        <time>2017-12-15T21:09:57Z</time>
      </trkpt>
      <trkpt lat="44.80782" lon="5.89337">
        <ele>906.7</ele>
        <time>2017-12-15T21:09:59Z</time>
      </trkpt>
      <trkpt lat="44.80939" lon="5.88891">
        <ele>906.4</ele>
        <time>2017-12-15T21:10:12Z</time>
      </trkpt>
      <trkpt lat="44.81013" lon="5.88677">
        <ele>905.2</ele>
        <time>2017-12-15T21:10:29Z</time>
      </trkpt>
      <trkpt lat="44.81028" lon="5.88644">
        <ele>905.6</ele>
        <time>2017-12-15T21:10:32Z</time>
      </trkpt>
      <trkpt lat="44.81093" lon="5.88531">
        <ele>904.4</ele>
        <time>2017-12-15T21:10:39Z</time>
      </trkpt>
      <trkpt lat="44.81131" lon="5.88462">
        <ele>904.9</ele>
        <time>2017-12-15T21:10:57Z</time>
      </trkpt>
      <trkpt lat="44.81156" lon="5.88412">
        <ele>905.3</ele>
        <time>2017-12-15T21:11:04Z</time>
      </trkpt>
      <trkpt lat="44.81171" lon="5.88376">
        <ele>905.3</ele>
        <time>2017-12-15T21:11:18Z</time>
      </trkpt>
      <trkpt lat="44.81198" lon="5.88275">
        <ele>905.7</ele>
        <time>2017-12-15T21:11:29Z</time>
      </trkpt>
      <trkpt lat="44.81221" lon="5.88183">
        <ele>905</ele>
        <time>2017-12-15T21:11:42Z</time>
      </trkpt>
      <trkpt lat="44.81226" lon="5.88149">
        <ele>905.5</ele>
        <time>2017-12-15T21:11:46Z</time>
      </trkpt>
      <trkpt lat="44.81226" lon="5.88133">
        <ele>906.1</ele>
        <time>2017-12-15T21:11:55Z</time>
      </trkpt>
      <trkpt lat="44.81221" lon="5.88116">
        <ele>906.8</ele>
        <time>2017-12-15T21:12:12Z</time>
      </trkpt>
      <trkpt lat="44.81202" lon="5.88072">
        <ele>907.4</ele>
        <time>2017-12-15T21:12:16Z</time>
      </trkpt>
      <trkpt lat="44.81157" lon="5.87972">
        <ele>905.3</ele>
        <time>2017-12-15T21:12:32Z</time>
      </trkpt>
      <trkpt lat="44.8111" lon="5.87877">
        <ele>907.3</ele>
        <time>2017-12-15T21:12:41Z</time>
      </trkpt>
      <trkpt lat="44.81087" lon="5.87829">
        <ele>911.6</ele>
        <time>2017-12-15T21:12:49Z</time>
      </trkpt>
      <trkpt lat="44.81081" lon="5.87805">
        <ele>911.7</ele>
        <time>2017-12-15T21:13:03Z</time>
      </trkpt>
      <trkpt lat="44.8108" lon="5.87781">
        <ele>910.3</ele>
        <time>2017-12-15T21:13:21Z</time>
      </trkpt>
      <trkpt lat="44.81087" lon="5.87704">
        <ele>901.3</ele>
        <time>2017-12-15T21:13:28Z</time>
      </trkpt>
      <trkpt lat="44.81092" lon="5.87647">
        <ele>897</ele>
        <time>2017-12-15T21:13:43Z</time>
      </trkpt>
      <trkpt lat="44.81092" lon="5.87614">
        <ele>896.7</ele>
        <time>2017-12-15T21:13:51Z</time>
      </trkpt>
      <trkpt lat="44.81086" lon="5.87574">
        <ele>900.1</ele>
        <time>2017-12-15T21:13:54Z</time>
      </trkpt>
      <trkpt lat="44.81086" lon="5.87539">
        <ele>901.4</ele>
        <time>2017-12-15T21:14:07Z</time>
      </trkpt>
      <trkpt lat="44.81085" lon="5.87395">
        <ele>901.2</ele>
        <time>2017-12-15T21:14:17Z</time>
      </trkpt>
      <trkpt lat="44.81081" lon="5.87291">
        <ele>892</ele>
        <time>2017-12-15T21:14:20Z</time>
      </trkpt>
      <trkpt lat="44.81075" lon="5.87274">
        <ele>891.1</ele>
        <time>2017-12-15T21:14:38Z</time>
      </trkpt>
      <trkpt lat="44.81057" lon="5.87249">
        <ele>892.9</ele>
        <time>2017-12-15T21:14:53Z</time>
      </trkpt>
      <trkpt lat="44.8103" lon="5.87225">
        <ele>896.8</ele>
        <time>2017-12-15T21:14:59Z</time>
      </trkpt>
      <trkpt lat="44.81003" lon="5.87207">
        <ele>900</ele>
        <time>2017-12-15T21:15:05Z</time>
      </trkpt>
      <trkpt lat="44.80981" lon="5.87182">
        <ele>898.7</ele>
        <time>2017-12-15T21:15:24Z</time>
      </trkpt>
      <trkpt lat="44.80937" lon="5.87115">
        <ele>888.5</ele>
        <time>2017-12-15T21:15:30Z</time>
      </trkpt>
      <trkpt lat="44.80925" lon="5.87098">
        <ele>885.9</ele>
        <time>2017-12-15T21:15:40Z</time>
      </trkpt>
      <trkpt lat="44.80902" lon="5.87076">
        <ele>883.8</ele>
        <time>2017-12-15T21:15:50Z</time>
      </trkpt>
      <trkpt lat="44.80872" lon="5.87047">
        <ele>878.3</ele>
        <time>2017-12-15T21:16:07Z</time>
      </trkpt>
      <trkpt lat="44.80856" lon="5.87037">
        <ele>877.7</ele>
        <time>2017-12-15T21:16:13Z</time>
      </trkpt>
      <trkpt lat="44.80842" lon="5.87035">
        <ele>878.9</ele>
        <time>2017-12-15T21:16:31Z</time>
      </trkpt>
      <trkpt lat="44.80801" lon="5.87036">
        <ele>882.8</ele>
        <time>2017-12-15T21:16:45Z</time>
      </trkpt>
      <trkpt lat="44.80731" lon="5.87034">
        <ele>878.2</ele>
        <time>2017-12-15T21:16:53Z</time>
      </trkpt>
      <trkpt lat="44.80704" lon="5.87027">
        <ele>878.1</ele>
        <time>2017-12-15T21:17:05Z</time>
      </trkpt>
      <trkpt lat="44.80688" lon="5.87015">
        <ele>877.5</ele>
        <time>2017-12-15T21:17:13Z</time>
      </trkpt>
      <trkpt lat="44.80679" lon="5.87005">
        <ele>876.5</ele>
        <time>2017-12-15T21:17:26Z</time>
      </trkpt>
      <trkpt lat="44.80673" lon="5.86992">
        <ele>875.2</ele>
        <time>2017-12-15T21:17:28Z</time>
      </trkpt>
      <trkpt lat="44.80673" lon="5.86978">
        <ele>873</ele>
        <time>2017-12-15T21:17:37Z</time>
      </trkpt>
      <trkpt lat="44.80675" lon="5.8697">
        <ele>872.2</ele>
        <time>2017-12-15T21:17:46Z</time>
      </trkpt>
      <trkpt lat="44.80681" lon="5.86961">
        <ele>873</ele>
        <time>2017-12-15T21:17:53Z</time>
      </trkpt>
      <trkpt lat="44.80692" lon="5.86954">
        <ele>873.2</ele>
        <time>2017-12-15T21:18:07Z</time>
      </trkpt>
      <trkpt lat="44.80752" lon="5.86946">
        <ele>875.5</ele>
        <time>2017-12-15T21:18:26Z</time>
      </trkpt>
      <trkpt lat="44.80765" lon="5.86942">
        <ele>876.6</ele>
        <time>2017-12-15T21:18:41Z</time>
      </trkpt>
      <trkpt lat="44.80789" lon="5.86917">
        <ele>885.6</ele>
        <time>2017-12-15T21:18:57Z</time>
      </trkpt>
      <trkpt lat="44.808" lon="5.86909">
        <ele>887.9</ele>
        <time>2017-12-15T21:18:59Z</time>
      </trkpt>
      <trkpt lat="44.80816" lon="5.86902">
        <ele>889.2</ele>
        <time>2017-12-15T21:19:07Z</time>
      </trkpt>
      <trkpt lat="44.8086" lon="5.86897">
        <ele>886.3</ele>
        <time>2017-12-15T21:19:16Z</time>
      </trkpt>
      <trkpt lat="44.80884" lon="5.86889">
        <ele>887.5</ele>
        <time>2017-12-15T21:19:35Z</time>
      </trkpt>
      <trkpt lat="44.80929" lon="5.86854">
        <ele>900.3</ele>
        <time>2017-12-15T21:19:51Z</time>
      </trkpt>
      <trkpt lat="44.80948" lon="5.86849">
        <ele>901.2</ele>
        <time>2017-12-15T21:20:09Z</time>
      </trkpt>
      <trkpt lat="44.80972" lon="5.86858">
        <ele>897.4</ele>
        <time>2017-12-15T21:20:19Z</time>
      </trkpt>
      <trkpt lat="44.81016" lon="5.86869">
        <ele>900</ele>
        <time>2017-12-15T21:20:25Z</time>
      </trkpt>
      <trkpt lat="44.8104" lon="5.86877">
        <ele>902</ele>
        <time>2017-12-15T21:20:42Z</time>
      </trkpt>
      <trkpt lat="44.8108" lon="5.86883">
        <ele>908.8</ele>
        <time>2017-12-15T21:20:52Z</time>
      </trkpt>
      <trkpt lat="44.81118" lon="5.86897">
        <ele>912</ele>
        <time>2017-12-15T21:21:03Z</time>
      </trkpt>
      <trkpt lat="44.81143" lon="5.86902">
        <ele>915.6</ele>
        <time>2017-12-15T21:21:18Z</time>
      </trkpt>
      <trkpt lat="44.8116" lon="5.8691">
        <ele>917.5</ele>
        <time>2017-12-15T21:21:32Z</time>
      </trkpt>
      <trkpt lat="44.81174" lon="5.86934">
        <ele>916.2</ele>
        <time>2017-12-15T21:21:39Z</time>
      </trkpt>
      <trkpt lat="44.81191" lon="5.86969">
        <ele>915.2</ele>
        <time>2017-12-15T21:21:56Z</time>
      </trkpt>
      <trkpt lat="44.812" lon="5.86973">
        <ele>916.6</ele>
        <time>2017-12-15T21:22:05Z</time>
      </trkpt>
      <trkpt lat="44.81217" lon="5.86973">
        <ele>919.1</ele>
        <time>2017-12-15T21:22:19Z</time>
      </trkpt>
      <trkpt lat="44.81232" lon="5.86968">
        <ele>920.3</ele>
        <time>2017-12-15T21:22:25Z</time>
      </trkpt>
      <trkpt lat="44.81365" lon="5.86903">
        <ele>918.4</ele>
        <time>2017-12-15T21:22:41Z</time>
      </trkpt>
      <trkpt lat="44.81701" lon="5.86738">
        <ele>906.1</ele>
        <time>2017-12-15T21:22:49Z</time>
      </trkpt>
      <trkpt lat="44.81718" lon="5.8672">
        <ele>905.2</ele>
        <time>2017-12-15T21:23:07Z</time>
      </trkpt>
      <trkpt lat="44.81731" lon="5.86693">
        <ele>904.4</ele>
        <time>2017-12-15T21:23:10Z</time>
      </trkpt>
      <trkpt lat="44.81735" lon="5.86665">
        <ele>904</ele>
        <time>2017-12-15T21:23:21Z</time>
      </trkpt>
      <trkpt lat="44.81732" lon="5.86646">
        <ele>903.6</ele>
        <time>2017-12-15T21:23:28Z</time>
      </trkpt>
      <trkpt lat="44.81727" lon="5.86636">
        <ele>903.1</ele>
        <time>2017-12-15T21:23:46Z</time>
      </trkpt>
      <trkpt lat="44.81721" lon="5.8663">
        <ele>902.5</ele>
        <time>2017-12-15T21:23:58Z</time>
      </trkpt>
      <trkpt lat="44.81606" lon="5.86569">
        <ele>901.2</ele>
        <time>2017-12-15T21:24:01Z</time>
      </trkpt>
      <trkpt lat="44.81588" lon="5.86554">
        <ele>899.9</ele>
        <time>2017-12-15T21:24:17Z</time>
      </trkpt>
      <trkpt lat="44.81548" lon="5.86526">
        <ele>899.1</ele>
        <time>2017-12-15T21:24:30Z</time>
      </trkpt>
      <trkpt lat="44.81522" lon="5.86524">
        <ele>899.4</ele>
        <time>2017-12-15T21:24:39Z</time>
      </trkpt>
      <trkpt lat="44.8147" lon="5.86547">
        <ele>898.1</ele>
        <time>2017-12-15T21:24:53Z</time>
      </trkpt>
      <trkpt lat="44.81438" lon="5.86554">
        <ele>894.2</ele>
        <time>2017-12-15T21:25:02Z</time>
      </trkpt>
      <trkpt lat="44.81382" lon="5.86559">
        <ele>888.8</ele>
        <time>2017-12-15T21:25:13Z</time>
      </trkpt>
      <trkpt lat="44.81352" lon="5.8656">
        <ele>887.2</ele>
        <time>2017-12-15T21:25:29Z</time>
      </trkpt>
      <trkpt lat="44.81335" lon="5.86557">
        <ele>885.5</ele>
        <time>2017-12-15T21:25:43Z</time>
      </trkpt>
      <trkpt lat="44.81319" lon="5.86552">
        <ele>883.5</ele>
        <time>2017-12-15T21:25:54Z</time>
      </trkpt>
      <trkpt lat="44.81294" lon="5.86537">
        <ele>879.9</ele>
        <time>2017-12-15T21:26:11Z</time>
      </trkpt>
      <trkpt lat="44.81241" lon="5.86494">
        <ele>875.5</ele>
        <time>2017-12-15T21:26:23Z</time>
      </trkpt>
      <trkpt lat="44.8122" lon="5.86484">
        <ele>874.9</ele>
        <time>2017-12-15T21:26:39Z</time>
      </trkpt>
      <trkpt lat="44.81211" lon="5.86472">
        <ele>873.2</ele>
        <time>2017-12-15T21:26:51Z</time>
      </trkpt>
      <trkpt lat="44.81207" lon="5.86457">
        <ele>870.9</ele>
        <time>2017-12-15T21:26:58Z</time>
      </trkpt>
      <trkpt lat="44.81207" lon="5.86436">
        <ele>869</ele>
        <time>2017-12-15T21:27:10Z</time>
      </trkpt>
      <trkpt lat="44.8121" lon="5.8641">
        <ele>871.2</ele>
        <time>2017-12-15T21:27:28Z</time>
      </trkpt>
      <trkpt lat="44.81217" lon="5.86401">
        <ele>872.3</ele>
        <time>2017-12-15T21:27:47Z</time>
      </trkpt>
      <trkpt lat="44.81241" lon="5.8638">
        <ele>874.5</ele>
        <time>2017-12-15T21:27:52Z</time>
      </trkpt>
      <trkpt lat="44.81269" lon="5.86349">
        <ele>877.8</ele>
        <time>2017-12-15T21:27:55Z</time>
      </trkpt>
      <trkpt lat="44.81282" lon="5.86318">
        <ele>881.8</ele>
        <time>2017-12-15T21:27:58Z</time>
      </trkpt>
      <trkpt lat="44.81302" lon="5.86261">
        <ele>887.3</ele>
        <time>2017-12-15T21:28:01Z</time>
      </trkpt>
      <trkpt lat="44.81319" lon="5.86223">
        <ele>890.4</ele>
        <time>2017-12-15T21:28:21Z</time>
      </trkpt>
      <trkpt lat="44.81332" lon="5.86205">
        <ele>892.2</ele>
        <time>2017-12-15T21:28:31Z</time>
      </trkpt>
      <trkpt lat="44.81363" lon="5.86182">
        <ele>894.7</ele>
        <time>2017-12-15T21:28:47Z</time>
      </trkpt>
      <trkpt lat="44.8142" lon="5.8614">
        <ele>900.8</ele>
        <time>2017-12-15T21:29:04Z</time>
      </trkpt>
      <trkpt lat="44.81438" lon="5.86128">
        <ele>902.7</ele>
        <time>2017-12-15T21:29:10Z</time>
      </trkpt>
      <trkpt lat="44.81452" lon="5.86123">
        <ele>903.8</ele>
        <time>2017-12-15T21:29:28Z</time>
      </trkpt>
      <trkpt lat="44.81493" lon="5.86122">
        <ele>906.9</ele>
        <time>2017-12-15T21:29:38Z</time>
      </trkpt>
      <trkpt lat="44.81516" lon="5.86123">
        <ele>908.7</ele>
        <time>2017-12-15T21:29:57Z</time>
      </trkpt>
      <trkpt lat="44.81545" lon="5.86116">
        <ele>911.1</ele>
        <time>2017-12-15T21:30:13Z</time>
      </trkpt>
      <trkpt lat="44.81593" lon="5.86088">
        <ele>916</ele>
        <time>2017-12-15T21:30:22Z</time>
      </trkpt>
      <trkpt lat="44.8162" lon="5.86049">
        <ele>919.6</ele>
        <time>2017-12-15T21:30:42Z</time>
      </trkpt>
      <trkpt lat="44.8166" lon="5.85979">
        <ele>926.1</ele>
        <time>2017-12-15T21:30:53Z</time>
      </trkpt>
      <trkpt lat="44.81672" lon="5.85943">
        <ele>931.5</ele>
        <time>2017-12-15T21:31:08Z</time>
      </trkpt>
      <trkpt lat="44.81679" lon="5.85911">
        <ele>935.8</ele>
        <time>2017-12-15T21:31:13Z</time>
      </trkpt>
      <trkpt lat="44.81686" lon="5.85905">
        <ele>937.2</ele>
        <time>2017-12-15T21:31:17Z</time>
      </trkpt>
      <trkpt lat="44.8169" lon="5.85905">
        <ele>937.4</ele>
        <time>2017-12-15T21:31:31Z</time>
      </trkpt>
      <trkpt lat="44.81704" lon="5.8592">
        <ele>937.7</ele>
        <time>2017-12-15T21:31:35Z</time>
      </trkpt>
      <trkpt lat="44.81715" lon="5.85941">
        <ele>937.2</ele>
        <time>2017-12-15T21:31:46Z</time>
      </trkpt>
      <trkpt lat="44.8174" lon="5.85973">
        <ele>937.4</ele>
        <time>2017-12-15T21:31:55Z</time>
      </trkpt>
      <trkpt lat="44.81752" lon="5.85989">
        <ele>938</ele>
        <time>2017-12-15T21:32:08Z</time>
      </trkpt>
      <trkpt lat="44.81777" lon="5.86015">
        <ele>939.1</ele>
        <time>2017-12-15T21:32:16Z</time>
      </trkpt>
      <trkpt lat="44.81794" lon="5.86027">
        <ele>940.7</ele>
        <time>2017-12-15T21:32:28Z</time>
      </trkpt>
      <trkpt lat="44.8183" lon="5.86034">
        <ele>944.5</ele>
        <time>2017-12-15T21:32:32Z</time>
      </trkpt>
      <trkpt lat="44.81843" lon="5.86041">
        <ele>944.6</ele>
        <time>2017-12-15T21:32:43Z</time>
      </trkpt>
      <trkpt lat="44.81866" lon="5.86067">
        <ele>944</ele>
        <time>2017-12-15T21:33:03Z</time>
      </trkpt>
      <trkpt lat="44.81875" lon="5.86071">
        <ele>944.1</ele>
        <time>2017-12-15T21:33:16Z</time>
      </trkpt>
      <trkpt lat="44.81883" lon="5.86069">
        <ele>944.7</ele>
        <time>2017-12-15T21:33:28Z</time>
      </trkpt>
      <trkpt lat="44.81892" lon="5.86063">
        <ele>945</ele>
        <time>2017-12-15T21:33:31Z</time>
      </trkpt>
      <trkpt lat="44.81904" lon="5.86045">
        <ele>944.4</ele>
        <time>2017-12-15T21:33:41Z</time>
      </trkpt>
      <trkpt lat="44.81914" lon="5.86016">
        <ele>945.2</ele>
        <time>2017-12-15T21:33:59Z</time>
      </trkpt>
      <trkpt lat="44.81923" lon="5.85915">
        <ele>949.5</ele>
        <time>2017-12-15T21:34:07Z</time>
      </trkpt>
      <trkpt lat="44.81931" lon="5.8586">
        <ele>951.5</ele>
        <time>2017-12-15T21:34:12Z</time>
      </trkpt>
      <trkpt lat="44.81943" lon="5.8582">
        <ele>951.3</ele>
        <time>2017-12-15T21:34:15Z</time>
      </trkpt>
      <trkpt lat="44.81968" lon="5.85759">
        <ele>947.7</ele>
        <time>2017-12-15T21:34:22Z</time>
      </trkpt>
      <trkpt lat="44.81976" lon="5.85733">
        <ele>946.5</ele>
        <time>2017-12-15T21:34:25Z</time>
      </trkpt>
      <trkpt lat="44.8198" lon="5.85695">
        <ele>946.7</ele>
        <time>2017-12-15T21:34:27Z</time>
      </trkpt>
      <trkpt lat="44.81982" lon="5.85683">
        <ele>946.7</ele>
        <time>2017-12-15T21:34:29Z</time>
      </trkpt>
      <trkpt lat="44.81989" lon="5.85656">
        <ele>946.5</ele>
        <time>2017-12-15T21:34:40Z</time>
      </trkpt>
      <trkpt lat="44.81997" lon="5.8564">
        <ele>945.7</ele>
        <time>2017-12-15T21:34:57Z</time>
      </trkpt>
      <trkpt lat="44.82013" lon="5.85623">
        <ele>943.9</ele>
        <time>2017-12-15T21:35:03Z</time>
      </trkpt>
      <trkpt lat="44.82023" lon="5.85617">
        <ele>942.4</ele>
        <time>2017-12-15T21:35:07Z</time>
      </trkpt>
      <trkpt lat="44.82041" lon="5.85602">
        <ele>940.3</ele>
        <time>2017-12-15T21:35:26Z</time>
      </trkpt>
      <trkpt lat="44.82064" lon="5.85573">
        <ele>939</ele>
        <time>2017-12-15T21:35:39Z</time>
      </trkpt>
      <trkpt lat="44.8209" lon="5.85525">
        <ele>938.1</ele>
        <time>2017-12-15T21:35:59Z</time>
      </trkpt>
      <trkpt lat="44.82104" lon="5.85489">
        <ele>939.2</ele>
        <time>2017-12-15T21:36:01Z</time>
      </trkpt>
      <trkpt lat="44.82119" lon="5.85429">
        <ele>941.7</ele>
        <time>2017-12-15T21:36:19Z</time>
      </trkpt>
      <trkpt lat="44.8213" lon="5.85409">
        <ele>941.2</ele>
        <time>2017-12-15T21:36:38Z</time>
      </trkpt>
      <trkpt lat="44.82205" lon="5.85332">
        <ele>933.9</ele>
        <time>2017-12-15T21:36:54Z</time>
      </trkpt>
      <trkpt lat="44.82225" lon="5.85303">
        <ele>932.8</ele>
        <time>2017-12-15T21:37:06Z</time>
      </trkpt>
      <trkpt lat="44.82241" lon="5.85274">
        <ele>932.7</ele>
        <time>2017-12-15T21:37:25Z</time>
      </trkpt>
      <trkpt lat="44.82261" lon="5.85224">
        <ele>931.3</ele>
        <time>2017-12-15T21:37:37Z</time>
      </trkpt>
      <trkpt lat="44.82284" lon="5.8516">
        <ele>932.4</ele>
        <time>2017-12-15T21:37:52Z</time>
      </trkpt>
      <trkpt lat="44.82291" lon="5.85145">
        <ele>932.6</ele>
        <time>2017-12-15T21:38:09Z</time>
      </trkpt>
      <trkpt lat="44.82303" lon="5.85134">
        <ele>931.7</ele>
        <time>2017-12-15T21:38:18Z</time>
      </trkpt>
      <trkpt lat="44.82317" lon="5.85128">
        <ele>930.9</ele>
        <time>2017-12-15T21:38:30Z</time>
      </trkpt>
      <trkpt lat="44.82325" lon="5.85127">
        <ele>930.4</ele>
        <time>2017-12-15T21:38:39Z</time>
      </trkpt>
      <trkpt lat="44.82351" lon="5.85129">
        <ele>929.2</ele>
        <time>2017-12-15T21:38:57Z</time>
      </trkpt>
      <trkpt lat="44.82362" lon="5.85125">
        <ele>929.9</ele>
        <time>2017-12-15T21:39:14Z</time>
      </trkpt>
      <trkpt lat="44.8237" lon="5.85119">
        <ele>930.6</ele>
        <time>2017-12-15T21:39:16Z</time>
      </trkpt>
      <trkpt lat="44.82386" lon="5.85102">
        <ele>933.1</ele>
        <time>2017-12-15T21:39:22Z</time>
      </trkpt>
      <trkpt lat="44.82402" lon="5.85081">
        <ele>935</ele>
        <time>2017-12-15T21:39:26Z</time>
      </trkpt>
      <trkpt lat="44.82419" lon="5.85049">
        <ele>937.2</ele>
        <time>2017-12-15T21:39:32Z</time>
      </trkpt>
      <trkpt lat="44.82468" lon="5.84971">
        <ele>935.8</ele>
        <time>2017-12-15T21:39:37Z</time>
      </trkpt>
      <trkpt lat="44.82514" lon="5.84896">
        <ele>932.3</ele>
        <time>2017-12-15T21:39:47Z</time>
      </trkpt>
      <trkpt lat="44.8256" lon="5.84819">
        <ele>927.1</ele>
        <time>2017-12-15T21:39:52Z</time>
      </trkpt>
      <trkpt lat="44.82576" lon="5.84782">
        <ele>923.6</ele>
        <time>2017-12-15T21:40:02Z</time>
      </trkpt>
      <trkpt lat="44.8259" lon="5.84743">
        <ele>922.9</ele>
        <time>2017-12-15T21:40:07Z</time>
      </trkpt>
      <trkpt lat="44.82606" lon="5.8471">
        <ele>922.1</ele>
        <time>2017-12-15T21:40:24Z</time>
      </trkpt>
      <trkpt lat="44.82627" lon="5.84682">
        <ele>920.8</ele>
        <time>2017-12-15T21:40:35Z</time>
      </trkpt>
      <trkpt lat="44.82666" lon="5.84637">
        <ele>918.2</ele>
        <time>2017-12-15T21:40:39Z</time>
      </trkpt>
      <trkpt lat="44.82693" lon="5.84606">
        <ele>916.4</ele>
        <time>2017-12-15T21:40:50Z</time>
      </trkpt>
      <trkpt lat="44.82724" lon="5.84551">
        <ele>913</ele>
        <time>2017-12-15T21:40:55Z</time>
      </trkpt>
      <trkpt lat="44.82736" lon="5.84526">
        <ele>912</ele>
        <time>2017-12-15T21:41:02Z</time>
      </trkpt>
      <trkpt lat="44.82741" lon="5.84511">
        <ele>911.5</ele>
        <time>2017-12-15T21:41:08Z</time>
      </trkpt>
      <trkpt lat="44.82743" lon="5.8448">
        <ele>911.1</ele>
        <time>2017-12-15T21:41:11Z</time>
      </trkpt>
      <trkpt lat="44.82739" lon="5.84431">
        <ele>910.7</ele>
        <time>2017-12-15T21:41:24Z</time>
      </trkpt>
      <trkpt lat="44.82731" lon="5.84373">
        <ele>907.9</ele>
        <time>2017-12-15T21:41:40Z</time>
      </trkpt>
      <trkpt lat="44.82723" lon="5.84323">
        <ele>904.8</ele>
        <time>2017-12-15T21:41:57Z</time>
      </trkpt>
      <trkpt lat="44.82718" lon="5.84304">
        <ele>903.4</ele>
        <time>2017-12-15T21:42:08Z</time>
      </trkpt>
      <trkpt lat="44.82696" lon="5.84246">
        <ele>901.3</ele>
        <time>2017-12-15T21:42:21Z</time>
      </trkpt>
      <trkpt lat="44.82691" lon="5.8422">
        <ele>899.6</ele>
        <time>2017-12-15T21:42:36Z</time>
      </trkpt>
      <trkpt lat="44.8269" lon="5.8419">
        <ele>897.6</ele>
        <time>2017-12-15T21:42:48Z</time>
      </trkpt>
      <trkpt lat="44.82693" lon="5.8417">
        <ele>896.4</ele>
        <time>2017-12-15T21:43:01Z</time>
      </trkpt>
      <trkpt lat="44.827" lon="5.84153">
        <ele>896.1</ele>
        <time>2017-12-15T21:43:08Z</time>
      </trkpt>
      <trkpt lat="44.82738" lon="5.8408">
        <ele>900.2</ele>
        <time>2017-12-15T21:43:12Z</time>
      </trkpt>
      <trkpt lat="44.82767" lon="5.84029">
        <ele>900.8</ele>
        <time>2017-12-15T21:43:21Z</time>
      </trkpt>
      <trkpt lat="44.82777" lon="5.84009">
        <ele>900.1</ele>
        <time>2017-12-15T21:43:38Z</time>
      </trkpt>
      <trkpt lat="44.82789" lon="5.83982">
        <ele>898.8</ele>
        <time>2017-12-15T21:43:53Z</time>
      </trkpt>
      <trkpt lat="44.8282" lon="5.83926">
        <ele>896.2</ele>
        <time>2017-12-15T21:44:09Z</time>
      </trkpt>
      <trkpt lat="44.82835" lon="5.83907">
        <ele>896</ele>
        <time>2017-12-15T21:44:16Z</time>
      </trkpt>
      <trkpt lat="44.82857" lon="5.83886">
        <ele>897.4</ele>
        <time>2017-12-15T21:44:31Z</time>
      </trkpt>
      <trkpt lat="44.82956" lon="5.83812">
        <ele>894.2</ele>
        <time>2017-12-15T21:44:48Z</time>
      </trkpt>
      <trkpt lat="44.82988" lon="5.83788">
        <ele>892.1</ele>
        <time>2017-12-15T21:45:04Z</time>
      </trkpt>
      <trkpt lat="44.82998" lon="5.8377">
        <ele>891.1</ele>
        <time>2017-12-15T21:45:12Z</time>
      </trkpt>
      <trkpt lat="44.83002" lon="5.83739">
        <ele>890.4</ele>
        <time>2017-12-15T21:45:28Z</time>
      </trkpt>
      <trkpt lat="44.82999" lon="5.83693">
        <ele>888.1</ele>
        <time>2017-12-15T21:45:41Z</time>
      </trkpt>
      <trkpt lat="44.82999" lon="5.83672">
        <ele>888.1</ele>
        <time>2017-12-15T21:45:54Z</time>
      </trkpt>
      <trkpt lat="44.83005" lon="5.83653">
        <ele>887.7</ele>
        <time>2017-12-15T21:46:06Z</time>
      </trkpt>
      <trkpt lat="44.83013" lon="5.83643">
        <ele>887.5</ele>
        <time>2017-12-15T21:46:24Z</time>
      </trkpt>
      <trkpt lat="44.8303" lon="5.83641">
        <ele>886.9</ele>
        <time>2017-12-15T21:46:32Z</time>
      </trkpt>
      <trkpt lat="44.83052" lon="5.83652">
        <ele>886.1</ele>
        <time>2017-12-15T21:46:50Z</time>
      </trkpt>
      <trkpt lat="44.83103" lon="5.83682">
        <ele>884.4</ele>
        <time>2017-12-15T21:47:09Z</time>
      </trkpt>
      <trkpt lat="44.8315" lon="5.83706">
        <ele>884.1</ele>
        <time>2017-12-15T21:47:24Z</time>
      </trkpt>
      <trkpt lat="44.83183" lon="5.83714">
        <ele>884.1</ele>
        <time>2017-12-15T21:47:38Z</time>
      </trkpt>
      <trkpt lat="44.83198" lon="5.83714">
        <ele>883.9</ele>
        <time>2017-12-15T21:47:46Z</time>
      </trkpt>
      <trkpt lat="44.8322" lon="5.83709">
        <ele>883.5</ele>
        <time>2017-12-15T21:48:04Z</time>
      </trkpt>
      <trkpt lat="44.83237" lon="5.83698">
        <ele>882.8</ele>
        <time>2017-12-15T21:48:22Z</time>
      </trkpt>
      <trkpt lat="44.83267" lon="5.8367">
        <ele>882.3</ele>
        <time>2017-12-15T21:48:38Z</time>
      </trkpt>
      <trkpt lat="44.83308" lon="5.83628">
        <ele>882.3</ele>
        <time>2017-12-15T21:48:58Z</time>
      </trkpt>
      <trkpt lat="44.83384" lon="5.83548">
        <ele>881.2</ele>
        <time>2017-12-15T21:49:02Z</time>
      </trkpt>
      <trkpt lat="44.8349" lon="5.83439">
        <ele>881.5</ele>
        <time>2017-12-15T21:49:04Z</time>
      </trkpt>
      <trkpt lat="44.83517" lon="5.83406">
        <ele>881.8</ele>
        <time>2017-12-15T21:49:21Z</time>
      </trkpt>
      <trkpt lat="44.8364" lon="5.83228">
        <ele>883.5</ele>
        <time>2017-12-15T21:49:24Z</time>
      </trkpt>
      <trkpt lat="44.83677" lon="5.83174">
        <ele>882</ele>
        <time>2017-12-15T21:49:38Z</time>
      </trkpt>
      <trkpt lat="44.83692" lon="5.83159">
        <ele>881.7</ele>
        <time>2017-12-15T21:49:58Z</time>
      </trkpt>
      <trkpt lat="44.83716" lon="5.83142">
        <ele>882.7</ele>
        <time>2017-12-15T21:50:02Z</time>
      </trkpt>
      <trkpt lat="44.83752" lon="5.83126">
        <ele>883.8</ele>
        <time>2017-12-15T21:50:05Z</time>
      </trkpt>
      <trkpt lat="44.83786" lon="5.83109">
        <ele>885.2</ele>
        <time>2017-12-15T21:50:10Z</time>
      </trkpt>
      <trkpt lat="44.83808" lon="5.83095">
        <ele>886.6</ele>
        <time>2017-12-15T21:50:14Z</time>
      </trkpt>
      <trkpt lat="44.83824" lon="5.83083">
        <ele>886.7</ele>
        <time>2017-12-15T21:50:34Z</time>
      </trkpt>
      <trkpt lat="44.83839" lon="5.83068">
        <ele>886.5</ele>
        <time>2017-12-15T21:50:45Z</time>
      </trkpt>
      <trkpt lat="44.83862" lon="5.83041">
        <ele>886</ele>
        <time>2017-12-15T21:50:52Z</time>
      </trkpt>
      <trkpt lat="44.83877" lon="5.83015">
        <ele>885.9</ele>
        <time>2017-12-15T21:51:03Z</time>
      </trkpt>
      <trkpt lat="44.83916" lon="5.8293">
        <ele>886.7</ele>
        <time>2017-12-15T21:51:21Z</time>
      </trkpt>
      <trkpt lat="44.83931" lon="5.82896">
        <ele>886.4</ele>
        <time>2017-12-15T21:51:36Z</time>
      </trkpt>
      <trkpt lat="44.83953" lon="5.82836">
        <ele>885.4</ele>
        <time>2017-12-15T21:51:49Z</time>
      </trkpt>
      <trkpt lat="44.83974" lon="5.82788">
        <ele>885</ele>
        <time>2017-12-15T21:51:56Z</time>
      </trkpt>
      <trkpt lat="44.84" lon="5.82747">
        <ele>886.2</ele>
        <time>2017-12-15T21:52:07Z</time>
      </trkpt>
      <trkpt lat="44.84027" lon="5.8272">
        <ele>887.1</ele>
        <time>2017-12-15T21:52:11Z</time>
      </trkpt>
      <trkpt lat="44.84057" lon="5.82698">
        <ele>886.6</ele>
        <time>2017-12-15T21:52:31Z</time>
      </trkpt>
      <trkpt lat="44.84087" lon="5.82661">
        <ele>887.3</ele>
        <time>2017-12-15T21:52:45Z</time>
      </trkpt>
      <trkpt lat="44.8411" lon="5.82627">
        <ele>888.9</ele>
        <time>2017-12-15T21:53:04Z</time>
      </trkpt>
      <trkpt lat="44.84146" lon="5.82561">
        <ele>890.8</ele>
        <time>2017-12-15T21:53:08Z</time>
      </trkpt>
      <trkpt lat="44.84169" lon="5.82531">
        <ele>891.4</ele>
        <time>2017-12-15T21:53:25Z</time>
      </trkpt>
      <trkpt lat="44.84188" lon="5.82507">
        <ele>891.2</ele>
        <time>2017-12-15T21:53:43Z</time>
      </trkpt>
      <trkpt lat="44.84227" lon="5.8245">
        <ele>891</ele>
        <time>2017-12-15T21:53:50Z</time>
      </trkpt>
      <trkpt lat="44.84269" lon="5.82384">
        <ele>890.7</ele>
        <time>2017-12-15T21:54:01Z</time>
      </trkpt>
      <trkpt lat="44.84289" lon="5.82353">
        <ele>891</ele>
        <time>2017-12-15T21:54:06Z</time>
      </trkpt>
      <trkpt lat="44.84302" lon="5.82324">
        <ele>891.2</ele>
        <time>2017-12-15T21:54:23Z</time>
      </trkpt>
      <trkpt lat="44.84316" lon="5.82285">
        <ele>892</ele>
        <time>2017-12-15T21:54:26Z</time>
      </trkpt>
      <trkpt lat="44.84333" lon="5.82224">
        <ele>892.9</ele>
        <time>2017-12-15T21:54:44Z</time>
      </trkpt>
      <trkpt lat="44.84355" lon="5.82139">
        <ele>893.3</ele>
        <time>2017-12-15T21:54:47Z</time>
      </trkpt>
      <trkpt lat="44.84369" lon="5.82063">
        <ele>894.3</ele>
        <time>2017-12-15T21:54:59Z</time>
      </trkpt>
      <trkpt lat="44.84396" lon="5.81857">
        <ele>895.9</ele>
        <time>2017-12-15T21:55:03Z</time>
      </trkpt>
      <trkpt lat="44.84401" lon="5.81808">
        <ele>896.2</ele>
        <time>2017-12-15T21:55:14Z</time>
      </trkpt>
      <trkpt lat="44.84399" lon="5.81778">
        <ele>897.5</ele>
        <time>2017-12-15T21:55:18Z</time>
      </trkpt>
      <trkpt lat="44.84395" lon="5.81751">
        <ele>898.1</ele>
        <time>2017-12-15T21:55:33Z</time>
      </trkpt>
      <trkpt lat="44.84384" lon="5.81702">
        <ele>897.6</ele>
        <time>2017-12-15T21:55:50Z</time>
      </trkpt>
      <trkpt lat="44.84377" lon="5.81658">
        <ele>897.3</ele>
        <time>2017-12-15T21:56:08Z</time>
      </trkpt>
      <trkpt lat="44.84375" lon="5.81632">
        <ele>897.5</ele>
        <time>2017-12-15T21:56:18Z</time>
      </trkpt>
      <trkpt lat="44.84376" lon="5.81605">
        <ele>897.5</ele>
        <time>2017-12-15T21:56:23Z</time>
      </trkpt>
      <trkpt lat="44.84386" lon="5.81528">
        <ele>898.3</ele>
        <time>2017-12-15T21:56:34Z</time>
      </trkpt>
      <trkpt lat="44.84429" lon="5.81226">
        <ele>899</ele>
        <time>2017-12-15T21:56:37Z</time>
      </trkpt>
      <trkpt lat="44.84433" lon="5.81172">
        <ele>899.7</ele>
        <time>2017-12-15T21:56:46Z</time>
      </trkpt>
      <trkpt lat="44.84497" lon="5.81179">
        <ele>896.1</ele>
        <time>2017-12-15T21:57:02Z</time>
      </trkpt>
      <trkpt lat="44.84512" lon="5.81176">
        <ele>895.1</ele>
        <time>2017-12-15T21:57:19Z</time>
      </trkpt>
      <trkpt lat="44.84524" lon="5.81168">
        <ele>894.3</ele>
        <time>2017-12-15T21:57:34Z</time>
      </trkpt>
      <trkpt lat="44.84539" lon="5.81144">
        <ele>893.3</ele>
        <time>2017-12-15T21:57:47Z</time>
      </trkpt>
      <trkpt lat="44.84547" lon="5.81115">
        <ele>892.6</ele>
        <time>2017-12-15T21:58:04Z</time>
      </trkpt>
      <trkpt lat="44.84551" lon="5.81079">
        <ele>891.3</ele>
        <time>2017-12-15T21:58:15Z</time>
      </trkpt>
      <trkpt lat="44.84559" lon="5.8103">
        <ele>890.8</ele>
        <time>2017-12-15T21:58:17Z</time>
      </trkpt>
      <trkpt lat="44.84579" lon="5.80946">
        <ele>888.3</ele>
        <time>2017-12-15T21:58:36Z</time>
      </trkpt>
      <trkpt lat="44.8459" lon="5.80883">
        <ele>886.4</ele>
        <time>2017-12-15T21:58:42Z</time>
      </trkpt>
      <trkpt lat="44.84592" lon="5.80799">
        <ele>884.5</ele>
        <time>2017-12-15T21:58:49Z</time>
      </trkpt>
      <trkpt lat="44.84591" lon="5.80667">
        <ele>882.4</ele>
        <time>2017-12-15T21:59:02Z</time>
      </trkpt>
      <trkpt lat="44.84596" lon="5.80591">
        <ele>880.7</ele>
        <time>2017-12-15T21:59:06Z</time>
      </trkpt>
      <trkpt lat="44.84607" lon="5.80505">
        <ele>879.2</ele>
        <time>2017-12-15T21:59:11Z</time>
      </trkpt>
      <trkpt lat="44.84615" lon="5.80462">
        <ele>878.4</ele>
        <time>2017-12-15T21:59:26Z</time>
      </trkpt>
      <trkpt lat="44.84621" lon="5.80427">
        <ele>877.3</ele>
        <time>2017-12-15T21:59:35Z</time>
      </trkpt>
      <trkpt lat="44.84621" lon="5.80405">
        <ele>876.9</ele>
        <time>2017-12-15T21:59:47Z</time>
      </trkpt>
      <trkpt lat="44.84617" lon="5.8035">
        <ele>875.3</ele>
        <time>2017-12-15T22:00:06Z</time>
      </trkpt>
      <trkpt lat="44.84612" lon="5.80272">
        <ele>872.8</ele>
        <time>2017-12-15T22:00:13Z</time>
      </trkpt>
      <trkpt lat="44.84615" lon="5.80227">
        <ele>871.9</ele>
        <time>2017-12-15T22:00:22Z</time>
      </trkpt>
      <trkpt lat="44.84625" lon="5.80182">
        <ele>871.3</ele>
        <time>2017-12-15T22:00:31Z</time>
      </trkpt>
      <trkpt lat="44.84662" lon="5.80087">
        <ele>868.1</ele>
        <time>2017-12-15T22:00:33Z</time>
      </trkpt>
      <trkpt lat="44.84678" lon="5.80037">
        <ele>867</ele>
        <time>2017-12-15T22:00:37Z</time>
      </trkpt>
      <trkpt lat="44.8469" lon="5.80007">
        <ele>866.3</ele>
        <time>2017-12-15T22:00:45Z</time>
      </trkpt>
      <trkpt lat="44.84716" lon="5.79957">
        <ele>865.6</ele>
        <time>2017-12-15T22:00:57Z</time>
      </trkpt>
      <trkpt lat="44.84726" lon="5.79944">
        <ele>865</ele>
        <time>2017-12-15T22:01:13Z</time>
      </trkpt>
      <trkpt lat="44.84735" lon="5.79942">
        <ele>865</ele>
        <time>2017-12-15T22:01:24Z</time>
      </trkpt>
      <trkpt lat="44.84743" lon="5.79943">
        <ele>865</ele>
        <time>2017-12-15T22:01:38Z</time>
      </trkpt>
      <trkpt lat="44.84751" lon="5.79948">
        <ele>865</ele>
        <time>2017-12-15T22:01:56Z</time>
      </trkpt>
      <trkpt lat="44.84769" lon="5.79954">
        <ele>865</ele>
        <time>2017-12-15T22:02:02Z</time>
      </trkpt>
      <trkpt lat="44.84778" lon="5.79953">
        <ele>865</ele>
        <time>2017-12-15T22:02:16Z</time>
      </trkpt>
      <trkpt lat="44.84791" lon="5.79945">
        <ele>864.5</ele>
        <time>2017-12-15T22:02:18Z</time>
      </trkpt>
      <trkpt lat="44.84804" lon="5.79927">
        <ele>864</ele>
        <time>2017-12-15T22:02:35Z</time>
      </trkpt>
      <trkpt lat="44.8481" lon="5.79905">
        <ele>863.8</ele>
        <time>2017-12-15T22:02:38Z</time>
      </trkpt>
      <trkpt lat="44.84809" lon="5.79883">
        <ele>863.7</ele>
        <time>2017-12-15T22:02:47Z</time>
      </trkpt>
      <trkpt lat="44.84801" lon="5.79849">
        <ele>863.2</ele>
        <time>2017-12-15T22:02:49Z</time>
      </trkpt>
      <trkpt lat="44.84799" lon="5.79831">
        <ele>863.2</ele>
        <time>2017-12-15T22:02:52Z</time>
      </trkpt>
      <trkpt lat="44.84803" lon="5.79793">
        <ele>863.1</ele>
        <time>2017-12-15T22:03:02Z</time>
      </trkpt>
      <trkpt lat="44.84813" lon="5.79734">
        <ele>863</ele>
        <time>2017-12-15T22:03:07Z</time>
      </trkpt>
      <trkpt lat="44.84822" lon="5.7969">
        <ele>863.1</ele>
        <time>2017-12-15T22:03:23Z</time>
      </trkpt>
      <trkpt lat="44.84828" lon="5.79671">
        <ele>863.2</ele>
        <time>2017-12-15T22:03:33Z</time>
      </trkpt>
      <trkpt lat="44.8484" lon="5.79657">
        <ele>863.1</ele>
        <time>2017-12-15T22:03:52Z</time>
      </trkpt>
      <trkpt lat="44.84852" lon="5.7965">
        <ele>862.9</ele>
        <time>2017-12-15T22:04:10Z</time>
      </trkpt>
      <trkpt lat="44.84881" lon="5.79641">
        <ele>862.2</ele>
        <time>2017-12-15T22:04:27Z</time>
      </trkpt>
      <trkpt lat="44.84912" lon="5.79629">
        <ele>862.4</ele>
        <time>2017-12-15T22:04:33Z</time>
      </trkpt>
      <trkpt lat="44.84943" lon="5.7961">
        <ele>862.1</ele>
        <time>2017-12-15T22:04:40Z</time>
      </trkpt>
      <trkpt lat="44.84964" lon="5.79594">
        <ele>861.9</ele>
        <time>2017-12-15T22:04:58Z</time>
      </trkpt>
      <trkpt lat="44.84967" lon="5.7959">
        <ele>861.9</ele>
        <time>2017-12-15T22:05:03Z</time>
      </trkpt>
      <trkpt lat="44.84971" lon="5.79593">
        <ele>861.7</ele>
        <time>2017-12-15T22:05:06Z</time>
      </trkpt>
      <trkpt lat="44.84976" lon="5.79593">
        <ele>861.5</ele>
        <time>2017-12-15T22:05:13Z</time>
      </trkpt>
      <trkpt lat="44.85028" lon="5.79584">
        <ele>861</ele>
        <time>2017-12-15T22:05:26Z</time>
      </trkpt>
      <trkpt lat="44.85251" lon="5.79547">
        <ele>858.3</ele>
        <time>2017-12-15T22:05:41Z</time>
      </trkpt>
      <trkpt lat="44.85327" lon="5.79533">
        <ele>857.8</ele>
        <time>2017-12-15T22:06:01Z</time>
      </trkpt>
      <trkpt lat="44.85437" lon="5.79495">
        <ele>856.1</ele>
        <time>2017-12-15T22:06:04Z</time>
      </trkpt>
      <trkpt lat="44.8548" lon="5.79478">
        <ele>855.9</ele>
        <time>2017-12-15T22:06:24Z</time>
      </trkpt>
      <trkpt lat="44.85522" lon="5.79464">
        <ele>855.7</ele>
        <time>2017-12-15T22:06:35Z</time>
      </trkpt>
      <trkpt lat="44.85561" lon="5.79453">
        <ele>855.1</ele>
        <time>2017-12-15T22:06:53Z</time>
      </trkpt>
      <trkpt lat="44.85608" lon="5.79434">
        <ele>853.5</ele>
        <time>2017-12-15T22:07:00Z</time>
      </trkpt>
      <trkpt lat="44.85695" lon="5.79401">
        <ele>851.6</ele>
        <time>2017-12-15T22:07:04Z</time>
      </trkpt>
      <trkpt lat="44.85726" lon="5.79388">
        <ele>851</ele>
        <time>2017-12-15T22:07:22Z</time>
      </trkpt>
      <trkpt lat="44.85757" lon="5.7939">
        <ele>849.1</ele>
        <time>2017-12-15T22:07:31Z</time>
      </trkpt>
      <trkpt lat="44.85772" lon="5.7939">
        <ele>847.5</ele>
        <time>2017-12-15T22:07:49Z</time>
      </trkpt>
      <trkpt lat="44.85777" lon="5.79388">
        <ele>847.3</ele>
        <time>2017-12-15T22:08:09Z</time>
      </trkpt>
      <trkpt lat="44.85791" lon="5.79376">
        <ele>848.6</ele>
        <time>2017-12-15T22:08:16Z</time>
      </trkpt>
      <trkpt lat="44.85811" lon="5.79357">
        <ele>850.6</ele>
        <time>2017-12-15T22:08:26Z</time>
      </trkpt>
      <trkpt lat="44.85826" lon="5.79351">
        <ele>851.1</ele>
        <time>2017-12-15T22:08:33Z</time>
      </trkpt>
      <trkpt lat="44.85849" lon="5.79354">
        <ele>850.1</ele>
        <time>2017-12-15T22:08:51Z</time>
      </trkpt>
      <trkpt lat="44.85863" lon="5.79364">
        <ele>847.8</ele>
        <time>2017-12-15T22:09:02Z</time>
      </trkpt>
      <trkpt lat="44.85867" lon="5.79369">
        <ele>847.6</ele>
        <time>2017-12-15T22:09:04Z</time>
      </trkpt>
      <trkpt lat="44.85872" lon="5.7938">
        <ele>846.3</ele>
        <time>2017-12-15T22:09:12Z</time>
      </trkpt>
      <trkpt lat="44.85874" lon="5.79402">
        <ele>843.4</ele>
        <time>2017-12-15T22:09:29Z</time>
      </trkpt>
      <trkpt lat="44.85874" lon="5.79441">
        <ele>839.7</ele>
        <time>2017-12-15T22:09:37Z</time>
      </trkpt>
      <trkpt lat="44.85879" lon="5.7946">
        <ele>837.3</ele>
        <time>2017-12-15T22:09:47Z</time>
      </trkpt>
      <trkpt lat="44.85886" lon="5.79469">
        <ele>836.4</ele>
        <time>2017-12-15T22:10:05Z</time>
      </trkpt>
      <trkpt lat="44.85896" lon="5.79475">
        <ele>835.8</ele>
        <time>2017-12-15T22:10:13Z</time>
      </trkpt>
      <trkpt lat="44.85935" lon="5.79484">
        <ele>834.9</ele>
        <time>2017-12-15T22:10:16Z</time>
      </trkpt>
      <trkpt lat="44.85967" lon="5.79489">
        <ele>834</ele>
        <time>2017-12-15T22:10:26Z</time>
      </trkpt>
      <trkpt lat="44.86012" lon="5.79504">
        <ele>831.7</ele>
        <time>2017-12-15T22:10:37Z</time>
      </trkpt>
      <trkpt lat="44.86048" lon="5.79522">
        <ele>829.6</ele>
        <time>2017-12-15T22:10:39Z</time>
      </trkpt>
      <trkpt lat="44.86091" lon="5.79545">
        <ele>828.1</ele>
        <time>2017-12-15T22:10:53Z</time>
      </trkpt>
      <trkpt lat="44.86117" lon="5.79562">
        <ele>827.7</ele>
        <time>2017-12-15T22:10:58Z</time>
      </trkpt>
      <trkpt lat="44.86134" lon="5.79582">
        <ele>826.7</ele>
        <time>2017-12-15T22:11:09Z</time>
      </trkpt>
      <trkpt lat="44.8616" lon="5.79626">
        <ele>822.1</ele>
        <time>2017-12-15T22:11:15Z</time>
      </trkpt>
      <trkpt lat="44.86175" lon="5.79652">
        <ele>819.4</ele>
        <time>2017-12-15T22:11:19Z</time>
      </trkpt>
      <trkpt lat="44.86195" lon="5.79678">
        <ele>816.4</ele>
        <time>2017-12-15T22:11:33Z</time>
      </trkpt>
      <trkpt lat="44.86207" lon="5.79688">
        <ele>815.4</ele>
        <time>2017-12-15T22:11:44Z</time>
      </trkpt>
      <trkpt lat="44.86239" lon="5.79702">
        <ele>812.9</ele>
        <time>2017-12-15T22:11:54Z</time>
      </trkpt>
      <trkpt lat="44.86256" lon="5.79706">
        <ele>811.2</ele>
        <time>2017-12-15T22:11:57Z</time>
      </trkpt>
      <trkpt lat="44.86283" lon="5.79708">
        <ele>809.3</ele>
        <time>2017-12-15T22:12:07Z</time>
      </trkpt>
      <trkpt lat="44.86339" lon="5.79722">
        <ele>804.6</ele>
        <time>2017-12-15T22:12:20Z</time>
      </trkpt>
      <trkpt lat="44.86365" lon="5.79721">
        <ele>802.9</ele>
        <time>2017-12-15T22:12:25Z</time>
      </trkpt>
      <trkpt lat="44.8642" lon="5.79705">
        <ele>802</ele>
        <time>2017-12-15T22:12:37Z</time>
      </trkpt>
      <trkpt lat="44.86472" lon="5.79693">
        <ele>799.3</ele>
        <time>2017-12-15T22:12:42Z</time>
      </trkpt>
      <trkpt lat="44.86508" lon="5.79683">
        <ele>797.7</ele>
        <time>2017-12-15T22:12:45Z</time>
      </trkpt>
      <trkpt lat="44.8652" lon="5.79676">
        <ele>797.8</ele>
        <time>2017-12-15T22:13:05Z</time>
      </trkpt>
      <trkpt lat="44.86531" lon="5.79664">
        <ele>799.3</ele>
        <time>2017-12-15T22:13:19Z</time>
      </trkpt>
      <trkpt lat="44.8655" lon="5.79644">
        <ele>803</ele>
        <time>2017-12-15T22:13:21Z</time>
      </trkpt>
      <trkpt lat="44.86571" lon="5.79637">
        <ele>802.8</ele>
        <time>2017-12-15T22:13:30Z</time>
      </trkpt>
      <trkpt lat="44.86595" lon="5.79637">
        <ele>801.2</ele>
        <time>2017-12-15T22:13:48Z</time>
      </trkpt>
      <trkpt lat="44.86622" lon="5.79647">
        <ele>797.4</ele>
        <time>2017-12-15T22:14:08Z</time>
      </trkpt>
      <trkpt lat="44.86653" lon="5.79665">
        <ele>790.6</ele>
        <time>2017-12-15T22:14:28Z</time>
      </trkpt>
      <trkpt lat="44.8668" lon="5.79682">
        <ele>783.8</ele>
        <time>2017-12-15T22:14:32Z</time>
      </trkpt>
      <trkpt lat="44.86694" lon="5.79685">
        <ele>782.1</ele>
        <time>2017-12-15T22:14:34Z</time>
      </trkpt>
      <trkpt lat="44.86705" lon="5.79682">
        <ele>781.7</ele>
        <time>2017-12-15T22:14:36Z</time>
      </trkpt>
      <trkpt lat="44.86715" lon="5.79672">
        <ele>783.5</ele>
        <time>2017-12-15T22:14:39Z</time>
      </trkpt>
      <trkpt lat="44.86723" lon="5.79657">
        <ele>786.3</ele>
        <time>2017-12-15T22:14:44Z</time>
      </trkpt>
      <trkpt lat="44.86731" lon="5.79603">
        <ele>794.6</ele>
        <time>2017-12-15T22:14:49Z</time>
      </trkpt>
      <trkpt lat="44.86738" lon="5.79587">
        <ele>794.1</ele>
        <time>2017-12-15T22:15:00Z</time>
      </trkpt>
      <trkpt lat="44.86745" lon="5.79582">
        <ele>792.6</ele>
        <time>2017-12-15T22:15:02Z</time>
      </trkpt>
      <trkpt lat="44.86753" lon="5.79584">
        <ele>791.4</ele>
        <time>2017-12-15T22:15:18Z</time>
      </trkpt>
      <trkpt lat="44.86766" lon="5.79603">
        <ele>790.7</ele>
        <time>2017-12-15T22:15:23Z</time>
      </trkpt>
      <trkpt lat="44.86782" lon="5.79661">
        <ele>782.7</ele>
        <time>2017-12-15T22:15:40Z</time>
      </trkpt>
      <trkpt lat="44.86791" lon="5.79678">
        <ele>780.7</ele>
        <time>2017-12-15T22:16:00Z</time>
      </trkpt>
      <trkpt lat="44.86805" lon="5.79687">
        <ele>780.5</ele>
        <time>2017-12-15T22:16:15Z</time>
      </trkpt>
      <trkpt lat="44.86816" lon="5.79688">
        <ele>781.1</ele>
        <time>2017-12-15T22:16:28Z</time>
      </trkpt>
      <trkpt lat="44.86849" lon="5.79685">
        <ele>783.6</ele>
        <time>2017-12-15T22:16:37Z</time>
      </trkpt>
      <trkpt lat="44.86885" lon="5.79688">
        <ele>783.8</ele>
        <time>2017-12-15T22:16:47Z</time>
      </trkpt>
      <trkpt lat="44.8693" lon="5.79699">
        <ele>785.4</ele>
        <time>2017-12-15T22:17:05Z</time>
      </trkpt>
      <trkpt lat="44.86963" lon="5.79716">
        <ele>785.2</ele>
        <time>2017-12-15T22:17:21Z</time>
      </trkpt>
      <trkpt lat="44.87014" lon="5.79746">
        <ele>782.2</ele>
        <time>2017-12-15T22:17:36Z</time>
      </trkpt>
      <trkpt lat="44.87046" lon="5.79758">
        <ele>780.2</ele>
        <time>2017-12-15T22:17:39Z</time>
      </trkpt>
      <trkpt lat="44.8707" lon="5.79763">
        <ele>779.3</ele>
        <time>2017-12-15T22:17:53Z</time>
      </trkpt>
      <trkpt lat="44.87086" lon="5.79762">
        <ele>780.2</ele>
        <time>2017-12-15T22:18:00Z</time>
      </trkpt>
      <trkpt lat="44.87101" lon="5.79759">
        <ele>781.7</ele>
        <time>2017-12-15T22:18:13Z</time>
      </trkpt>
      <trkpt lat="44.87115" lon="5.79757">
        <ele>783</ele>
        <time>2017-12-15T22:18:21Z</time>
      </trkpt>
      <trkpt lat="44.87128" lon="5.79758">
        <ele>783.6</ele>
        <time>2017-12-15T22:18:26Z</time>
      </trkpt>
      <trkpt lat="44.87145" lon="5.79765">
        <ele>782.5</ele>
        <time>2017-12-15T22:18:40Z</time>
      </trkpt>
      <trkpt lat="44.87176" lon="5.79781">
        <ele>777.8</ele>
        <time>2017-12-15T22:18:57Z</time>
      </trkpt>
      <trkpt lat="44.87197" lon="5.79784">
        <ele>776.6</ele>
        <time>2017-12-15T22:19:14Z</time>
      </trkpt>
      <trkpt lat="44.8722" lon="5.79782">
        <ele>775.6</ele>
        <time>2017-12-15T22:19:17Z</time>
      </trkpt>
      <trkpt lat="44.87243" lon="5.79773">
        <ele>775.2</ele>
        <time>2017-12-15T22:19:23Z</time>
      </trkpt>
      <trkpt lat="44.8726" lon="5.79762">
        <ele>775</ele>
        <time>2017-12-15T22:19:35Z</time>
      </trkpt>
      <trkpt lat="44.87284" lon="5.79742">
        <ele>775.2</ele>
        <time>2017-12-15T22:19:50Z</time>
      </trkpt>
      <trkpt lat="44.87304" lon="5.79721">
        <ele>776.2</ele>
        <time>2017-12-15T22:20:09Z</time>
      </trkpt>
      <trkpt lat="44.87338" lon="5.79686">
        <ele>773.2</ele>
        <time>2017-12-15T22:20:29Z</time>
      </trkpt>
      <trkpt lat="44.87349" lon="5.7967">
        <ele>772.2</ele>
        <time>2017-12-15T22:20:33Z</time>
      </trkpt>
      <trkpt lat="44.87355" lon="5.79657">
        <ele>772.4</ele>
        <time>2017-12-15T22:20:50Z</time>
      </trkpt>
      <trkpt lat="44.87358" lon="5.79631">
        <ele>777.5</ele>
        <time>2017-12-15T22:21:04Z</time>
      </trkpt>
      <trkpt lat="44.8736" lon="5.7961">
        <ele>780.8</ele>
        <time>2017-12-15T22:21:12Z</time>
      </trkpt>
      <trkpt lat="44.87369" lon="5.79589">
        <ele>781.9</ele>
        <time>2017-12-15T22:21:26Z</time>
      </trkpt>
      <trkpt lat="44.8738" lon="5.79579">
        <ele>781</ele>
        <time>2017-12-15T22:21:34Z</time>
      </trkpt>
      <trkpt lat="44.87392" lon="5.79575">
        <ele>780.3</ele>
        <time>2017-12-15T22:21:48Z</time>
      </trkpt>
      <trkpt lat="44.87402" lon="5.79576">
        <ele>781.6</ele>
        <time>2017-12-15T22:21:52Z</time>
      </trkpt>
      <trkpt lat="44.8741" lon="5.7958">
        <ele>781.9</ele>
        <time>2017-12-15T22:22:04Z</time>
      </trkpt>
      <trkpt lat="44.87421" lon="5.79595">
        <ele>780.7</ele>
        <time>2017-12-15T22:22:08Z</time>
      </trkpt>
      <trkpt lat="44.87434" lon="5.7963">
        <ele>777</ele>
        <time>2017-12-15T22:22:14Z</time>
      </trkpt>
      <trkpt lat="44.87461" lon="5.79683">
        <ele>775.8</ele>
        <time>2017-12-15T22:22:19Z</time>
      </trkpt>
      <trkpt lat="44.87482" lon="5.79733">
        <ele>773.9</ele>
        <time>2017-12-15T22:22:34Z</time>
      </trkpt>
      <trkpt lat="44.87494" lon="5.79774">
        <ele>770</ele>
        <time>2017-12-15T22:22:40Z</time>
      </trkpt>
      <trkpt lat="44.875" lon="5.79795">
        <ele>768.9</ele>
        <time>2017-12-15T22:22:52Z</time>
      </trkpt>
      <trkpt lat="44.87507" lon="5.79803">
        <ele>769</ele>
        <time>2017-12-15T22:23:06Z</time>
      </trkpt>
      <trkpt lat="44.87516" lon="5.79807">
        <ele>770.3</ele>
        <time>2017-12-15T22:23:22Z</time>
      </trkpt>
      <trkpt lat="44.87551" lon="5.79818">
        <ele>774.2</ele>
        <time>2017-12-15T22:23:42Z</time>
      </trkpt>
      <trkpt lat="44.87578" lon="5.79825">
        <ele>775.4</ele>
        <time>2017-12-15T22:23:44Z</time>
      </trkpt>
      <trkpt lat="44.876" lon="5.79828">
        <ele>774.1</ele>
        <time>2017-12-15T22:23:49Z</time>
      </trkpt>
      <trkpt lat="44.87612" lon="5.79824">
        <ele>773.9</ele>
        <time>2017-12-15T22:24:03Z</time>
      </trkpt>
      <trkpt lat="44.87625" lon="5.79811">
        <ele>771.1</ele>
        <time>2017-12-15T22:24:08Z</time>
      </trkpt>
      <trkpt lat="44.87646" lon="5.79782">
        <ele>766.8</ele>
        <time>2017-12-15T22:24:21Z</time>
      </trkpt>
      <trkpt lat="44.87666" lon="5.7975">
        <ele>758.6</ele>
        <time>2017-12-15T22:24:23Z</time>
      </trkpt>
      <trkpt lat="44.87668" lon="5.79745">
        <ele>759</ele>
        <time>2017-12-15T22:24:35Z</time>
      </trkpt>
      <trkpt lat="44.87693" lon="5.79691">
        <ele>766.3</ele>
        <time>2017-12-15T22:24:45Z</time>
      </trkpt>
      <trkpt lat="44.87725" lon="5.7964">
        <ele>749.8</ele>
        <time>2017-12-15T22:25:04Z</time>
      </trkpt>
      <trkpt lat="44.87738" lon="5.79609">
        <ele>749.9</ele>
        <time>2017-12-15T22:25:15Z</time>
      </trkpt>
      <trkpt lat="44.87751" lon="5.79569">
        <ele>750.3</ele>
        <time>2017-12-15T22:25:27Z</time>
      </trkpt>
      <trkpt lat="44.87771" lon="5.79502">
        <ele>746.2</ele>
        <time>2017-12-15T22:25:31Z</time>
      </trkpt>
      <trkpt lat="44.87784" lon="5.79469">
        <ele>741.2</ele>
        <time>2017-12-15T22:25:43Z</time>
      </trkpt>
      <trkpt lat="44.87802" lon="5.79432">
        <ele>731.8</ele>
        <time>2017-12-15T22:26:03Z</time>
      </trkpt>
      <trkpt lat="44.87807" lon="5.79418">
        <ele>730.5</ele>
        <time>2017-12-15T22:26:16Z</time>
      </trkpt>
      <trkpt lat="44.8781" lon="5.79392">
        <ele>734.5</ele>
        <time>2017-12-15T22:26:18Z</time>
      </trkpt>
      <trkpt lat="44.87814" lon="5.79373">
        <ele>736</ele>
        <time>2017-12-15T22:26:38Z</time>
      </trkpt>
      <trkpt lat="44.87822" lon="5.79353">
        <ele>734.1</ele>
        <time>2017-12-15T22:26:43Z</time>
      </trkpt>
      <trkpt lat="44.8783" lon="5.79335">
        <ele>731.4</ele>
        <time>2017-12-15T22:26:58Z</time>
      </trkpt>
      <trkpt lat="44.87839" lon="5.79309">
        <ele>727.8</ele>
        <time>2017-12-15T22:27:02Z</time>
      </trkpt>
      <trkpt lat="44.87843" lon="5.79303">
        <ele>725.3</ele>
        <time>2017-12-15T22:27:09Z</time>
      </trkpt>
      <trkpt lat="44.87846" lon="5.79304">
        <ele>722.7</ele>
        <time>2017-12-15T22:27:11Z</time>
      </trkpt>
      <trkpt lat="44.87848" lon="5.7931">
        <ele>720.2</ele>
        <time>2017-12-15T22:27:24Z</time>
      </trkpt>
      <trkpt lat="44.87838" lon="5.79329">
        <ele>725.8</ele>
        <time>2017-12-15T22:27:29Z</time>
      </trkpt>
      <trkpt lat="44.87815" lon="5.7938">
        <ele>733.4</ele>
        <time>2017-12-15T22:27:33Z</time>
      </trkpt>
      <trkpt lat="44.87811" lon="5.79414">
        <ele>728.2</ele>
        <time>2017-12-15T22:27:40Z</time>
      </trkpt>
      <trkpt lat="44.87806" lon="5.79431">
        <ele>728.5</ele>
        <time>2017-12-15T22:27:49Z</time>
      </trkpt>
      <trkpt lat="44.87786" lon="5.79484">
        <ele>736.5</ele>
        <time>2017-12-15T22:28:05Z</time>
      </trkpt>
      <trkpt lat="44.87783" lon="5.79509">
        <ele>734.1</ele>
        <time>2017-12-15T22:28:19Z</time>
      </trkpt>
      <trkpt lat="44.87779" lon="5.79591">
        <ele>720.6</ele>
        <time>2017-12-15T22:28:24Z</time>
      </trkpt>
      <trkpt lat="44.87769" lon="5.79658">
        <ele>699.3</ele>
        <time>2017-12-15T22:28:39Z</time>
      </trkpt>
      <trkpt lat="44.87773" lon="5.79667">
        <ele>690.7</ele>
        <time>2017-12-15T22:28:52Z</time>
      </trkpt>
      <trkpt lat="44.87779" lon="5.79664">
        <ele>687.7</ele>
        <time>2017-12-15T22:29:12Z</time>
      </trkpt>
      <trkpt lat="44.87787" lon="5.79642">
        <ele>694.6</ele>
        <time>2017-12-15T22:29:18Z</time>
      </trkpt>
      <trkpt lat="44.87815" lon="5.79562">
        <ele>698.4</ele>
        <time>2017-12-15T22:29:34Z</time>
      </trkpt>
      <trkpt lat="44.87863" lon="5.79354">
        <ele>700</ele>
        <time>2017-12-15T22:29:39Z</time>
      </trkpt>
      <trkpt lat="44.87868" lon="5.7934">
        <ele>698.9</ele>
        <time>2017-12-15T22:29:48Z</time>
      </trkpt>
      <trkpt lat="44.87872" lon="5.79334">
        <ele>696.8</ele>
        <time>2017-12-15T22:29:55Z</time>
      </trkpt>
      <trkpt lat="44.87875" lon="5.79334">
        <ele>694.4</ele>
        <time>2017-12-15T22:30:06Z</time>
      </trkpt>
      <trkpt lat="44.8788" lon="5.79335">
        <ele>690</ele>
        <time>2017-12-15T22:30:26Z</time>
      </trkpt>
      <trkpt lat="44.87881" lon="5.79338">
        <ele>688.5</ele>
        <time>2017-12-15T22:30:43Z</time>
      </trkpt>
      <trkpt lat="44.87883" lon="5.79348">
        <ele>684.7</ele>
        <time>2017-12-15T22:30:54Z</time>
      </trkpt>
      <trkpt lat="44.87857" lon="5.79539">
        <ele>669.7</ele>
        <time>2017-12-15T22:31:14Z</time>
      </trkpt>
      <trkpt lat="44.8786" lon="5.79589">
        <ele>653.8</ele>
        <time>2017-12-15T22:31:32Z</time>
      </trkpt>
      <trkpt lat="44.87865" lon="5.79618">
        <ele>636.8</ele>
        <time>2017-12-15T22:31:37Z</time>
      </trkpt>
      <trkpt lat="44.87868" lon="5.79669">
        <ele>610.2</ele>
        <time>2017-12-15T22:31:44Z</time>
      </trkpt>
      <trkpt lat="44.87863" lon="5.79697">
        <ele>601.6</ele>
        <time>2017-12-15T22:31:49Z</time>
      </trkpt>
      <trkpt lat="44.87862" lon="5.79707">
        <ele>596.9</ele>
        <time>2017-12-15T22:31:52Z</time>
      </trkpt>
      <trkpt lat="44.87864" lon="5.79713">
        <ele>591.4</ele>
        <time>2017-12-15T22:31:54Z</time>
      </trkpt>
      <trkpt lat="44.87866" lon="5.79713">
        <ele>589.4</ele>
        <time>2017-12-15T22:32:10Z</time>
      </trkpt>
      <trkpt lat="44.87868" lon="5.79711">
        <ele>588.6</ele>
        <time>2017-12-15T22:32:25Z</time>
      </trkpt>
      <trkpt lat="44.87871" lon="5.79694">
        <ele>594.9</ele>
        <time>2017-12-15T22:32:38Z</time>
      </trkpt>
      <trkpt lat="44.87876" lon="5.79658">
        <ele>606.3</ele>
        <time>2017-12-15T22:32:57Z</time>
      </trkpt>
      <trkpt lat="44.87881" lon="5.79586">
        <ele>636.3</ele>
        <time>2017-12-15T22:33:11Z</time>
      </trkpt>
      <trkpt lat="44.87883" lon="5.79544">
        <ele>649.6</ele>
        <time>2017-12-15T22:33:20Z</time>
      </trkpt>
      <trkpt lat="44.87887" lon="5.79504">
        <ele>655.5</ele>
        <time>2017-12-15T22:33:22Z</time>
      </trkpt>
      <trkpt lat="44.87895" lon="5.79457">
        <ele>657.3</ele>
        <time>2017-12-15T22:33:28Z</time>
      </trkpt>
      <trkpt lat="44.87894" lon="5.79426">
        <ele>661.7</ele>
        <time>2017-12-15T22:33:36Z</time>
      </trkpt>
      <trkpt lat="44.87899" lon="5.79386">
        <ele>664.7</ele>
        <time>2017-12-15T22:33:53Z</time>
      </trkpt>
      <trkpt lat="44.8791" lon="5.79336">
        <ele>667.2</ele>
        <time>2017-12-15T22:34:02Z</time>
      </trkpt>
      <trkpt lat="44.87918" lon="5.79298">
        <ele>668.7</ele>
        <time>2017-12-15T22:34:08Z</time>
      </trkpt>
      <trkpt lat="44.87919" lon="5.79284">
        <ele>670.9</ele>
        <time>2017-12-15T22:34:14Z</time>
      </trkpt>
      <trkpt lat="44.87921" lon="5.79279">
        <ele>670.5</ele>
        <time>2017-12-15T22:34:29Z</time>
      </trkpt>
      <trkpt lat="44.87924" lon="5.79278">
        <ele>668.4</ele>
        <time>2017-12-15T22:34:45Z</time>
      </trkpt>
      <trkpt lat="44.87927" lon="5.7928">
        <ele>665.8</ele>
        <time>2017-12-15T22:34:58Z</time>
      </trkpt>
      <trkpt lat="44.87927" lon="5.79288">
        <ele>664.3</ele>
        <time>2017-12-15T22:35:07Z</time>
      </trkpt>
      <trkpt lat="44.87918" lon="5.79319">
        <ele>664.7</ele>
        <time>2017-12-15T22:35:16Z</time>
      </trkpt>
      <trkpt lat="44.87911" lon="5.79354">
        <ele>662.6</ele>
        <time>2017-12-15T22:35:33Z</time>
      </trkpt>
      <trkpt lat="44.87907" lon="5.79417">
        <ele>654.9</ele>
        <time>2017-12-15T22:35:49Z</time>
      </trkpt>
      <trkpt lat="44.87905" lon="5.7954">
        <ele>635.9</ele>
        <time>2017-12-15T22:36:08Z</time>
      </trkpt>
      <trkpt lat="44.87905" lon="5.79576">
        <ele>620.6</ele>
        <time>2017-12-15T22:36:14Z</time>
      </trkpt>
      <trkpt lat="44.87907" lon="5.79582">
        <ele>616</ele>
        <time>2017-12-15T22:36:28Z</time>
      </trkpt>
      <trkpt lat="44.8791" lon="5.79582">
        <ele>613.4</ele>
        <time>2017-12-15T22:36:31Z</time>
      </trkpt>
      <trkpt lat="44.87914" lon="5.79577">
        <ele>612.6</ele>
        <time>2017-12-15T22:36:40Z</time>
      </trkpt>
      <trkpt lat="44.87914" lon="5.79531">
        <ele>633.4</ele>
        <time>2017-12-15T22:37:00Z</time>
      </trkpt>
      <trkpt lat="44.8794" lon="5.79408">
        <ele>638.8</ele>
        <time>2017-12-15T22:37:02Z</time>
      </trkpt>
      <trkpt lat="44.87953" lon="5.79349">
        <ele>638.6</ele>
        <time>2017-12-15T22:37:06Z</time>
      </trkpt>
      <trkpt lat="44.87965" lon="5.79319">
        <ele>635.6</ele>
        <time>2017-12-15T22:37:09Z</time>
      </trkpt>
      <trkpt lat="44.87976" lon="5.79294">
        <ele>629.6</ele>
        <time>2017-12-15T22:37:11Z</time>
      </trkpt>
      <trkpt lat="44.87981" lon="5.79294">
        <ele>626.4</ele>
        <time>2017-12-15T22:37:14Z</time>
      </trkpt>
      <trkpt lat="44.87983" lon="5.79301">
        <ele>625.5</ele>
        <time>2017-12-15T22:37:19Z</time>
      </trkpt>
      <trkpt lat="44.87978" lon="5.79312">
        <ele>628.5</ele>
        <time>2017-12-15T22:37:28Z</time>
      </trkpt>
      <trkpt lat="44.8797" lon="5.79331">
        <ele>632.2</ele>
        <time>2017-12-15T22:37:35Z</time>
      </trkpt>
      <trkpt lat="44.87967" lon="5.79348">
        <ele>631.9</ele>
        <time>2017-12-15T22:37:44Z</time>
      </trkpt>
      <trkpt lat="44.87968" lon="5.7939">
        <ele>627.8</ele>
        <time>2017-12-15T22:37:57Z</time>
      </trkpt>
      <trkpt lat="44.87967" lon="5.79433">
        <ele>626</ele>
        <time>2017-12-15T22:38:07Z</time>
      </trkpt>
      <trkpt lat="44.87965" lon="5.79475">
        <ele>620.9</ele>
        <time>2017-12-15T22:38:13Z</time>
      </trkpt>
      <trkpt lat="44.87963" lon="5.795">
        <ele>615.3</ele>
        <time>2017-12-15T22:38:19Z</time>
      </trkpt>
      <trkpt lat="44.87965" lon="5.79504">
        <ele>612.4</ele>
        <time>2017-12-15T22:38:32Z</time>
      </trkpt>
      <trkpt lat="44.87972" lon="5.79506">
        <ele>607.3</ele>
        <time>2017-12-15T22:38:48Z</time>
      </trkpt>
      <trkpt lat="44.87977" lon="5.79502">
        <ele>605.6</ele>
        <time>2017-12-15T22:39:07Z</time>
      </trkpt>
      <trkpt lat="44.8799" lon="5.79481">
        <ele>604</ele>
        <time>2017-12-15T22:39:15Z</time>
      </trkpt>
      <trkpt lat="44.88006" lon="5.79443">
        <ele>603.9</ele>
        <time>2017-12-15T22:39:27Z</time>
      </trkpt>
      <trkpt lat="44.88039" lon="5.79361">
        <ele>590.7</ele>
        <time>2017-12-15T22:39:46Z</time>
      </trkpt>
      <trkpt lat="44.88042" lon="5.7934">
        <ele>587.4</ele>
        <time>2017-12-15T22:40:04Z</time>
      </trkpt>
      <trkpt lat="44.88039" lon="5.79309">
        <ele>584.8</ele>
        <time>2017-12-15T22:40:21Z</time>
      </trkpt>
      <trkpt lat="44.8804" lon="5.79299">
        <ele>581.2</ele>
        <time>2017-12-15T22:40:39Z</time>
      </trkpt>
      <trkpt lat="44.88044" lon="5.7929">
        <ele>574.3</ele>
        <time>2017-12-15T22:40:41Z</time>
      </trkpt>
      <trkpt lat="44.88043" lon="5.79283">
        <ele>573.2</ele>
        <time>2017-12-15T22:40:55Z</time>
      </trkpt>
      <trkpt lat="44.8804" lon="5.79271">
        <ele>572.5</ele>
        <time>2017-12-15T22:41:04Z</time>
      </trkpt>
      <trkpt lat="44.8803" lon="5.79255">
        <ele>578.8</ele>
        <time>2017-12-15T22:41:11Z</time>
      </trkpt>
      <trkpt lat="44.88011" lon="5.79239">
        <ele>591</ele>
        <time>2017-12-15T22:41:29Z</time>
      </trkpt>
      <trkpt lat="44.87997" lon="5.79225">
        <ele>599.1</ele>
        <time>2017-12-15T22:41:48Z</time>
      </trkpt>
      <trkpt lat="44.8799" lon="5.79209">
        <ele>599.7</ele>
        <time>2017-12-15T22:41:52Z</time>
      </trkpt>
      <trkpt lat="44.8798" lon="5.79169">
        <ele>595.8</ele>
        <time>2017-12-15T22:42:02Z</time>
      </trkpt>
      <trkpt lat="44.87953" lon="5.79113">
        <ele>602.8</ele>
        <time>2017-12-15T22:42:15Z</time>
      </trkpt>
      <trkpt lat="44.87917" lon="5.79061">
        <ele>612.7</ele>
        <time>2017-12-15T22:42:27Z</time>
      </trkpt>
      <trkpt lat="44.87912" lon="5.79047">
        <ele>612.4</ele>
        <time>2017-12-15T22:42:30Z</time>
      </trkpt>
      <trkpt lat="44.87907" lon="5.79011">
        <ele>609.7</ele>
        <time>2017-12-15T22:42:44Z</time>
      </trkpt>
      <trkpt lat="44.87906" lon="5.78974">
        <ele>610.5</ele>
        <time>2017-12-15T22:42:53Z</time>
      </trkpt>
      <trkpt lat="44.8791" lon="5.7896">
        <ele>609.2</ele>
        <time>2017-12-15T22:42:56Z</time>
      </trkpt>
      <trkpt lat="44.87922" lon="5.78938">
        <ele>602.4</ele>
        <time>2017-12-15T22:43:06Z</time>
      </trkpt>
      <trkpt lat="44.87926" lon="5.78918">
        <ele>602.7</ele>
        <time>2017-12-15T22:43:09Z</time>
      </trkpt>
      <trkpt lat="44.87923" lon="5.78897">
        <ele>611.9</ele>
        <time>2017-12-15T22:43:29Z</time>
      </trkpt>
      <trkpt lat="44.87925" lon="5.78885">
        <ele>613.8</ele>
        <time>2017-12-15T22:43:42Z</time>
      </trkpt>
      <trkpt lat="44.87928" lon="5.78877">
        <ele>613.7</ele>
        <time>2017-12-15T22:43:55Z</time>
      </trkpt>
      <trkpt lat="44.87938" lon="5.78867">
        <ele>606.8</ele>
        <time>2017-12-15T22:44:08Z</time>
      </trkpt>
      <trkpt lat="44.8795" lon="5.78857">
        <ele>597.5</ele>
        <time>2017-12-15T22:44:14Z</time>
      </trkpt>
      <trkpt lat="44.87957" lon="5.78847">
        <ele>593.5</ele>
        <time>2017-12-15T22:44:29Z</time>
      </trkpt>
      <trkpt lat="44.8796" lon="5.78785">
        <ele>598.1</ele>
        <time>2017-12-15T22:44:47Z</time>
      </trkpt>
      <trkpt lat="44.87957" lon="5.78764">
        <ele>597.7</ele>
        <time>2017-12-15T22:44:57Z</time>
      </trkpt>
      <trkpt lat="44.8795" lon="5.7875">
        <ele>603</ele>
        <time>2017-12-15T22:45:15Z</time>
      </trkpt>
      <trkpt lat="44.87938" lon="5.78733">
        <ele>612.2</ele>
        <time>2017-12-15T22:45:23Z</time>
      </trkpt>
      <trkpt lat="44.8793" lon="5.78714">
        <ele>615.5</ele>
        <time>2017-12-15T22:45:27Z</time>
      </trkpt>
      <trkpt lat="44.87924" lon="5.78699">
        <ele>617.4</ele>
        <time>2017-12-15T22:45:30Z</time>
      </trkpt>
      <trkpt lat="44.87917" lon="5.7868">
        <ele>619</ele>
        <time>2017-12-15T22:45:46Z</time>
      </trkpt>
      <trkpt lat="44.87916" lon="5.78655">
        <ele>612.7</ele>
        <time>2017-12-15T22:45:48Z</time>
      </trkpt>
      <trkpt lat="44.87915" lon="5.78635">
        <ele>608.3</ele>
        <time>2017-12-15T22:46:02Z</time>
      </trkpt>
      <trkpt lat="44.87909" lon="5.78616">
        <ele>607.6</ele>
        <time>2017-12-15T22:46:06Z</time>
      </trkpt>
      <trkpt lat="44.87898" lon="5.786">
        <ele>610.6</ele>
        <time>2017-12-15T22:46:17Z</time>
      </trkpt>
      <trkpt lat="44.87879" lon="5.78583">
        <ele>616.6</ele>
        <time>2017-12-15T22:46:33Z</time>
      </trkpt>
      <trkpt lat="44.87843" lon="5.78573">
        <ele>631.2</ele>
        <time>2017-12-15T22:46:38Z</time>
      </trkpt>
      <trkpt lat="44.87822" lon="5.78568">
        <ele>637.5</ele>
        <time>2017-12-15T22:46:49Z</time>
      </trkpt>
      <trkpt lat="44.87794" lon="5.78555">
        <ele>639.1</ele>
        <time>2017-12-15T22:47:00Z</time>
      </trkpt>
      <trkpt lat="44.87753" lon="5.78534">
        <ele>638.5</ele>
        <time>2017-12-15T22:47:05Z</time>
      </trkpt>
      <trkpt lat="44.87722" lon="5.78515">
        <ele>637.8</ele>
        <time>2017-12-15T22:47:12Z</time>
      </trkpt>
      <trkpt lat="44.87705" lon="5.78487">
        <ele>626.8</ele>
        <time>2017-12-15T22:47:32Z</time>
      </trkpt>
      <trkpt lat="44.87691" lon="5.78479">
        <ele>627.9</ele>
        <time>2017-12-15T22:47:40Z</time>
      </trkpt>
      <trkpt lat="44.87674" lon="5.78478">
        <ele>634.7</ele>
        <time>2017-12-15T22:47:43Z</time>
      </trkpt>
      <trkpt lat="44.87647" lon="5.78472">
        <ele>641.6</ele>
        <time>2017-12-15T22:47:47Z</time>
      </trkpt>
      <trkpt lat="44.87632" lon="5.78465">
        <ele>642.4</ele>
        <time>2017-12-15T22:48:06Z</time>
      </trkpt>
      <trkpt lat="44.87614" lon="5.78445">
        <ele>635.3</ele>
        <time>2017-12-15T22:48:25Z</time>
      </trkpt>
      <trkpt lat="44.876" lon="5.78441">
        <ele>636.5</ele>
        <time>2017-12-15T22:48:34Z</time>
      </trkpt>
      <trkpt lat="44.87576" lon="5.78448">
        <ele>647.4</ele>
        <time>2017-12-15T22:48:45Z</time>
      </trkpt>
      <trkpt lat="44.8757" lon="5.78448">
        <ele>649.2</ele>
        <time>2017-12-15T22:49:03Z</time>
      </trkpt>
      <trkpt lat="44.87561" lon="5.78442">
        <ele>647.8</ele>
        <time>2017-12-15T22:49:06Z</time>
      </trkpt>
      <trkpt lat="44.87547" lon="5.78434">
        <ele>647</ele>
        <time>2017-12-15T22:49:18Z</time>
      </trkpt>
      <trkpt lat="44.87533" lon="5.78433">
        <ele>650.9</ele>
        <time>2017-12-15T22:49:29Z</time>
      </trkpt>
      <trkpt lat="44.87524" lon="5.78428">
        <ele>652.1</ele>
        <time>2017-12-15T22:49:42Z</time>
      </trkpt>
      <trkpt lat="44.87516" lon="5.78421">
        <ele>653.6</ele>
        <time>2017-12-15T22:50:02Z</time>
      </trkpt>
      <trkpt lat="44.87506" lon="5.78405">
        <ele>652</ele>
        <time>2017-12-15T22:50:09Z</time>
      </trkpt>
      <trkpt lat="44.87493" lon="5.78381">
        <ele>653.1</ele>
        <time>2017-12-15T22:50:14Z</time>
      </trkpt>
      <trkpt lat="44.87466" lon="5.78351">
        <ele>668.7</ele>
        <time>2017-12-15T22:50:23Z</time>
      </trkpt>
      <trkpt lat="44.87457" lon="5.78321">
        <ele>657.2</ele>
        <time>2017-12-15T22:50:33Z</time>
      </trkpt>
      <trkpt lat="44.87451" lon="5.78312">
        <ele>655.4</ele>
        <time>2017-12-15T22:50:53Z</time>
      </trkpt>
      <trkpt lat="44.87443" lon="5.78306">
        <ele>656.1</ele>
        <time>2017-12-15T22:50:55Z</time>
      </trkpt>
      <trkpt lat="44.87428" lon="5.78306">
        <ele>664.2</ele>
        <time>2017-12-15T22:51:05Z</time>
      </trkpt>
      <trkpt lat="44.87407" lon="5.78296">
        <ele>672.3</ele>
        <time>2017-12-15T22:51:11Z</time>
      </trkpt>
      <trkpt lat="44.87393" lon="5.78282">
        <ele>674.6</ele>
        <time>2017-12-15T22:51:18Z</time>
      </trkpt>
      <trkpt lat="44.87383" lon="5.78268">
        <ele>674.7</ele>
        <time>2017-12-15T22:51:21Z</time>
      </trkpt>
      <trkpt lat="44.87362" lon="5.78237">
        <ele>674.3</ele>
        <time>2017-12-15T22:51:37Z</time>
      </trkpt>
      <trkpt lat="44.8735" lon="5.78217">
        <ele>675</ele>
        <time>2017-12-15T22:51:42Z</time>
      </trkpt>
      <trkpt lat="44.87334" lon="5.78164">
        <ele>674.7</ele>
        <time>2017-12-15T22:51:50Z</time>
      </trkpt>
      <trkpt lat="44.87323" lon="5.78118">
        <ele>671</ele>
        <time>2017-12-15T22:52:10Z</time>
      </trkpt>
      <trkpt lat="44.87324" lon="5.78099">
        <ele>667.3</ele>
        <time>2017-12-15T22:52:30Z</time>
      </trkpt>
      <trkpt lat="44.87331" lon="5.78075">
        <ele>660.4</ele>
        <time>2017-12-15T22:52:45Z</time>
      </trkpt>
      <trkpt lat="44.87333" lon="5.78064">
        <ele>658.5</ele>
        <time>2017-12-15T22:52:55Z</time>
      </trkpt>
      <trkpt lat="44.87331" lon="5.78056">
        <ele>659.3</ele>
        <time>2017-12-15T22:53:12Z</time>
      </trkpt>
      <trkpt lat="44.87327" lon="5.78049">
        <ele>660.6</ele>
        <time>2017-12-15T22:53:26Z</time>
      </trkpt>
      <trkpt lat="44.87319" lon="5.78047">
        <ele>664</ele>
        <time>2017-12-15T22:53:45Z</time>
      </trkpt>
      <trkpt lat="44.87305" lon="5.78049">
        <ele>670.9</ele>
        <time>2017-12-15T22:53:49Z</time>
      </trkpt>
      <trkpt lat="44.87282" lon="5.78053">
        <ele>674.4</ele>
        <time>2017-12-15T22:53:55Z</time>
      </trkpt>
      <trkpt lat="44.8725" lon="5.78062">
        <ele>677.2</ele>
        <time>2017-12-15T22:54:02Z</time>
      </trkpt>
      <trkpt lat="44.87218" lon="5.78078">
        <ele>681.9</ele>
        <time>2017-12-15T22:54:18Z</time>
      </trkpt>
      <trkpt lat="44.87185" lon="5.78089">
        <ele>686.1</ele>
        <time>2017-12-15T22:54:30Z</time>
      </trkpt>
      <trkpt lat="44.87176" lon="5.7809">
        <ele>687.1</ele>
        <time>2017-12-15T22:54:36Z</time>
      </trkpt>
      <trkpt lat="44.8716" lon="5.78089">
        <ele>687.5</ele>
        <time>2017-12-15T22:54:38Z</time>
      </trkpt>
      <trkpt lat="44.87101" lon="5.7807">
        <ele>688.7</ele>
        <time>2017-12-15T22:54:53Z</time>
      </trkpt>
      <trkpt lat="44.87068" lon="5.78055">
        <ele>691.8</ele>
        <time>2017-12-15T22:54:55Z</time>
      </trkpt>
      <trkpt lat="44.87062" lon="5.78051">
        <ele>692.4</ele>
        <time>2017-12-15T22:55:09Z</time>
      </trkpt>
      <trkpt lat="44.87049" lon="5.78037">
        <ele>692.8</ele>
        <time>2017-12-15T22:55:22Z</time>
      </trkpt>
      <trkpt lat="44.87031" lon="5.78009">
        <ele>692.2</ele>
        <time>2017-12-15T22:55:39Z</time>
      </trkpt>
      <trkpt lat="44.87007" lon="5.77966">
        <ele>691.2</ele>
        <time>2017-12-15T22:55:47Z</time>
      </trkpt>
      <trkpt lat="44.86991" lon="5.77932">
        <ele>689.3</ele>
        <time>2017-12-15T22:55:54Z</time>
      </trkpt>
      <trkpt lat="44.8698" lon="5.77909">
        <ele>687.5</ele>
        <time>2017-12-15T22:55:56Z</time>
      </trkpt>
      <trkpt lat="44.86968" lon="5.77894">
        <ele>687.9</ele>
        <time>2017-12-15T22:56:01Z</time>
      </trkpt>
      <trkpt lat="44.86958" lon="5.77889">
        <ele>688.6</ele>
        <time>2017-12-15T22:56:18Z</time>
      </trkpt>
      <trkpt lat="44.86948" lon="5.77888">
        <ele>690.2</ele>
        <time>2017-12-15T22:56:30Z</time>
      </trkpt>
      <trkpt lat="44.86931" lon="5.77895">
        <ele>693.6</ele>
        <time>2017-12-15T22:56:39Z</time>
      </trkpt>
      <trkpt lat="44.86892" lon="5.77922">
        <ele>701.6</ele>
        <time>2017-12-15T22:56:46Z</time>
      </trkpt>
      <trkpt lat="44.86854" lon="5.7794">
        <ele>703.1</ele>
        <time>2017-12-15T22:57:04Z</time>
      </trkpt>
      <trkpt lat="44.8682" lon="5.77951">
        <ele>702.6</ele>
        <time>2017-12-15T22:57:13Z</time>
      </trkpt>
      <trkpt lat="44.86801" lon="5.7796">
        <ele>702.9</ele>
        <time>2017-12-15T22:57:15Z</time>
      </trkpt>
      <trkpt lat="44.86785" lon="5.77976">
        <ele>704.5</ele>
        <time>2017-12-15T22:57:28Z</time>
      </trkpt>
      <trkpt lat="44.86761" lon="5.78">
        <ele>705.6</ele>
        <time>2017-12-15T22:57:31Z</time>
      </trkpt>
      <trkpt lat="44.86741" lon="5.78015">
        <ele>706.2</ele>
        <time>2017-12-15T22:57:40Z</time>
      </trkpt>
      <trkpt lat="44.86722" lon="5.78025">
        <ele>705.6</ele>
        <time>2017-12-15T22:57:58Z</time>
      </trkpt>
      <trkpt lat="44.86706" lon="5.78028">
        <ele>707.8</ele>
        <time>2017-12-15T22:58:13Z</time>
      </trkpt>
      <trkpt lat="44.86689" lon="5.78025">
        <ele>710.1</ele>
        <time>2017-12-15T22:58:21Z</time>
      </trkpt>
      <trkpt lat="44.86682" lon="5.7802">
        <ele>711.3</ele>
        <time>2017-12-15T22:58:40Z</time>
      </trkpt>
      <trkpt lat="44.86676" lon="5.78011">
        <ele>711.8</ele>
        <time>2017-12-15T22:58:46Z</time>
      </trkpt>
      <trkpt lat="44.86666" lon="5.77982">
        <ele>712.6</ele>
        <time>2017-12-15T22:59:06Z</time>
      </trkpt>
      <trkpt lat="44.86656" lon="5.7796">
        <ele>715.6</ele>
        <time>2017-12-15T22:59:24Z</time>
      </trkpt>
      <trkpt lat="44.86638" lon="5.77922">
        <ele>719</ele>
        <time>2017-12-15T22:59:27Z</time>
      </trkpt>
      <trkpt lat="44.8663" lon="5.779">
        <ele>719.1</ele>
        <time>2017-12-15T22:59:33Z</time>
      </trkpt>
      <trkpt lat="44.86619" lon="5.77842">
        <ele>712.1</ele>
        <time>2017-12-15T22:59:45Z</time>
      </trkpt>
      <trkpt lat="44.86604" lon="5.77825">
        <ele>714.4</ele>
        <time>2017-12-15T23:00:00Z</time>
      </trkpt>
      <trkpt lat="44.86559" lon="5.77808">
        <ele>725.5</ele>
        <time>2017-12-15T23:00:20Z</time>
      </trkpt>
      <trkpt lat="44.86529" lon="5.77793">
        <ele>730</ele>
        <time>2017-12-15T23:00:24Z</time>
      </trkpt>
      <trkpt lat="44.86514" lon="5.77776">
        <ele>730.7</ele>
        <time>2017-12-15T23:00:30Z</time>
      </trkpt>
      <trkpt lat="44.86504" lon="5.77752">
        <ele>729.3</ele>
        <time>2017-12-15T23:00:50Z</time>
      </trkpt>
      <trkpt lat="44.86493" lon="5.77698">
        <ele>729.5</ele>
        <time>2017-12-15T23:00:55Z</time>
      </trkpt>
      <trkpt lat="44.86485" lon="5.7767">
        <ele>732.5</ele>
        <time>2017-12-15T23:01:01Z</time>
      </trkpt>
      <trkpt lat="44.86478" lon="5.77651">
        <ele>733.4</ele>
        <time>2017-12-15T23:01:18Z</time>
      </trkpt>
      <trkpt lat="44.86469" lon="5.77637">
        <ele>734.4</ele>
        <time>2017-12-15T23:01:23Z</time>
      </trkpt>
      <trkpt lat="44.86442" lon="5.77597">
        <ele>737.4</ele>
        <time>2017-12-15T23:01:36Z</time>
      </trkpt>
      <trkpt lat="44.86435" lon="5.77574">
        <ele>738.6</ele>
        <time>2017-12-15T23:01:51Z</time>
      </trkpt>
      <trkpt lat="44.86426" lon="5.7753">
        <ele>739.7</ele>
        <time>2017-12-15T23:02:08Z</time>
      </trkpt>
      <trkpt lat="44.8641" lon="5.77485">
        <ele>742</ele>
        <time>2017-12-15T23:02:15Z</time>
      </trkpt>
      <trkpt lat="44.86385" lon="5.77438">
        <ele>745.6</ele>
        <time>2017-12-15T23:02:21Z</time>
      </trkpt>
      <trkpt lat="44.86374" lon="5.77414">
        <ele>746.5</ele>
        <time>2017-12-15T23:02:36Z</time>
      </trkpt>
      <trkpt lat="44.86357" lon="5.77388">
        <ele>748.9</ele>
        <time>2017-12-15T23:02:38Z</time>
      </trkpt>
      <trkpt lat="44.86298" lon="5.77315">
        <ele>753.4</ele>
        <time>2017-12-15T23:02:51Z</time>
      </trkpt>
      <trkpt lat="44.86282" lon="5.7728">
        <ele>754</ele>
        <time>2017-12-15T23:03:04Z</time>
      </trkpt>
      <trkpt lat="44.86257" lon="5.77196">
        <ele>759.5</ele>
        <time>2017-12-15T23:03:11Z</time>
      </trkpt>
      <trkpt lat="44.86244" lon="5.77164">
        <ele>760.6</ele>
        <time>2017-12-15T23:03:19Z</time>
      </trkpt>
      <trkpt lat="44.8623" lon="5.77143">
        <ele>762.1</ele>
        <time>2017-12-15T23:03:27Z</time>
      </trkpt>
      <trkpt lat="44.86208" lon="5.77108">
        <ele>763.9</ele>
        <time>2017-12-15T23:03:34Z</time>
      </trkpt>
      <trkpt lat="44.86202" lon="5.77082">
        <ele>764.3</ele>
        <time>2017-12-15T23:03:40Z</time>
      </trkpt>
      <trkpt lat="44.86201" lon="5.77068">
        <ele>764.3</ele>
        <time>2017-12-15T23:03:48Z</time>
      </trkpt>
      <trkpt lat="44.86205" lon="5.77021">
        <ele>766.6</ele>
        <time>2017-12-15T23:03:59Z</time>
      </trkpt>
      <trkpt lat="44.86207" lon="5.76994">
        <ele>768.4</ele>
        <time>2017-12-15T23:04:02Z</time>
      </trkpt>
      <trkpt lat="44.86205" lon="5.7698">
        <ele>769.2</ele>
        <time>2017-12-15T23:04:05Z</time>
      </trkpt>
      <trkpt lat="44.86199" lon="5.76964">
        <ele>770.3</ele>
        <time>2017-12-15T23:04:25Z</time>
      </trkpt>
      <trkpt lat="44.86158" lon="5.76908">
        <ele>774.7</ele>
        <time>2017-12-15T23:04:31Z</time>
      </trkpt>
      <trkpt lat="44.86151" lon="5.76883">
        <ele>776.2</ele>
        <time>2017-12-15T23:04:45Z</time>
      </trkpt>
      <trkpt lat="44.8615" lon="5.76869">
        <ele>776.9</ele>
        <time>2017-12-15T23:04:57Z</time>
      </trkpt>
      <trkpt lat="44.86155" lon="5.76821">
        <ele>778.6</ele>
        <time>2017-12-15T23:05:08Z</time>
      </trkpt>
      <trkpt lat="44.86172" lon="5.76709">
        <ele>782.3</ele>
        <time>2017-12-15T23:05:13Z</time>
      </trkpt>
      <trkpt lat="44.86173" lon="5.76682">
        <ele>782.6</ele>
        <time>2017-12-15T23:05:30Z</time>
      </trkpt>
      <trkpt lat="44.86171" lon="5.76672">
        <ele>783.1</ele>
        <time>2017-12-15T23:05:46Z</time>
      </trkpt>
      <trkpt lat="44.86164" lon="5.76657">
        <ele>784</ele>
        <time>2017-12-15T23:06:06Z</time>
      </trkpt>
      <trkpt lat="44.86158" lon="5.7665">
        <ele>784.3</ele>
        <time>2017-12-15T23:06:21Z</time>
      </trkpt>
      <trkpt lat="44.86146" lon="5.76645">
        <ele>785</ele>
        <time>2017-12-15T23:06:37Z</time>
      </trkpt>
      <trkpt lat="44.86133" lon="5.76645">
        <ele>785.9</ele>
        <time>2017-12-15T23:06:57Z</time>
      </trkpt>
      <trkpt lat="44.86121" lon="5.76653">
        <ele>787.2</ele>
        <time>2017-12-15T23:07:01Z</time>
      </trkpt>
      <trkpt lat="44.86093" lon="5.7669">
        <ele>791.7</ele>
        <time>2017-12-15T23:07:21Z</time>
      </trkpt>
      <trkpt lat="44.86081" lon="5.76703">
        <ele>793.5</ele>
        <time>2017-12-15T23:07:37Z</time>
      </trkpt>
      <trkpt lat="44.8607" lon="5.76707">
        <ele>794.3</ele>
        <time>2017-12-15T23:07:41Z</time>
      </trkpt>
      <trkpt lat="44.86048" lon="5.76709">
        <ele>795</ele>
        <time>2017-12-15T23:07:59Z</time>
      </trkpt>
      <trkpt lat="44.86005" lon="5.7671">
        <ele>797.1</ele>
        <time>2017-12-15T23:08:08Z</time>
      </trkpt>
      <trkpt lat="44.85983" lon="5.76708">
        <ele>798.2</ele>
        <time>2017-12-15T23:08:18Z</time>
      </trkpt>
      <trkpt lat="44.85962" lon="5.76704">
        <ele>799.1</ele>
        <time>2017-12-15T23:08:38Z</time>
      </trkpt>
      <trkpt lat="44.85942" lon="5.76696">
        <ele>799.5</ele>
        <time>2017-12-15T23:08:53Z</time>
      </trkpt>
      <trkpt lat="44.85918" lon="5.76688">
        <ele>800.9</ele>
        <time>2017-12-15T23:08:58Z</time>
      </trkpt>
      <trkpt lat="44.85895" lon="5.76683">
        <ele>801.8</ele>
        <time>2017-12-15T23:09:08Z</time>
      </trkpt>
      <trkpt lat="44.85857" lon="5.76671">
        <ele>804.9</ele>
        <time>2017-12-15T23:09:20Z</time>
      </trkpt>
      <trkpt lat="44.8584" lon="5.7666">
        <ele>806.8</ele>
        <time>2017-12-15T23:09:27Z</time>
      </trkpt>
      <trkpt lat="44.85824" lon="5.7664">
        <ele>809.1</ele>
        <time>2017-12-15T23:09:31Z</time>
      </trkpt>
      <trkpt lat="44.85807" lon="5.76612">
        <ele>810.9</ele>
        <time>2017-12-15T23:09:43Z</time>
      </trkpt>
      <trkpt lat="44.85783" lon="5.76551">
        <ele>813.4</ele>
        <time>2017-12-15T23:09:52Z</time>
      </trkpt>
      <trkpt lat="44.85776" lon="5.76501">
        <ele>816.2</ele>
        <time>2017-12-15T23:09:55Z</time>
      </trkpt>
      <trkpt lat="44.85774" lon="5.76469">
        <ele>816.6</ele>
        <time>2017-12-15T23:10:08Z</time>
      </trkpt>
      <trkpt lat="44.8577" lon="5.76444">
        <ele>817.8</ele>
        <time>2017-12-15T23:10:23Z</time>
      </trkpt>
      <trkpt lat="44.85765" lon="5.76431">
        <ele>818.2</ele>
        <time>2017-12-15T23:10:31Z</time>
      </trkpt>
      <trkpt lat="44.85758" lon="5.76421">
        <ele>818.5</ele>
        <time>2017-12-15T23:10:41Z</time>
      </trkpt>
      <trkpt lat="44.85742" lon="5.76407">
        <ele>819.3</ele>
        <time>2017-12-15T23:10:45Z</time>
      </trkpt>
      <trkpt lat="44.85659" lon="5.76367">
        <ele>821</ele>
        <time>2017-12-15T23:10:47Z</time>
      </trkpt>
      <trkpt lat="44.85542" lon="5.76299">
        <ele>820.4</ele>
        <time>2017-12-15T23:10:50Z</time>
      </trkpt>
      <trkpt lat="44.85483" lon="5.76263">
        <ele>820</ele>
        <time>2017-12-15T23:11:07Z</time>
      </trkpt>
      <trkpt lat="44.85451" lon="5.76245">
        <ele>820</ele>
        <time>2017-12-15T23:11:21Z</time>
      </trkpt>
      <trkpt lat="44.8541" lon="5.76222">
        <ele>820</ele>
        <time>2017-12-15T23:11:34Z</time>
      </trkpt>
      <trkpt lat="44.8538" lon="5.76202">
        <ele>820</ele>
        <time>2017-12-15T23:11:51Z</time>
      </trkpt>
      <trkpt lat="44.8537" lon="5.76197">
        <ele>820</ele>
        <time>2017-12-15T23:11:53Z</time>
      </trkpt>
      <trkpt lat="44.85361" lon="5.76194">
        <ele>820</ele>
        <time>2017-12-15T23:12:08Z</time>
      </trkpt>
      <trkpt lat="44.85348" lon="5.76195">
        <ele>820</ele>
        <time>2017-12-15T23:12:19Z</time>
      </trkpt>
      <trkpt lat="44.8531" lon="5.76216">
        <ele>820</ele>
        <time>2017-12-15T23:12:38Z</time>
      </trkpt>
      <trkpt lat="44.8526" lon="5.76244">
        <ele>820</ele>
        <time>2017-12-15T23:12:41Z</time>
      </trkpt>
      <trkpt lat="44.85154" lon="5.76305">
        <ele>820</ele>
        <time>2017-12-15T23:12:58Z</time>
      </trkpt>
      <trkpt lat="44.85006" lon="5.7639">
        <ele>819.2</ele>
        <time>2017-12-15T23:13:00Z</time>
      </trkpt>
      <trkpt lat="44.84922" lon="5.76437">
        <ele>813.4</ele>
        <time>2017-12-15T23:13:07Z</time>
      </trkpt>
      <trkpt lat="44.84901" lon="5.76451">
        <ele>810.8</ele>
        <time>2017-12-15T23:13:14Z</time>
      </trkpt>
      <trkpt lat="44.8488" lon="5.76467">
        <ele>809.4</ele>
        <time>2017-12-15T23:13:28Z</time>
      </trkpt>
      <trkpt lat="44.84859" lon="5.76488">
        <ele>807.8</ele>
        <time>2017-12-15T23:13:38Z</time>
      </trkpt>
      <trkpt lat="44.84838" lon="5.76514">
        <ele>807.2</ele>
        <time>2017-12-15T23:13:52Z</time>
      </trkpt>
      <trkpt lat="44.84819" lon="5.76542">
        <ele>806.5</ele>
        <time>2017-12-15T23:14:00Z</time>
      </trkpt>
      <trkpt lat="44.84803" lon="5.76573">
        <ele>806.6</ele>
        <time>2017-12-15T23:14:09Z</time>
      </trkpt>
      <trkpt lat="44.84785" lon="5.76604">
        <ele>805.8</ele>
        <time>2017-12-15T23:14:24Z</time>
      </trkpt>
      <trkpt lat="44.84769" lon="5.76627">
        <ele>806.4</ele>
        <time>2017-12-15T23:14:38Z</time>
      </trkpt>
      <trkpt lat="44.84744" lon="5.76638">
        <ele>809.3</ele>
        <time>2017-12-15T23:14:47Z</time>
      </trkpt>
      <trkpt lat="44.8473" lon="5.76641">
        <ele>810.5</ele>
        <time>2017-12-15T23:15:03Z</time>
      </trkpt>
      <trkpt lat="44.84715" lon="5.76639">
        <ele>811.5</ele>
        <time>2017-12-15T23:15:10Z</time>
      </trkpt>
      <trkpt lat="44.8469" lon="5.76629">
        <ele>812</ele>
        <time>2017-12-15T23:15:13Z</time>
      </trkpt>
      <trkpt lat="44.84667" lon="5.76607">
        <ele>812.4</ele>
        <time>2017-12-15T23:15:15Z</time>
      </trkpt>
      <trkpt lat="44.84622" lon="5.76556">
        <ele>811.3</ele>
        <time>2017-12-15T23:15:34Z</time>
      </trkpt>
      <trkpt lat="44.84575" lon="5.76502">
        <ele>810.4</ele>
        <time>2017-12-15T23:15:36Z</time>
      </trkpt>
      <trkpt lat="44.84553" lon="5.76466">
        <ele>812</ele>
        <time>2017-12-15T23:15:45Z</time>
      </trkpt>
      <trkpt lat="44.84537" lon="5.76424">
        <ele>813.3</ele>
        <time>2017-12-15T23:15:49Z</time>
      </trkpt>
      <trkpt lat="44.84527" lon="5.76384">
        <ele>814</ele>
        <time>2017-12-15T23:15:52Z</time>
      </trkpt>
      <trkpt lat="44.84523" lon="5.76349">
        <ele>813.8</ele>
        <time>2017-12-15T23:15:57Z</time>
      </trkpt>
      <trkpt lat="44.84518" lon="5.76295">
        <ele>814.7</ele>
        <time>2017-12-15T23:16:07Z</time>
      </trkpt>
      <trkpt lat="44.84516" lon="5.7628">
        <ele>815.2</ele>
        <time>2017-12-15T23:16:18Z</time>
      </trkpt>
      <trkpt lat="44.84505" lon="5.76241">
        <ele>816.6</ele>
        <time>2017-12-15T23:16:20Z</time>
      </trkpt>
      <trkpt lat="44.84496" lon="5.76222">
        <ele>817.3</ele>
        <time>2017-12-15T23:16:30Z</time>
      </trkpt>
      <trkpt lat="44.84485" lon="5.76205">
        <ele>817.7</ele>
        <time>2017-12-15T23:16:47Z</time>
      </trkpt>
      <trkpt lat="44.84454" lon="5.76172">
        <ele>819.2</ele>
        <time>2017-12-15T23:17:03Z</time>
      </trkpt>
      <trkpt lat="44.84428" lon="5.76146">
        <ele>821.2</ele>
        <time>2017-12-15T23:17:08Z</time>
      </trkpt>
      <trkpt lat="44.84415" lon="5.7613">
        <ele>821.6</ele>
        <time>2017-12-15T23:17:21Z</time>
      </trkpt>
      <trkpt lat="44.84383" lon="5.76077">
        <ele>821.2</ele>
        <time>2017-12-15T23:17:24Z</time>
      </trkpt>
      <trkpt lat="44.84363" lon="5.76042">
        <ele>819.8</ele>
        <time>2017-12-15T23:17:28Z</time>
      </trkpt>
      <trkpt lat="44.84343" lon="5.76015">
        <ele>819.4</ele>
        <time>2017-12-15T23:17:36Z</time>
      </trkpt>
      <trkpt lat="44.84286" lon="5.75962">
        <ele>821</ele>
        <time>2017-12-15T23:17:43Z</time>
      </trkpt>
      <trkpt lat="44.84203" lon="5.75893">
        <ele>826</ele>
        <time>2017-12-15T23:18:02Z</time>
      </trkpt>
      <trkpt lat="44.84137" lon="5.75835">
        <ele>828.4</ele>
        <time>2017-12-15T23:18:10Z</time>
      </trkpt>
      <trkpt lat="44.84107" lon="5.75816">
        <ele>829</ele>
        <time>2017-12-15T23:18:27Z</time>
      </trkpt>
      <trkpt lat="44.8409" lon="5.75812">
        <ele>830</ele>
        <time>2017-12-15T23:18:40Z</time>
      </trkpt>
      <trkpt lat="44.84074" lon="5.7581">
        <ele>830.7</ele>
        <time>2017-12-15T23:18:44Z</time>
      </trkpt>
      <trkpt lat="44.84041" lon="5.75811">
        <ele>831.6</ele>
        <time>2017-12-15T23:18:52Z</time>
      </trkpt>
      <trkpt lat="44.84011" lon="5.75814">
        <ele>831.5</ele>
        <time>2017-12-15T23:18:59Z</time>
      </trkpt>
      <trkpt lat="44.83997" lon="5.75813">
        <ele>831</ele>
        <time>2017-12-15T23:19:06Z</time>
      </trkpt>
      <trkpt lat="44.83983" lon="5.7581">
        <ele>830.4</ele>
        <time>2017-12-15T23:19:24Z</time>
      </trkpt>
      <trkpt lat="44.83972" lon="5.75803">
        <ele>829.9</ele>
        <time>2017-12-15T23:19:29Z</time>
      </trkpt>
      <trkpt lat="44.8396" lon="5.75791">
        <ele>830.6</ele>
        <time>2017-12-15T23:19:31Z</time>
      </trkpt>
      <trkpt lat="44.83952" lon="5.75776">
        <ele>831.2</ele>
        <time>2017-12-15T23:19:46Z</time>
      </trkpt>
      <trkpt lat="44.83948" lon="5.75759">
        <ele>831.5</ele>
        <time>2017-12-15T23:19:53Z</time>
      </trkpt>
      <trkpt lat="44.83947" lon="5.7574">
        <ele>832</ele>
        <time>2017-12-15T23:20:03Z</time>
      </trkpt>
      <trkpt lat="44.83949" lon="5.75722">
        <ele>832.2</ele>
        <time>2017-12-15T23:20:20Z</time>
      </trkpt>
      <trkpt lat="44.83953" lon="5.75704">
        <ele>832.1</ele>
        <time>2017-12-15T23:20:35Z</time>
      </trkpt>
      <trkpt lat="44.83961" lon="5.75686">
        <ele>831.8</ele>
        <time>2017-12-15T23:20:52Z</time>
      </trkpt>
      <trkpt lat="44.8398" lon="5.7565">
        <ele>831.1</ele>
        <time>2017-12-15T23:21:05Z</time>
      </trkpt>
      <trkpt lat="44.84013" lon="5.75592">
        <ele>830.9</ele>
        <time>2017-12-15T23:21:23Z</time>
      </trkpt>
      <trkpt lat="44.84057" lon="5.75515">
        <ele>833.5</ele>
        <time>2017-12-15T23:21:26Z</time>
      </trkpt>
      <trkpt lat="44.84069" lon="5.75498">
        <ele>835.1</ele>
        <time>2017-12-15T23:21:38Z</time>
      </trkpt>
      <trkpt lat="44.84082" lon="5.75485">
        <ele>836</ele>
        <time>2017-12-15T23:21:48Z</time>
      </trkpt>
      <trkpt lat="44.84097" lon="5.75477">
        <ele>835.8</ele>
        <time>2017-12-15T23:21:53Z</time>
      </trkpt>
      <trkpt lat="44.84113" lon="5.75471">
        <ele>835.1</ele>
        <time>2017-12-15T23:22:00Z</time>
      </trkpt>
      <trkpt lat="44.84139" lon="5.75462">
        <ele>833.9</ele>
        <time>2017-12-15T23:22:03Z</time>
      </trkpt>
      <trkpt lat="44.84163" lon="5.75443">
        <ele>835</ele>
        <time>2017-12-15T23:22:22Z</time>
      </trkpt>
      <trkpt lat="44.84176" lon="5.75429">
        <ele>835.4</ele>
        <time>2017-12-15T23:22:27Z</time>
      </trkpt>
      <trkpt lat="44.84186" lon="5.75412">
        <ele>836.5</ele>
        <time>2017-12-15T23:22:45Z</time>
      </trkpt>
      <trkpt lat="44.84202" lon="5.75373">
        <ele>839.7</ele>
        <time>2017-12-15T23:22:59Z</time>
      </trkpt>
      <trkpt lat="44.8421" lon="5.75329">
        <ele>843.1</ele>
        <time>2017-12-15T23:23:02Z</time>
      </trkpt>
      <trkpt lat="44.84213" lon="5.75283">
        <ele>845</ele>
        <time>2017-12-15T23:23:19Z</time>
      </trkpt>
      <trkpt lat="44.84208" lon="5.75236">
        <ele>846.6</ele>
        <time>2017-12-15T23:23:35Z</time>
      </trkpt>
      <trkpt lat="44.84198" lon="5.75189">
        <ele>847.1</ele>
        <time>2017-12-15T23:23:40Z</time>
      </trkpt>
      <trkpt lat="44.84171" lon="5.75101">
        <ele>849.2</ele>
        <time>2017-12-15T23:23:53Z</time>
      </trkpt>
      <trkpt lat="44.84157" lon="5.7506">
        <ele>848.8</ele>
        <time>2017-12-15T23:24:00Z</time>
      </trkpt>
      <trkpt lat="44.84148" lon="5.7504">
        <ele>848.6</ele>
        <time>2017-12-15T23:24:03Z</time>
      </trkpt>
      <trkpt lat="44.84138" lon="5.75023">
        <ele>849.7</ele>
        <time>2017-12-15T23:24:16Z</time>
      </trkpt>
      <trkpt lat="44.8412" lon="5.74994">
        <ele>854.2</ele>
        <time>2017-12-15T23:24:30Z</time>
      </trkpt>
      <trkpt lat="44.84116" lon="5.74979">
        <ele>856</ele>
        <time>2017-12-15T23:24:39Z</time>
      </trkpt>
      <trkpt lat="44.84116" lon="5.74965">
        <ele>856.7</ele>
        <time>2017-12-15T23:24:49Z</time>
      </trkpt>
      <trkpt lat="44.8412" lon="5.74951">
        <ele>856.7</ele>
        <time>2017-12-15T23:24:51Z</time>
      </trkpt>
      <trkpt lat="44.84128" lon="5.74942">
        <ele>855.8</ele>
        <time>2017-12-15T23:24:54Z</time>
      </trkpt>
      <trkpt lat="44.84138" lon="5.74937">
        <ele>854.6</ele>
        <time>2017-12-15T23:25:12Z</time>
      </trkpt>
      <trkpt lat="44.8415" lon="5.74935">
        <ele>852.8</ele>
        <time>2017-12-15T23:25:16Z</time>
      </trkpt>
      <trkpt lat="44.84176" lon="5.7493">
        <ele>849.9</ele>
        <time>2017-12-15T23:25:30Z</time>
      </trkpt>
      <trkpt lat="44.84203" lon="5.74917">
        <ele>850.6</ele>
        <time>2017-12-15T23:25:40Z</time>
      </trkpt>
      <trkpt lat="44.84266" lon="5.74884">
        <ele>850.7</ele>
        <time>2017-12-15T23:25:55Z</time>
      </trkpt>
      <trkpt lat="44.84294" lon="5.74865">
        <ele>850.6</ele>
        <time>2017-12-15T23:26:06Z</time>
      </trkpt>
      <trkpt lat="44.84305" lon="5.74852">
        <ele>851.4</ele>
        <time>2017-12-15T23:26:14Z</time>
      </trkpt>
      <trkpt lat="44.84313" lon="5.74835">
        <ele>852.9</ele>
        <time>2017-12-15T23:26:19Z</time>
      </trkpt>
      <trkpt lat="44.84319" lon="5.74816">
        <ele>854.9</ele>
        <time>2017-12-15T23:26:32Z</time>
      </trkpt>
      <trkpt lat="44.84323" lon="5.74795">
        <ele>856.7</ele>
        <time>2017-12-15T23:26:48Z</time>
      </trkpt>
      <trkpt lat="44.84328" lon="5.74748">
        <ele>859</ele>
        <time>2017-12-15T23:27:08Z</time>
      </trkpt>
      <trkpt lat="44.84332" lon="5.74645">
        <ele>861.6</ele>
        <time>2017-12-15T23:27:21Z</time>
      </trkpt>
      <trkpt lat="44.84334" lon="5.74594">
        <ele>862.9</ele>
        <time>2017-12-15T23:27:36Z</time>
      </trkpt>
      <trkpt lat="44.84339" lon="5.74571">
        <ele>862.9</ele>
        <time>2017-12-15T23:27:54Z</time>
      </trkpt>
      <trkpt lat="44.84346" lon="5.7455">
        <ele>862.7</ele>
        <time>2017-12-15T23:28:14Z</time>
      </trkpt>
      <trkpt lat="44.84366" lon="5.74508">
        <ele>861.3</ele>
        <time>2017-12-15T23:28:33Z</time>
      </trkpt>
      <trkpt lat="44.84387" lon="5.74467">
        <ele>858.4</ele>
        <time>2017-12-15T23:28:41Z</time>
      </trkpt>
      <trkpt lat="44.84406" lon="5.74425">
        <ele>857.4</ele>
        <time>2017-12-15T23:29:00Z</time>
      </trkpt>
      <trkpt lat="44.84419" lon="5.74378">
        <ele>860.9</ele>
        <time>2017-12-15T23:29:02Z</time>
      </trkpt>
      <trkpt lat="44.84425" lon="5.74327">
        <ele>866</ele>
        <time>2017-12-15T23:29:16Z</time>
      </trkpt>
      <trkpt lat="44.8443" lon="5.74274">
        <ele>868.5</ele>
        <time>2017-12-15T23:29:24Z</time>
      </trkpt>
      <trkpt lat="44.8444" lon="5.74225">
        <ele>867.5</ele>
        <time>2017-12-15T23:29:34Z</time>
      </trkpt>
      <trkpt lat="44.84454" lon="5.74177">
        <ele>866.3</ele>
        <time>2017-12-15T23:29:38Z</time>
      </trkpt>
      <trkpt lat="44.84465" lon="5.74137">
        <ele>866.2</ele>
        <time>2017-12-15T23:29:49Z</time>
      </trkpt>
      <trkpt lat="44.84467" lon="5.74121">
        <ele>867</ele>
        <time>2017-12-15T23:29:56Z</time>
      </trkpt>
      <trkpt lat="44.84467" lon="5.74105">
        <ele>867.8</ele>
        <time>2017-12-15T23:30:02Z</time>
      </trkpt>
      <trkpt lat="44.84462" lon="5.74092">
        <ele>868.1</ele>
        <time>2017-12-15T23:30:18Z</time>
      </trkpt>
      <trkpt lat="44.84453" lon="5.74083">
        <ele>868</ele>
        <time>2017-12-15T23:30:27Z</time>
      </trkpt>
      <trkpt lat="44.84443" lon="5.74081">
        <ele>867.4</ele>
        <time>2017-12-15T23:30:33Z</time>
      </trkpt>
      <trkpt lat="44.84433" lon="5.74085">
        <ele>866.6</ele>
        <time>2017-12-15T23:30:35Z</time>
      </trkpt>
      <trkpt lat="44.84425" lon="5.74096">
        <ele>866.9</ele>
        <time>2017-12-15T23:30:42Z</time>
      </trkpt>
      <trkpt lat="44.8442" lon="5.74109">
        <ele>868.1</ele>
        <time>2017-12-15T23:30:52Z</time>
      </trkpt>
      <trkpt lat="44.84406" lon="5.74137">
        <ele>870.7</ele>
        <time>2017-12-15T23:31:09Z</time>
      </trkpt>
      <trkpt lat="44.84396" lon="5.74151">
        <ele>871.6</ele>
        <time>2017-12-15T23:31:11Z</time>
      </trkpt>
      <trkpt lat="44.84373" lon="5.74176">
        <ele>873</ele>
        <time>2017-12-15T23:31:17Z</time>
      </trkpt>
      <trkpt lat="44.84348" lon="5.74196">
        <ele>873</ele>
        <time>2017-12-15T23:31:19Z</time>
      </trkpt>
      <trkpt lat="44.8432" lon="5.74213">
        <ele>873.2</ele>
        <time>2017-12-15T23:31:34Z</time>
      </trkpt>
      <trkpt lat="44.84291" lon="5.74228">
        <ele>876.1</ele>
        <time>2017-12-15T23:31:46Z</time>
      </trkpt>
      <trkpt lat="44.84276" lon="5.74232">
        <ele>877.7</ele>
        <time>2017-12-15T23:31:56Z</time>
      </trkpt>
      <trkpt lat="44.84262" lon="5.7423">
        <ele>879.1</ele>
        <time>2017-12-15T23:32:02Z</time>
      </trkpt>
      <trkpt lat="44.8425" lon="5.74222">
        <ele>879</ele>
        <time>2017-12-15T23:32:12Z</time>
      </trkpt>
      <trkpt lat="44.8424" lon="5.74209">
        <ele>879</ele>
        <time>2017-12-15T23:32:21Z</time>
      </trkpt>
      <trkpt lat="44.84226" lon="5.74173">
        <ele>876.9</ele>
        <time>2017-12-15T23:32:38Z</time>
      </trkpt>
      <trkpt lat="44.84219" lon="5.74157">
        <ele>876.3</ele>
        <time>2017-12-15T23:32:58Z</time>
      </trkpt>
      <trkpt lat="44.8421" lon="5.74142">
        <ele>876.5</ele>
        <time>2017-12-15T23:33:01Z</time>
      </trkpt>
      <trkpt lat="44.84193" lon="5.74118">
        <ele>877.4</ele>
        <time>2017-12-15T23:33:09Z</time>
      </trkpt>
      <trkpt lat="44.84179" lon="5.74098">
        <ele>877.5</ele>
        <time>2017-12-15T23:33:16Z</time>
      </trkpt>
      <trkpt lat="44.8414" lon="5.74054">
        <ele>879.4</ele>
        <time>2017-12-15T23:33:34Z</time>
      </trkpt>
      <trkpt lat="44.84127" lon="5.74044">
        <ele>879.5</ele>
        <time>2017-12-15T23:33:51Z</time>
      </trkpt>
      <trkpt lat="44.84113" lon="5.74036">
        <ele>879.8</ele>
        <time>2017-12-15T23:33:55Z</time>
      </trkpt>
      <trkpt lat="44.84083" lon="5.74023">
        <ele>881</ele>
        <time>2017-12-15T23:34:06Z</time>
      </trkpt>
      <trkpt lat="44.84052" lon="5.74009">
        <ele>884.5</ele>
        <time>2017-12-15T23:34:16Z</time>
      </trkpt>
      <trkpt lat="44.84039" lon="5.73999">
        <ele>885.6</ele>
        <time>2017-12-15T23:34:24Z</time>
      </trkpt>
      <trkpt lat="44.84027" lon="5.73984">
        <ele>885.8</ele>
        <time>2017-12-15T23:34:28Z</time>
      </trkpt>
      <trkpt lat="44.84006" lon="5.7395">
        <ele>885.9</ele>
        <time>2017-12-15T23:34:34Z</time>
      </trkpt>
      <trkpt lat="44.83984" lon="5.73916">
        <ele>887.6</ele>
        <time>2017-12-15T23:34:53Z</time>
      </trkpt>
      <trkpt lat="44.83961" lon="5.73887">
        <ele>888.4</ele>
        <time>2017-12-15T23:34:58Z</time>
      </trkpt>
      <trkpt lat="44.83947" lon="5.73877">
        <ele>889.4</ele>
        <time>2017-12-15T23:35:05Z</time>
      </trkpt>
      <trkpt lat="44.83932" lon="5.73869">
        <ele>890.4</ele>
        <time>2017-12-15T23:35:14Z</time>
      </trkpt>
      <trkpt lat="44.83902" lon="5.73852">
        <ele>891</ele>
        <time>2017-12-15T23:35:19Z</time>
      </trkpt>
      <trkpt lat="44.83874" lon="5.73832">
        <ele>889.2</ele>
        <time>2017-12-15T23:35:22Z</time>
      </trkpt>
      <trkpt lat="44.83847" lon="5.73813">
        <ele>886.7</ele>
        <time>2017-12-15T23:35:28Z</time>
      </trkpt>
      <trkpt lat="44.83817" lon="5.73803">
        <ele>886.5</ele>
        <time>2017-12-15T23:35:30Z</time>
      </trkpt>
      <trkpt lat="44.83783" lon="5.73798">
        <ele>887.9</ele>
        <time>2017-12-15T23:35:44Z</time>
      </trkpt>
      <trkpt lat="44.83756" lon="5.73794">
        <ele>888.6</ele>
        <time>2017-12-15T23:35:51Z</time>
      </trkpt>
      <trkpt lat="44.83742" lon="5.73791">
        <ele>889.1</ele>
        <time>2017-12-15T23:36:10Z</time>
      </trkpt>
      <trkpt lat="44.83723" lon="5.73783">
        <ele>889.7</ele>
        <time>2017-12-15T23:36:23Z</time>
      </trkpt>
      <trkpt lat="44.83688" lon="5.73759">
        <ele>889.9</ele>
        <time>2017-12-15T23:36:42Z</time>
      </trkpt>
      <trkpt lat="44.83657" lon="5.73741">
        <ele>890.4</ele>
        <time>2017-12-15T23:36:53Z</time>
      </trkpt>
      <trkpt lat="44.83644" lon="5.73738">
        <ele>890.9</ele>
        <time>2017-12-15T23:37:08Z</time>
      </trkpt>
      <trkpt lat="44.8363" lon="5.73738">
        <ele>891.5</ele>
        <time>2017-12-15T23:37:25Z</time>
      </trkpt>
      <trkpt lat="44.83615" lon="5.73742">
        <ele>892.3</ele>
        <time>2017-12-15T23:37:38Z</time>
      </trkpt>
      <trkpt lat="44.83602" lon="5.73751">
        <ele>893.4</ele>
        <time>2017-12-15T23:37:52Z</time>
      </trkpt>
      <trkpt lat="44.83589" lon="5.73767">
        <ele>894</ele>
        <time>2017-12-15T23:38:12Z</time>
      </trkpt>
      <trkpt lat="44.83582" lon="5.73782">
        <ele>894</ele>
        <time>2017-12-15T23:38:23Z</time>
      </trkpt>
      <trkpt lat="44.83576" lon="5.738">
        <ele>893.8</ele>
        <time>2017-12-15T23:38:38Z</time>
      </trkpt>
      <trkpt lat="44.8357" lon="5.73824">
        <ele>893.2</ele>
        <time>2017-12-15T23:38:55Z</time>
      </trkpt>
      <trkpt lat="44.8356" lon="5.7388">
        <ele>890.5</ele>
        <time>2017-12-15T23:39:12Z</time>
      </trkpt>
      <trkpt lat="44.83541" lon="5.73983">
        <ele>886.1</ele>
        <time>2017-12-15T23:39:15Z</time>
      </trkpt>
      <trkpt lat="44.83532" lon="5.74016">
        <ele>884.7</ele>
        <time>2017-12-15T23:39:34Z</time>
      </trkpt>
      <trkpt lat="44.83517" lon="5.74053">
        <ele>883.2</ele>
        <time>2017-12-15T23:39:44Z</time>
      </trkpt>
      <trkpt lat="44.83498" lon="5.74098">
        <ele>881.3</ele>
        <time>2017-12-15T23:40:00Z</time>
      </trkpt>
      <trkpt lat="44.83479" lon="5.74143">
        <ele>879.5</ele>
        <time>2017-12-15T23:40:19Z</time>
      </trkpt>
      <trkpt lat="44.83464" lon="5.7418">
        <ele>878.7</ele>
        <time>2017-12-15T23:40:33Z</time>
      </trkpt>
      <trkpt lat="44.83456" lon="5.74209">
        <ele>877.9</ele>
        <time>2017-12-15T23:40:42Z</time>
      </trkpt>
      <trkpt lat="44.83451" lon="5.74256">
        <ele>876.3</ele>
        <time>2017-12-15T23:40:48Z</time>
      </trkpt>
      <trkpt lat="44.83451" lon="5.74303">
        <ele>873.9</ele>
        <time>2017-12-15T23:40:58Z</time>
      </trkpt>
      <trkpt lat="44.83449" lon="5.74338">
        <ele>872.5</ele>
        <time>2017-12-15T23:41:17Z</time>
      </trkpt>
      <trkpt lat="44.8344" lon="5.74379">
        <ele>871.5</ele>
        <time>2017-12-15T23:41:32Z</time>
      </trkpt>
      <trkpt lat="44.83428" lon="5.74405">
        <ele>870.6</ele>
        <time>2017-12-15T23:41:44Z</time>
      </trkpt>
      <trkpt lat="44.83415" lon="5.74428">
        <ele>869.9</ele>
        <time>2017-12-15T23:41:50Z</time>
      </trkpt>
      <trkpt lat="44.83389" lon="5.74465">
        <ele>869</ele>
        <time>2017-12-15T23:41:57Z</time>
      </trkpt>
      <trkpt lat="44.83378" lon="5.74488">
        <ele>868.2</ele>
        <time>2017-12-15T23:42:03Z</time>
      </trkpt>
      <trkpt lat="44.8337" lon="5.74508">
        <ele>867.4</ele>
        <time>2017-12-15T23:42:23Z</time>
      </trkpt>
      <trkpt lat="44.83363" lon="5.74533">
        <ele>866</ele>
        <time>2017-12-15T23:42:25Z</time>
      </trkpt>
      <trkpt lat="44.8336" lon="5.74559">
        <ele>864.8</ele>
        <time>2017-12-15T23:42:36Z</time>
      </trkpt>
      <trkpt lat="44.83359" lon="5.7462">
        <ele>862.5</ele>
        <time>2017-12-15T23:42:49Z</time>
      </trkpt>
      <trkpt lat="44.83358" lon="5.74663">
        <ele>860.8</ele>
        <time>2017-12-15T23:42:58Z</time>
      </trkpt>
      <trkpt lat="44.83347" lon="5.7472">
        <ele>859</ele>
        <time>2017-12-15T23:43:01Z</time>
      </trkpt>
      <trkpt lat="44.83336" lon="5.74755">
        <ele>858.2</ele>
        <time>2017-12-15T23:43:16Z</time>
      </trkpt>
      <trkpt lat="44.83328" lon="5.74772">
        <ele>857.2</ele>
        <time>2017-12-15T23:43:20Z</time>
      </trkpt>
      <trkpt lat="44.83313" lon="5.74804">
        <ele>856</ele>
        <time>2017-12-15T23:43:30Z</time>
      </trkpt>
      <trkpt lat="44.83305" lon="5.74822">
        <ele>855.5</ele>
        <time>2017-12-15T23:43:38Z</time>
      </trkpt>
      <trkpt lat="44.83295" lon="5.74858">
        <ele>855</ele>
        <time>2017-12-15T23:43:40Z</time>
      </trkpt>
      <trkpt lat="44.83289" lon="5.74898">
        <ele>853.4</ele>
        <time>2017-12-15T23:43:47Z</time>
      </trkpt>
      <trkpt lat="44.8329" lon="5.74948">
        <ele>850.9</ele>
        <time>2017-12-15T23:44:01Z</time>
      </trkpt>
      <trkpt lat="44.83301" lon="5.75025">
        <ele>849</ele>
        <time>2017-12-15T23:44:13Z</time>
      </trkpt>
      <trkpt lat="44.83306" lon="5.75062">
        <ele>849.1</ele>
        <time>2017-12-15T23:44:26Z</time>
      </trkpt>
      <trkpt lat="44.83306" lon="5.7508">
        <ele>849.1</ele>
        <time>2017-12-15T23:44:46Z</time>
      </trkpt>
      <trkpt lat="44.83303" lon="5.75097">
        <ele>848.8</ele>
        <time>2017-12-15T23:44:48Z</time>
      </trkpt>
      <trkpt lat="44.83297" lon="5.75112">
        <ele>847.9</ele>
        <time>2017-12-15T23:45:02Z</time>
      </trkpt>
      <trkpt lat="44.83281" lon="5.75139">
        <ele>845.8</ele>
        <time>2017-12-15T23:45:07Z</time>
      </trkpt>
      <trkpt lat="44.83255" lon="5.75177">
        <ele>843.9</ele>
        <time>2017-12-15T23:45:25Z</time>
      </trkpt>
      <trkpt lat="44.83241" lon="5.75189">
        <ele>843.6</ele>
        <time>2017-12-15T23:45:38Z</time>
      </trkpt>
      <trkpt lat="44.83228" lon="5.75194">
        <ele>843.3</ele>
        <time>2017-12-15T23:45:54Z</time>
      </trkpt>
      <trkpt lat="44.83215" lon="5.75196">
        <ele>843.6</ele>
        <time>2017-12-15T23:45:59Z</time>
      </trkpt>
      <trkpt lat="44.83201" lon="5.75192">
        <ele>843.2</ele>
        <time>2017-12-15T23:46:01Z</time>
      </trkpt>
      <trkpt lat="44.83188" lon="5.75184">
        <ele>841.7</ele>
        <time>2017-12-15T23:46:08Z</time>
      </trkpt>
      <trkpt lat="44.83176" lon="5.75173">
        <ele>839.8</ele>
        <time>2017-12-15T23:46:26Z</time>
      </trkpt>
      <trkpt lat="44.83153" lon="5.75149">
        <ele>837.5</ele>
        <time>2017-12-15T23:46:42Z</time>
      </trkpt>
      <trkpt lat="44.83128" lon="5.75126">
        <ele>834.9</ele>
        <time>2017-12-15T23:46:58Z</time>
      </trkpt>
      <trkpt lat="44.831" lon="5.75111">
        <ele>833.4</ele>
        <time>2017-12-15T23:47:16Z</time>
      </trkpt>
      <trkpt lat="44.83085" lon="5.75107">
        <ele>833.1</ele>
        <time>2017-12-15T23:47:24Z</time>
      </trkpt>
      <trkpt lat="44.83069" lon="5.75106">
        <ele>832.4</ele>
        <time>2017-12-15T23:47:38Z</time>
      </trkpt>
      <trkpt lat="44.83054" lon="5.75108">
        <ele>832.2</ele>
        <time>2017-12-15T23:47:54Z</time>
      </trkpt>
      <trkpt lat="44.83038" lon="5.75113">
        <ele>832</ele>
        <time>2017-12-15T23:48:10Z</time>
      </trkpt>
      <trkpt lat="44.83023" lon="5.75121">
        <ele>831.9</ele>
        <time>2017-12-15T23:48:18Z</time>
      </trkpt>
      <trkpt lat="44.83009" lon="5.75132">
        <ele>832</ele>
        <time>2017-12-15T23:48:35Z</time>
      </trkpt>
      <trkpt lat="44.82997" lon="5.75146">
        <ele>831.8</ele>
        <time>2017-12-15T23:48:53Z</time>
      </trkpt>
      <trkpt lat="44.82985" lon="5.75162">
        <ele>830.3</ele>
        <time>2017-12-15T23:49:05Z</time>
      </trkpt>
      <trkpt lat="44.82965" lon="5.75196">
        <ele>828.3</ele>
        <time>2017-12-15T23:49:10Z</time>
      </trkpt>
      <trkpt lat="44.82954" lon="5.75211">
        <ele>827.4</ele>
        <time>2017-12-15T23:49:28Z</time>
      </trkpt>
      <trkpt lat="44.82941" lon="5.75223">
        <ele>826.6</ele>
        <time>2017-12-15T23:49:34Z</time>
      </trkpt>
      <trkpt lat="44.82927" lon="5.75231">
        <ele>826.3</ele>
        <time>2017-12-15T23:49:44Z</time>
      </trkpt>
      <trkpt lat="44.82912" lon="5.75236">
        <ele>825.9</ele>
        <time>2017-12-15T23:49:56Z</time>
      </trkpt>
      <trkpt lat="44.82897" lon="5.75236">
        <ele>825.6</ele>
        <time>2017-12-15T23:50:05Z</time>
      </trkpt>
      <trkpt lat="44.82874" lon="5.75232">
        <ele>824.5</ele>
        <time>2017-12-15T23:50:09Z</time>
      </trkpt>
      <trkpt lat="44.82837" lon="5.75221">
        <ele>822.6</ele>
        <time>2017-12-15T23:50:26Z</time>
      </trkpt>
      <trkpt lat="44.82808" lon="5.75209">
        <ele>823.3</ele>
        <time>2017-12-15T23:50:45Z</time>
      </trkpt>
      <trkpt lat="44.82796" lon="5.75198">
        <ele>823.3</ele>
        <time>2017-12-15T23:50:48Z</time>
      </trkpt>
      <trkpt lat="44.82785" lon="5.75184">
        <ele>823.1</ele>
        <time>2017-12-15T23:50:56Z</time>
      </trkpt>
      <trkpt lat="44.82777" lon="5.75168">
        <ele>822.4</ele>
        <time>2017-12-15T23:51:11Z</time>
      </trkpt>
      <trkpt lat="44.82772" lon="5.75139">
        <ele>820.1</ele>
        <time>2017-12-15T23:51:23Z</time>
      </trkpt>
      <trkpt lat="44.8277" lon="5.75099">
        <ele>815.4</ele>
        <time>2017-12-15T23:51:38Z</time>
      </trkpt>
      <trkpt lat="44.82761" lon="5.7506">
        <ele>812.8</ele>
        <time>2017-12-15T23:51:51Z</time>
      </trkpt>
      <trkpt lat="44.82754" lon="5.75042">
        <ele>812.1</ele>
        <time>2017-12-15T23:52:04Z</time>
      </trkpt>
      <trkpt lat="44.82745" lon="5.75026">
        <ele>811.4</ele>
        <time>2017-12-15T23:52:24Z</time>
      </trkpt>
      <trkpt lat="44.82734" lon="5.75013">
        <ele>810.6</ele>
        <time>2017-12-15T23:52:41Z</time>
      </trkpt>
      <trkpt lat="44.82722" lon="5.75002">
        <ele>810.4</ele>
        <time>2017-12-15T23:52:49Z</time>
      </trkpt>
      <trkpt lat="44.82696" lon="5.74984">
        <ele>810</ele>
        <time>2017-12-15T23:52:52Z</time>
      </trkpt>
      <trkpt lat="44.82665" lon="5.74962">
        <ele>808.7</ele>
        <time>2017-12-15T23:53:03Z</time>
      </trkpt>
      <trkpt lat="44.82653" lon="5.7495">
        <ele>808.3</ele>
        <time>2017-12-15T23:53:11Z</time>
      </trkpt>
      <trkpt lat="44.82634" lon="5.74921">
        <ele>806.1</ele>
        <time>2017-12-15T23:53:16Z</time>
      </trkpt>
      <trkpt lat="44.82611" lon="5.74889">
        <ele>806</ele>
        <time>2017-12-15T23:53:20Z</time>
      </trkpt>
      <trkpt lat="44.82589" lon="5.74873">
        <ele>804.1</ele>
        <time>2017-12-15T23:53:24Z</time>
      </trkpt>
      <trkpt lat="44.82562" lon="5.74865">
        <ele>802.6</ele>
        <time>2017-12-15T23:53:28Z</time>
      </trkpt>
      <trkpt lat="44.82505" lon="5.74851">
        <ele>799.3</ele>
        <time>2017-12-15T23:53:35Z</time>
      </trkpt>
      <trkpt lat="44.82463" lon="5.74839">
        <ele>797.1</ele>
        <time>2017-12-15T23:53:40Z</time>
      </trkpt>
      <trkpt lat="44.82435" lon="5.74828">
        <ele>795.7</ele>
        <time>2017-12-15T23:53:59Z</time>
      </trkpt>
      <trkpt lat="44.82382" lon="5.74804">
        <ele>793.9</ele>
        <time>2017-12-15T23:54:06Z</time>
      </trkpt>
      <trkpt lat="44.82329" lon="5.74781">
        <ele>790.6</ele>
        <time>2017-12-15T23:54:12Z</time>
      </trkpt>
      <trkpt lat="44.82304" lon="5.7477">
        <ele>788</ele>
        <time>2017-12-15T23:54:22Z</time>
      </trkpt>
      <trkpt lat="44.82279" lon="5.74762">
        <ele>786</ele>
        <time>2017-12-15T23:54:38Z</time>
      </trkpt>
      <trkpt lat="44.82253" lon="5.74763">
        <ele>785.9</ele>
        <time>2017-12-15T23:54:54Z</time>
      </trkpt>
      <trkpt lat="44.82227" lon="5.74771">
        <ele>785.1</ele>
        <time>2017-12-15T23:55:02Z</time>
      </trkpt>
      <trkpt lat="44.82202" lon="5.74785">
        <ele>784.9</ele>
        <time>2017-12-15T23:55:19Z</time>
      </trkpt>
      <trkpt lat="44.82178" lon="5.74802">
        <ele>784.7</ele>
        <time>2017-12-15T23:55:25Z</time>
      </trkpt>
      <trkpt lat="44.82155" lon="5.74819">
        <ele>783.8</ele>
        <time>2017-12-15T23:55:29Z</time>
      </trkpt>
      <trkpt lat="44.82136" lon="5.74836">
        <ele>782.8</ele>
        <time>2017-12-15T23:55:32Z</time>
      </trkpt>
      <trkpt lat="44.82121" lon="5.74858">
        <ele>782.2</ele>
        <time>2017-12-15T23:55:49Z</time>
      </trkpt>
      <trkpt lat="44.82109" lon="5.74884">
        <ele>781.5</ele>
        <time>2017-12-15T23:55:51Z</time>
      </trkpt>
      <trkpt lat="44.82105" lon="5.74895">
        <ele>780.7</ele>
        <time>2017-12-15T23:56:02Z</time>
      </trkpt>
      <trkpt lat="44.82101" lon="5.74894">
        <ele>780.1</ele>
        <time>2017-12-15T23:56:12Z</time>
      </trkpt>
      <trkpt lat="44.82085" lon="5.74885">
        <ele>777.3</ele>
        <time>2017-12-15T23:56:26Z</time>
      </trkpt>
      <trkpt lat="44.82075" lon="5.7488">
        <ele>776.1</ele>
        <time>2017-12-15T23:56:39Z</time>
      </trkpt>
      <trkpt lat="44.82067" lon="5.74872">
        <ele>775.2</ele>
        <time>2017-12-15T23:56:45Z</time>
      </trkpt>
      <trkpt lat="44.82047" lon="5.7485">
        <ele>772.6</ele>
        <time>2017-12-15T23:56:47Z</time>
      </trkpt>
      <trkpt lat="44.82027" lon="5.74851">
        <ele>770.3</ele>
        <time>2017-12-15T23:57:05Z</time>
      </trkpt>
      <trkpt lat="44.82001" lon="5.74868">
        <ele>767.1</ele>
        <time>2017-12-15T23:57:08Z</time>
      </trkpt>
      <trkpt lat="44.81978" lon="5.74886">
        <ele>763.9</ele>
        <time>2017-12-15T23:57:17Z</time>
      </trkpt>
      <trkpt lat="44.81966" lon="5.74896">
        <ele>761.7</ele>
        <time>2017-12-15T23:57:27Z</time>
      </trkpt>
      <trkpt lat="44.8196" lon="5.74897">
        <ele>760.6</ele>
        <time>2017-12-15T23:57:47Z</time>
      </trkpt>
      <trkpt lat="44.81941" lon="5.749">
        <ele>757.5</ele>
        <time>2017-12-15T23:57:59Z</time>
      </trkpt>
      <trkpt lat="44.81925" lon="5.74912">
        <ele>755.2</ele>
        <time>2017-12-15T23:58:18Z</time>
      </trkpt>
      <trkpt lat="44.81922" lon="5.74919">
        <ele>754.8</ele>
        <time>2017-12-15T23:58:37Z</time>
      </trkpt>
      <trkpt lat="44.81913" lon="5.74926">
        <ele>754.2</ele>
        <time>2017-12-15T23:58:53Z</time>
      </trkpt>
      <trkpt lat="44.81903" lon="5.74928">
        <ele>754.1</ele>
        <time>2017-12-15T23:59:08Z</time>
      </trkpt>
      <trkpt lat="44.81876" lon="5.74938">
        <ele>755.8</ele>
        <time>2017-12-15T23:59:25Z</time>
      </trkpt>
      <trkpt lat="44.81849" lon="5.74949">
        <ele>759.6</ele>
        <time>2017-12-15T23:59:32Z</time>
      </trkpt>
      <trkpt lat="44.81829" lon="5.74955">
        <ele>762.2</ele>
        <time>2017-12-15T23:59:43Z</time>
      </trkpt>
      <trkpt lat="44.81806" lon="5.74963">
        <ele>765.3</ele>
        <time>2017-12-15T23:59:53Z</time>
      </trkpt>
      <trkpt lat="44.81796" lon="5.74969">
        <ele>766.5</ele>
        <time>2017-12-16T00:00:08Z</time>
      </trkpt>
      <trkpt lat="44.81782" lon="5.74981">
        <ele>768</ele>
        <time>2017-12-16T00:00:22Z</time>
      </trkpt>
      <trkpt lat="44.8177" lon="5.74988">
        <ele>769</ele>
        <time>2017-12-16T00:00:29Z</time>
      </trkpt>
      <trkpt lat="44.81764" lon="5.75005">
        <ele>770.4</ele>
        <time>2017-12-16T00:00:34Z</time>
      </trkpt>
      <trkpt lat="44.81747" lon="5.75024">
        <ele>772.7</ele>
        <time>2017-12-16T00:00:38Z</time>
      </trkpt>
      <trkpt lat="44.81734" lon="5.75027">
        <ele>772.9</ele>
        <time>2017-12-16T00:00:49Z</time>
      </trkpt>
      <trkpt lat="44.8171" lon="5.75043">
        <ele>774.8</ele>
        <time>2017-12-16T00:01:04Z</time>
      </trkpt>
      <trkpt lat="44.81694" lon="5.75049">
        <ele>775.5</ele>
        <time>2017-12-16T00:01:15Z</time>
      </trkpt>
      <trkpt lat="44.81693" lon="5.75049">
        <ele>775.5</ele>
        <time>2017-12-16T00:01:28Z</time>
      </trkpt>
    </trkseg>
  </trk>
</gpx>